<?xml version='1.0' encoding='UTF-8'?><gpx version="1.1" creator="JPX - https://github.com/jenetics/jpx" xmlns="http://www.topografix.com/GPX/1/1"><trk><trkseg><trkpt lat="45.9138676" lon="11.0670779"><ele>214.0</ele><time>2026-04-30T16:11:32.894Z</time></trkpt><trkpt lat="45.9138228" lon="11.0671845"><ele>214.0</ele><time>2026-04-30T16:11:34.894Z</time></trkpt><trkpt lat="45.9137482" lon="11.0673442"><ele>214.0</ele><time>2026-04-30T16:11:36.893Z</time></trkpt><trkpt lat="45.9136805" lon="11.0674868"><ele>214.0</ele><time>2026-04-30T16:11:38.893Z</time></trkpt><trkpt lat="45.9136129" lon="11.0676415"><ele>213.83333333333331</ele><time>2026-04-30T16:11:40.893Z</time></trkpt><trkpt lat="45.9135764" lon="11.0677185"><ele>213.66666666666666</ele><time>2026-04-30T16:11:41.893Z</time></trkpt><trkpt lat="45.9135477" lon="11.0678022"><ele>213.5</ele><time>2026-04-30T16:12:36.893Z</time></trkpt><trkpt lat="45.9134642" lon="11.0679604"><ele>213.33333333333331</ele><time>2026-04-30T16:12:38.894Z</time></trkpt><trkpt lat="45.9134172" lon="11.0680589"><ele>213.16666666666666</ele><time>2026-04-30T16:12:39.893Z</time></trkpt><trkpt lat="45.9133703" lon="11.0681621"><ele>213.0</ele><time>2026-04-30T16:12:40.893Z</time></trkpt><trkpt lat="45.9133346" lon="11.068269"><ele>217.5</ele><time>2026-04-30T16:12:41.893Z</time></trkpt><trkpt lat="45.9133229" lon="11.0683806"><ele>222.0</ele><time>2026-04-30T16:12:42.893Z</time></trkpt><trkpt lat="45.913321" lon="11.0684986"><ele>226.5</ele><time>2026-04-30T16:12:43.893Z</time></trkpt><trkpt lat="45.9133118" lon="11.0686107"><ele>231.0</ele><time>2026-04-30T16:12:44.893Z</time></trkpt><trkpt lat="45.9132995" lon="11.0687224"><ele>235.5</ele><time>2026-04-30T16:12:45.894Z</time></trkpt><trkpt lat="45.9132876" lon="11.0688363"><ele>240.0</ele><time>2026-04-30T16:12:46.894Z</time></trkpt><trkpt lat="45.9132734" lon="11.0689493"><ele>240.0</ele><time>2026-04-30T16:12:47.894Z</time></trkpt><trkpt lat="45.9132613" lon="11.0690781"><ele>240.0</ele><time>2026-04-30T16:12:48.893Z</time></trkpt><trkpt lat="45.9132497" lon="11.0692014"><ele>240.0</ele><time>2026-04-30T16:12:49.894Z</time></trkpt><trkpt lat="45.9132235" lon="11.0693658"><ele>240.0</ele><time>2026-04-30T16:12:51.893Z</time></trkpt><trkpt lat="45.9132004" lon="11.0694589"><ele>240.0</ele><time>2026-04-30T16:12:52.894Z</time></trkpt><trkpt lat="45.9131652" lon="11.0695664"><ele>240.0</ele><time>2026-04-30T16:12:53.894Z</time></trkpt><trkpt lat="45.9131226" lon="11.0696596"><ele>239.5</ele><time>2026-04-30T16:12:54.894Z</time></trkpt><trkpt lat="45.9130774" lon="11.0697778"><ele>239.0</ele><time>2026-04-30T16:12:55.894Z</time></trkpt><trkpt lat="45.9130407" lon="11.0698745"><ele>238.5</ele><time>2026-04-30T16:12:56.893Z</time></trkpt><trkpt lat="45.9130023" lon="11.0699466"><ele>238.0</ele><time>2026-04-30T16:12:57.893Z</time></trkpt><trkpt lat="45.9129353" lon="11.0700426"><ele>237.5</ele><time>2026-04-30T16:12:59.893Z</time></trkpt><trkpt lat="45.9128463" lon="11.0701161"><ele>237.0</ele><time>2026-04-30T16:13:01.893Z</time></trkpt><trkpt lat="45.9127303" lon="11.0701615"><ele>237.0</ele><time>2026-04-30T16:13:03.893Z</time></trkpt><trkpt lat="45.9126681" lon="11.0701908"><ele>237.0</ele><time>2026-04-30T16:13:04.893Z</time></trkpt><trkpt lat="45.9126094" lon="11.0702269"><ele>237.0</ele><time>2026-04-30T16:13:05.893Z</time></trkpt><trkpt lat="45.9125086" lon="11.0702862"><ele>237.0</ele><time>2026-04-30T16:13:07.894Z</time></trkpt><trkpt lat="45.9124246" lon="11.0703429"><ele>237.0</ele><time>2026-04-30T16:13:09.894Z</time></trkpt><trkpt lat="45.9123689" lon="11.0703978"><ele>237.0</ele><time>2026-04-30T16:13:11.893Z</time></trkpt><trkpt lat="45.9122888" lon="11.0704081"><ele>239.66666666666666</ele><time>2026-04-30T16:14:29.891Z</time></trkpt><trkpt lat="45.9122527" lon="11.0702589"><ele>242.33333333333331</ele><time>2026-04-30T16:14:31.892Z</time></trkpt><trkpt lat="45.9122359" lon="11.0701657"><ele>245.0</ele><time>2026-04-30T16:14:32.892Z</time></trkpt><trkpt lat="45.9122175" lon="11.0700738"><ele>247.66666666666666</ele><time>2026-04-30T16:14:33.892Z</time></trkpt><trkpt lat="45.9121972" lon="11.0699741"><ele>250.33333333333331</ele><time>2026-04-30T16:14:34.893Z</time></trkpt><trkpt lat="45.9121728" lon="11.0698813"><ele>253.0</ele><time>2026-04-30T16:14:35.892Z</time></trkpt><trkpt lat="45.9121317" lon="11.0697989"><ele>253.16666666666666</ele><time>2026-04-30T16:14:36.892Z</time></trkpt><trkpt lat="45.9120754" lon="11.0697208"><ele>253.33333333333331</ele><time>2026-04-30T16:14:37.891Z</time></trkpt><trkpt lat="45.9120192" lon="11.0696454"><ele>253.5</ele><time>2026-04-30T16:14:38.893Z</time></trkpt><trkpt lat="45.9119658" lon="11.0695756"><ele>253.66666666666669</ele><time>2026-04-30T16:14:39.893Z</time></trkpt><trkpt lat="45.9119106" lon="11.0695035"><ele>253.83333333333334</ele><time>2026-04-30T16:14:40.892Z</time></trkpt><trkpt lat="45.9118562" lon="11.0694302"><ele>254.0</ele><time>2026-04-30T16:14:41.893Z</time></trkpt><trkpt lat="45.9118027" lon="11.0693576"><ele>254.0</ele><time>2026-04-30T16:14:42.893Z</time></trkpt><trkpt lat="45.9117538" lon="11.0692968"><ele>253.99999999999997</ele><time>2026-04-30T16:14:43.892Z</time></trkpt><trkpt lat="45.911638" lon="11.069241"><ele>253.99999999999997</ele><time>2026-04-30T16:14:45.892Z</time></trkpt><trkpt lat="45.9115709" lon="11.0692247"><ele>254.0</ele><time>2026-04-30T16:14:46.893Z</time></trkpt><trkpt lat="45.9114739" lon="11.0691052"><ele>254.0</ele><time>2026-04-30T16:14:48.892Z</time></trkpt><trkpt lat="45.9114248" lon="11.0690227"><ele>254.50000000000003</ele><time>2026-04-30T16:14:49.893Z</time></trkpt><trkpt lat="45.9113782" lon="11.0689259"><ele>255.0</ele><time>2026-04-30T16:14:50.892Z</time></trkpt><trkpt lat="45.9113369" lon="11.0688501"><ele>255.5</ele><time>2026-04-30T16:14:51.893Z</time></trkpt><trkpt lat="45.9112851" lon="11.0687975"><ele>256.0</ele><time>2026-04-30T16:14:52.892Z</time></trkpt><trkpt lat="45.9112142" lon="11.0687451"><ele>256.5</ele><time>2026-04-30T16:14:53.891Z</time></trkpt><trkpt lat="45.9111468" lon="11.0686688"><ele>257.0</ele><time>2026-04-30T16:14:54.892Z</time></trkpt><trkpt lat="45.9110753" lon="11.0685835"><ele>257.0</ele><time>2026-04-30T16:14:55.892Z</time></trkpt><trkpt lat="45.9110061" lon="11.0684907"><ele>257.0</ele><time>2026-04-30T16:14:56.892Z</time></trkpt><trkpt lat="45.9109371" lon="11.0683942"><ele>257.0</ele><time>2026-04-30T16:14:57.893Z</time></trkpt><trkpt lat="45.91086" lon="11.0682964"><ele>257.0</ele><time>2026-04-30T16:14:58.892Z</time></trkpt><trkpt lat="45.91078" lon="11.0681999"><ele>257.0</ele><time>2026-04-30T16:14:59.892Z</time></trkpt><trkpt lat="45.9107155" lon="11.0681161"><ele>257.83333333333337</ele><time>2026-04-30T16:15:00.893Z</time></trkpt><trkpt lat="45.9106664" lon="11.0680349"><ele>258.6666666666667</ele><time>2026-04-30T16:15:01.893Z</time></trkpt><trkpt lat="45.9106233" lon="11.0679455"><ele>259.5</ele><time>2026-04-30T16:15:02.893Z</time></trkpt><trkpt lat="45.9105807" lon="11.0678578"><ele>260.3333333333333</ele><time>2026-04-30T16:15:03.891Z</time></trkpt><trkpt lat="45.9105316" lon="11.0677759"><ele>261.16666666666663</ele><time>2026-04-30T16:15:04.892Z</time></trkpt><trkpt lat="45.9104781" lon="11.0676938"><ele>262.0</ele><time>2026-04-30T16:15:05.892Z</time></trkpt><trkpt lat="45.9104172" lon="11.0676118"><ele>262.0</ele><time>2026-04-30T16:15:06.892Z</time></trkpt><trkpt lat="45.9103532" lon="11.0675325"><ele>262.0</ele><time>2026-04-30T16:15:07.893Z</time></trkpt><trkpt lat="45.9102891" lon="11.0674531"><ele>262.0</ele><time>2026-04-30T16:15:08.893Z</time></trkpt><trkpt lat="45.9102226" lon="11.06737"><ele>262.0</ele><time>2026-04-30T16:15:09.892Z</time></trkpt><trkpt lat="45.9101543" lon="11.0672877"><ele>262.0</ele><time>2026-04-30T16:15:10.892Z</time></trkpt><trkpt lat="45.9100828" lon="11.0672063"><ele>262.0</ele><time>2026-04-30T16:15:11.893Z</time></trkpt><trkpt lat="45.9100113" lon="11.0671255"><ele>262.5</ele><time>2026-04-30T16:15:12.893Z</time></trkpt><trkpt lat="45.9099398" lon="11.0670467"><ele>263.0</ele><time>2026-04-30T16:15:13.893Z</time></trkpt><trkpt lat="45.9098659" lon="11.0669725"><ele>263.5</ele><time>2026-04-30T16:15:14.892Z</time></trkpt><trkpt lat="45.9097913" lon="11.066903"><ele>264.0</ele><time>2026-04-30T16:15:15.893Z</time></trkpt><trkpt lat="45.9097162" lon="11.0668367"><ele>264.5</ele><time>2026-04-30T16:15:16.892Z</time></trkpt><trkpt lat="45.9096411" lon="11.0667713"><ele>265.0</ele><time>2026-04-30T16:15:17.893Z</time></trkpt><trkpt lat="45.9095624" lon="11.0667119"><ele>265.0</ele><time>2026-04-30T16:15:18.893Z</time></trkpt><trkpt lat="45.909478" lon="11.0666556"><ele>265.0</ele><time>2026-04-30T16:15:19.892Z</time></trkpt><trkpt lat="45.9093925" lon="11.0666025"><ele>265.0</ele><time>2026-04-30T16:15:20.892Z</time></trkpt><trkpt lat="45.9093039" lon="11.0665485"><ele>265.0</ele><time>2026-04-30T16:15:21.892Z</time></trkpt><trkpt lat="45.9092186" lon="11.0664929"><ele>265.0</ele><time>2026-04-30T16:15:22.892Z</time></trkpt><trkpt lat="45.9091339" lon="11.0664392"><ele>265.4</ele><time>2026-04-30T16:15:23.892Z</time></trkpt><trkpt lat="45.90905" lon="11.0663841"><ele>265.8</ele><time>2026-04-30T16:15:24.892Z</time></trkpt><trkpt lat="45.9089647" lon="11.0663275"><ele>266.2</ele><time>2026-04-30T16:15:25.892Z</time></trkpt><trkpt lat="45.9088751" lon="11.0662784"><ele>266.6</ele><time>2026-04-30T16:15:26.893Z</time></trkpt><trkpt lat="45.9087842" lon="11.0662283"><ele>267.0</ele><time>2026-04-30T16:15:27.892Z</time></trkpt><trkpt lat="45.908693" lon="11.0661724"><ele>267.0</ele><time>2026-04-30T16:15:28.892Z</time></trkpt><trkpt lat="45.908601" lon="11.0661195"><ele>267.0</ele><time>2026-04-30T16:15:29.893Z</time></trkpt><trkpt lat="45.9085109" lon="11.0660679"><ele>267.0</ele><time>2026-04-30T16:15:30.892Z</time></trkpt><trkpt lat="45.9084391" lon="11.0660118"><ele>267.0</ele><time>2026-04-30T16:15:31.893Z</time></trkpt><trkpt lat="45.9083793" lon="11.0659543"><ele>267.0</ele><time>2026-04-30T16:15:32.892Z</time></trkpt><trkpt lat="45.9083209" lon="11.0659185"><ele>267.0</ele><time>2026-04-30T16:15:33.892Z</time></trkpt><trkpt lat="45.908255" lon="11.0659191"><ele>269.8</ele><time>2026-04-30T16:15:34.892Z</time></trkpt><trkpt lat="45.9081729" lon="11.0659595"><ele>272.6</ele><time>2026-04-30T16:15:35.893Z</time></trkpt><trkpt lat="45.9080733" lon="11.0659937"><ele>275.40000000000003</ele><time>2026-04-30T16:15:36.893Z</time></trkpt><trkpt lat="45.9079936" lon="11.0660144"><ele>278.2</ele><time>2026-04-30T16:15:37.892Z</time></trkpt><trkpt lat="45.9078983" lon="11.0660401"><ele>281.0</ele><time>2026-04-30T16:15:38.892Z</time></trkpt><trkpt lat="45.9077995" lon="11.0660699"><ele>281.0</ele><time>2026-04-30T16:15:39.892Z</time></trkpt><trkpt lat="45.9077209" lon="11.066107"><ele>281.0</ele><time>2026-04-30T16:15:40.893Z</time></trkpt><trkpt lat="45.9076499" lon="11.0661563"><ele>281.0</ele><time>2026-04-30T16:15:41.892Z</time></trkpt><trkpt lat="45.9075942" lon="11.0662195"><ele>281.0</ele><time>2026-04-30T16:15:42.892Z</time></trkpt><trkpt lat="45.9075287" lon="11.0663018"><ele>281.0</ele><time>2026-04-30T16:15:43.892Z</time></trkpt><trkpt lat="45.907447" lon="11.0664163"><ele>281.0</ele><time>2026-04-30T16:15:44.892Z</time></trkpt><trkpt lat="45.9073899" lon="11.066493"><ele>282.0</ele><time>2026-04-30T16:15:45.892Z</time></trkpt><trkpt lat="45.9073231" lon="11.0665499"><ele>283.0</ele><time>2026-04-30T16:15:46.892Z</time></trkpt><trkpt lat="45.907242" lon="11.0665877"><ele>284.0</ele><time>2026-04-30T16:15:47.892Z</time></trkpt><trkpt lat="45.90716" lon="11.0666091"><ele>285.0</ele><time>2026-04-30T16:15:48.892Z</time></trkpt><trkpt lat="45.9070759" lon="11.066608"><ele>286.0</ele><time>2026-04-30T16:15:49.893Z</time></trkpt><trkpt lat="45.9069954" lon="11.0665899"><ele>287.0</ele><time>2026-04-30T16:15:50.893Z</time></trkpt><trkpt lat="45.9069151" lon="11.0665647"><ele>287.0</ele><time>2026-04-30T16:15:51.892Z</time></trkpt><trkpt lat="45.9068363" lon="11.0665382"><ele>287.0</ele><time>2026-04-30T16:15:52.893Z</time></trkpt><trkpt lat="45.9067709" lon="11.0665238"><ele>287.0</ele><time>2026-04-30T16:15:53.893Z</time></trkpt><trkpt lat="45.9066587" lon="11.0665002"><ele>287.0</ele><time>2026-04-30T16:15:55.892Z</time></trkpt><trkpt lat="45.9065262" lon="11.0664624"><ele>287.0</ele><time>2026-04-30T16:15:57.893Z</time></trkpt><trkpt lat="45.9064319" lon="11.0664342"><ele>287.8</ele><time>2026-04-30T16:15:58.892Z</time></trkpt><trkpt lat="45.9063225" lon="11.0664045"><ele>288.6</ele><time>2026-04-30T16:15:59.893Z</time></trkpt><trkpt lat="45.9062214" lon="11.0663771"><ele>289.40000000000003</ele><time>2026-04-30T16:16:00.892Z</time></trkpt><trkpt lat="45.9061281" lon="11.0663501"><ele>290.2</ele><time>2026-04-30T16:16:01.892Z</time></trkpt><trkpt lat="45.9060426" lon="11.0663263"><ele>291.0</ele><time>2026-04-30T16:16:02.893Z</time></trkpt><trkpt lat="45.9059584" lon="11.0663003"><ele>291.6</ele><time>2026-04-30T16:16:03.892Z</time></trkpt><trkpt lat="45.9058629" lon="11.0662685"><ele>292.20000000000005</ele><time>2026-04-30T16:16:04.892Z</time></trkpt><trkpt lat="45.905776" lon="11.0662426"><ele>292.79999999999995</ele><time>2026-04-30T16:16:05.893Z</time></trkpt><trkpt lat="45.9056984" lon="11.0662166"><ele>293.4</ele><time>2026-04-30T16:16:06.893Z</time></trkpt><trkpt lat="45.9056321" lon="11.0662002"><ele>294.0</ele><time>2026-04-30T16:16:07.892Z</time></trkpt><trkpt lat="45.9055283" lon="11.0661073"><ele>294.0</ele><time>2026-04-30T16:16:09.893Z</time></trkpt><trkpt lat="45.9054668" lon="11.0660423"><ele>294.0</ele><time>2026-04-30T16:16:10.893Z</time></trkpt><trkpt lat="45.9054092" lon="11.0659865"><ele>294.0</ele><time>2026-04-30T16:16:11.892Z</time></trkpt><trkpt lat="45.9053733" lon="11.0659037"><ele>294.0</ele><time>2026-04-30T16:16:12.893Z</time></trkpt><trkpt lat="45.9053556" lon="11.0658081"><ele>294.0</ele><time>2026-04-30T16:16:13.892Z</time></trkpt><trkpt lat="45.9053378" lon="11.0657161"><ele>294.0</ele><time>2026-04-30T16:16:14.893Z</time></trkpt><trkpt lat="45.905321" lon="11.0656229"><ele>294.0</ele><time>2026-04-30T16:16:15.892Z</time></trkpt><trkpt lat="45.905304" lon="11.0655304"><ele>292.5</ele><time>2026-04-30T16:16:16.893Z</time></trkpt><trkpt lat="45.9052992" lon="11.0654365"><ele>291.0</ele><time>2026-04-30T16:16:17.892Z</time></trkpt><trkpt lat="45.9053092" lon="11.0653432"><ele>289.5</ele><time>2026-04-30T16:16:18.893Z</time></trkpt><trkpt lat="45.9053791" lon="11.0652109"><ele>288.0</ele><time>2026-04-30T16:16:20.893Z</time></trkpt><trkpt lat="45.9054385" lon="11.0651686"><ele>286.5</ele><time>2026-04-30T16:16:21.893Z</time></trkpt><trkpt lat="45.9055026" lon="11.0651361"><ele>285.0</ele><time>2026-04-30T16:16:22.892Z</time></trkpt><trkpt lat="45.9056217" lon="11.0651049"><ele>285.0</ele><time>2026-04-30T16:16:24.892Z</time></trkpt><trkpt lat="45.9057117" lon="11.0650931"><ele>285.0</ele><time>2026-04-30T16:16:25.892Z</time></trkpt><trkpt lat="45.9058297" lon="11.0650816"><ele>285.0</ele><time>2026-04-30T16:16:26.893Z</time></trkpt><trkpt lat="45.9059136" lon="11.0650735"><ele>285.0</ele><time>2026-04-30T16:16:27.892Z</time></trkpt><trkpt lat="45.9059884" lon="11.0650641"><ele>285.0</ele><time>2026-04-30T16:16:28.892Z</time></trkpt><trkpt lat="45.9060699" lon="11.0650445"><ele>284.4</ele><time>2026-04-30T16:16:29.891Z</time></trkpt><trkpt lat="45.9061337" lon="11.0650245"><ele>283.8</ele><time>2026-04-30T16:16:30.893Z</time></trkpt><trkpt lat="45.906194" lon="11.0649121"><ele>283.2</ele><time>2026-04-30T16:16:32.892Z</time></trkpt><trkpt lat="45.9062258" lon="11.0647912"><ele>282.6</ele><time>2026-04-30T16:16:33.893Z</time></trkpt><trkpt lat="45.9062625" lon="11.0646419"><ele>282.0</ele><time>2026-04-30T16:16:34.893Z</time></trkpt><trkpt lat="45.9062965" lon="11.0645123"><ele>281.6</ele><time>2026-04-30T16:16:35.892Z</time></trkpt><trkpt lat="45.9063319" lon="11.0644037"><ele>281.2</ele><time>2026-04-30T16:16:36.892Z</time></trkpt><trkpt lat="45.9063841" lon="11.0643251"><ele>280.8</ele><time>2026-04-30T16:16:37.892Z</time></trkpt><trkpt lat="45.9064423" lon="11.0642375"><ele>280.4</ele><time>2026-04-30T16:16:38.893Z</time></trkpt><trkpt lat="45.9064996" lon="11.0641183"><ele>280.0</ele><time>2026-04-30T16:16:39.892Z</time></trkpt><trkpt lat="45.9065638" lon="11.0639887"><ele>279.2</ele><time>2026-04-30T16:16:40.893Z</time></trkpt><trkpt lat="45.9066188" lon="11.0638546"><ele>278.4</ele><time>2026-04-30T16:16:41.893Z</time></trkpt><trkpt lat="45.906669" lon="11.0637125"><ele>277.6</ele><time>2026-04-30T16:16:42.892Z</time></trkpt><trkpt lat="45.9067198" lon="11.06357"><ele>276.8</ele><time>2026-04-30T16:16:43.893Z</time></trkpt><trkpt lat="45.9067605" lon="11.0634519"><ele>276.0</ele><time>2026-04-30T16:16:44.893Z</time></trkpt><trkpt lat="45.9067965" lon="11.063352"><ele>276.0</ele><time>2026-04-30T16:16:45.892Z</time></trkpt><trkpt lat="45.9068406" lon="11.0632338"><ele>276.0</ele><time>2026-04-30T16:16:47.893Z</time></trkpt><trkpt lat="45.9068046" lon="11.0631278"><ele>276.0</ele><time>2026-04-30T16:16:52.893Z</time></trkpt><trkpt lat="45.9067342" lon="11.0631032"><ele>276.0</ele><time>2026-04-30T16:16:53.893Z</time></trkpt><trkpt lat="45.9066477" lon="11.0630768"><ele>276.0</ele><time>2026-04-30T16:16:54.892Z</time></trkpt><trkpt lat="45.9065504" lon="11.0630577"><ele>276.0</ele><time>2026-04-30T16:16:55.891Z</time></trkpt><trkpt lat="45.906446" lon="11.0630495"><ele>278.25</ele><time>2026-04-30T16:16:56.893Z</time></trkpt><trkpt lat="45.9063356" lon="11.0630496"><ele>280.5</ele><time>2026-04-30T16:16:57.893Z</time></trkpt><trkpt lat="45.9062208" lon="11.0630672"><ele>282.75</ele><time>2026-04-30T16:16:58.892Z</time></trkpt><trkpt lat="45.9061049" lon="11.0631006"><ele>285.0</ele><time>2026-04-30T16:16:59.892Z</time></trkpt><trkpt lat="45.9059885" lon="11.0631468"><ele>287.0</ele><time>2026-04-30T16:17:00.892Z</time></trkpt><trkpt lat="45.905871" lon="11.0631946"><ele>289.0</ele><time>2026-04-30T16:17:01.892Z</time></trkpt><trkpt lat="45.9057562" lon="11.0632407"><ele>291.0</ele><time>2026-04-30T16:17:02.892Z</time></trkpt><trkpt lat="45.905645" lon="11.0632855"><ele>293.0</ele><time>2026-04-30T16:17:03.893Z</time></trkpt><trkpt lat="45.9055522" lon="11.0633224"><ele>293.0</ele><time>2026-04-30T16:17:04.892Z</time></trkpt><trkpt lat="45.9054728" lon="11.0633582"><ele>293.0</ele><time>2026-04-30T16:17:05.892Z</time></trkpt><trkpt lat="45.9054101" lon="11.0633931"><ele>293.0</ele><time>2026-04-30T16:17:06.892Z</time></trkpt><trkpt lat="45.9053439" lon="11.0633739"><ele>293.0</ele><time>2026-04-30T16:17:08.892Z</time></trkpt><trkpt lat="45.9053644" lon="11.0632792"><ele>293.0</ele><time>2026-04-30T16:17:10.893Z</time></trkpt><trkpt lat="45.9054803" lon="11.0631326"><ele>293.0</ele><time>2026-04-30T16:17:12.893Z</time></trkpt><trkpt lat="45.9055276" lon="11.0630643"><ele>294.33333333333337</ele><time>2026-04-30T16:17:13.893Z</time></trkpt><trkpt lat="45.9054832" lon="11.0629347"><ele>295.6666666666667</ele><time>2026-04-30T16:17:17.892Z</time></trkpt><trkpt lat="45.9054159" lon="11.0628438"><ele>297.0</ele><time>2026-04-30T16:17:19.892Z</time></trkpt><trkpt lat="45.9053459" lon="11.0628518"><ele>298.3333333333333</ele><time>2026-04-30T16:17:21.892Z</time></trkpt><trkpt lat="45.9052962" lon="11.0629102"><ele>299.66666666666663</ele><time>2026-04-30T16:17:24.891Z</time></trkpt><trkpt lat="45.905265" lon="11.0630442"><ele>301.0</ele><time>2026-04-30T16:17:27.893Z</time></trkpt><trkpt lat="45.9052488" lon="11.0631616"><ele>301.0</ele><time>2026-04-30T16:17:29.893Z</time></trkpt><trkpt lat="45.9052102" lon="11.0632701"><ele>301.0</ele><time>2026-04-30T16:17:32.892Z</time></trkpt><trkpt lat="45.9051628" lon="11.0633806"><ele>301.0</ele><time>2026-04-30T16:17:34.892Z</time></trkpt><trkpt lat="45.9051082" lon="11.0634355"><ele>301.0</ele><time>2026-04-30T16:17:36.892Z</time></trkpt><trkpt lat="45.9050366" lon="11.0634805"><ele>301.0</ele><time>2026-04-30T16:17:38.892Z</time></trkpt><trkpt lat="45.9049598" lon="11.0635192"><ele>301.0</ele><time>2026-04-30T16:17:40.892Z</time></trkpt><trkpt lat="45.9048682" lon="11.0635328"><ele>302.3333333333333</ele><time>2026-04-30T16:17:42.893Z</time></trkpt><trkpt lat="45.9047741" lon="11.0635413"><ele>303.66666666666663</ele><time>2026-04-30T16:17:44.892Z</time></trkpt><trkpt lat="45.9046504" lon="11.0635632"><ele>305.0</ele><time>2026-04-30T16:17:46.893Z</time></trkpt><trkpt lat="45.9045712" lon="11.0635594"><ele>306.3333333333333</ele><time>2026-04-30T16:17:47.892Z</time></trkpt><trkpt lat="45.9044954" lon="11.0635402"><ele>307.6666666666667</ele><time>2026-04-30T16:17:48.892Z</time></trkpt><trkpt lat="45.9044324" lon="11.0635086"><ele>309.0</ele><time>2026-04-30T16:17:49.893Z</time></trkpt><trkpt lat="45.9043036" lon="11.0634348"><ele>311.3333333333333</ele><time>2026-04-30T16:17:51.892Z</time></trkpt><trkpt lat="45.9042386" lon="11.063412"><ele>313.6666666666667</ele><time>2026-04-30T16:17:52.893Z</time></trkpt><trkpt lat="45.9041687" lon="11.063468"><ele>316.0</ele><time>2026-04-30T16:17:54.893Z</time></trkpt><trkpt lat="45.904122" lon="11.063564"><ele>318.33333333333337</ele><time>2026-04-30T16:17:56.891Z</time></trkpt><trkpt lat="45.9040385" lon="11.0635778"><ele>320.6666666666667</ele><time>2026-04-30T16:17:58.892Z</time></trkpt><trkpt lat="45.9039615" lon="11.0634891"><ele>323.0</ele><time>2026-04-30T16:18:00.892Z</time></trkpt><trkpt lat="45.9039494" lon="11.0633732"><ele>323.0</ele><time>2026-04-30T16:18:02.892Z</time></trkpt><trkpt lat="45.90387" lon="11.0632992"><ele>323.0</ele><time>2026-04-30T16:18:04.892Z</time></trkpt><trkpt lat="45.9037783" lon="11.0633414"><ele>323.0</ele><time>2026-04-30T16:18:06.892Z</time></trkpt><trkpt lat="45.9037011" lon="11.0633702"><ele>323.0</ele><time>2026-04-30T16:18:08.892Z</time></trkpt><trkpt lat="45.9036582" lon="11.0632977"><ele>323.0</ele><time>2026-04-30T16:18:10.892Z</time></trkpt><trkpt lat="45.9036668" lon="11.0631676"><ele>323.0</ele><time>2026-04-30T16:18:12.893Z</time></trkpt><trkpt lat="45.9035996" lon="11.0630935"><ele>325.2</ele><time>2026-04-30T16:18:15.892Z</time></trkpt><trkpt lat="45.9035429" lon="11.063155"><ele>327.4</ele><time>2026-04-30T16:18:17.892Z</time></trkpt><trkpt lat="45.9035727" lon="11.0630106"><ele>329.59999999999997</ele><time>2026-04-30T16:18:20.893Z</time></trkpt><trkpt lat="45.9035972" lon="11.0628722"><ele>331.79999999999995</ele><time>2026-04-30T16:18:22.892Z</time></trkpt><trkpt lat="45.9036372" lon="11.0627632"><ele>334.0</ele><time>2026-04-30T16:18:24.892Z</time></trkpt><trkpt lat="45.9037415" lon="11.0627501"><ele>334.0</ele><time>2026-04-30T16:18:26.892Z</time></trkpt><trkpt lat="45.9038155" lon="11.0627566"><ele>334.0</ele><time>2026-04-30T16:18:27.892Z</time></trkpt><trkpt lat="45.9038853" lon="11.0627037"><ele>334.0</ele><time>2026-04-30T16:18:28.892Z</time></trkpt><trkpt lat="45.9039302" lon="11.0626247"><ele>334.0</ele><time>2026-04-30T16:18:29.892Z</time></trkpt><trkpt lat="45.9039648" lon="11.0625305"><ele>334.0</ele><time>2026-04-30T16:18:30.892Z</time></trkpt><trkpt lat="45.9040535" lon="11.0625288"><ele>334.0</ele><time>2026-04-30T16:18:32.893Z</time></trkpt><trkpt lat="45.90412" lon="11.062568"><ele>334.0</ele><time>2026-04-30T16:18:33.892Z</time></trkpt><trkpt lat="45.9042025" lon="11.0625927"><ele>334.0</ele><time>2026-04-30T16:18:34.893Z</time></trkpt><trkpt lat="45.9042835" lon="11.0626119"><ele>334.0</ele><time>2026-04-30T16:18:35.893Z</time></trkpt><trkpt lat="45.9043544" lon="11.0625727"><ele>334.0</ele><time>2026-04-30T16:18:36.892Z</time></trkpt><trkpt lat="45.9044135" lon="11.0625391"><ele>334.0</ele><time>2026-04-30T16:18:37.892Z</time></trkpt><trkpt lat="45.9045294" lon="11.0625371"><ele>334.0</ele><time>2026-04-30T16:18:39.893Z</time></trkpt><trkpt lat="45.9046062" lon="11.0625365"><ele>333.0</ele><time>2026-04-30T16:18:40.893Z</time></trkpt><trkpt lat="45.9046979" lon="11.0625316"><ele>332.0</ele><time>2026-04-30T16:18:41.892Z</time></trkpt><trkpt lat="45.9047925" lon="11.0625009"><ele>331.0</ele><time>2026-04-30T16:18:42.892Z</time></trkpt><trkpt lat="45.9049146" lon="11.0624555"><ele>330.0</ele><time>2026-04-30T16:18:43.893Z</time></trkpt><trkpt lat="45.9050095" lon="11.06243"><ele>329.0</ele><time>2026-04-30T16:18:44.892Z</time></trkpt><trkpt lat="45.9050789" lon="11.0623876"><ele>329.0</ele><time>2026-04-30T16:18:45.893Z</time></trkpt><trkpt lat="45.9051469" lon="11.0623343"><ele>329.0</ele><time>2026-04-30T16:18:46.892Z</time></trkpt><trkpt lat="45.9051069" lon="11.0622031"><ele>329.0</ele><time>2026-04-30T16:18:47.892Z</time></trkpt><trkpt lat="45.9050024" lon="11.0621087"><ele>329.0</ele><time>2026-04-30T16:18:49.893Z</time></trkpt><trkpt lat="45.9049153" lon="11.0621322"><ele>329.0</ele><time>2026-04-30T16:18:50.893Z</time></trkpt><trkpt lat="45.9048179" lon="11.0621976"><ele>329.0</ele><time>2026-04-30T16:18:51.892Z</time></trkpt><trkpt lat="45.9047409" lon="11.0622549"><ele>329.0</ele><time>2026-04-30T16:18:52.892Z</time></trkpt><trkpt lat="45.9046632" lon="11.062304"><ele>329.0</ele><time>2026-04-30T16:18:53.892Z</time></trkpt><trkpt lat="45.9045778" lon="11.0623576"><ele>329.0</ele><time>2026-04-30T16:18:54.892Z</time></trkpt><trkpt lat="45.9045132" lon="11.0623685"><ele>329.0</ele><time>2026-04-30T16:18:55.892Z</time></trkpt><trkpt lat="45.9044474" lon="11.0623234"><ele>329.0</ele><time>2026-04-30T16:18:56.893Z</time></trkpt><trkpt lat="45.9044397" lon="11.0621865"><ele>329.0</ele><time>2026-04-30T16:18:58.893Z</time></trkpt><trkpt lat="45.904484" lon="11.0621189"><ele>329.0</ele><time>2026-04-30T16:18:59.893Z</time></trkpt><trkpt lat="45.9046127" lon="11.0620292"><ele>329.0</ele><time>2026-04-30T16:19:01.892Z</time></trkpt><trkpt lat="45.9046875" lon="11.06202"><ele>329.0</ele><time>2026-04-30T16:19:02.892Z</time></trkpt><trkpt lat="45.9047616" lon="11.0620241"><ele>329.0</ele><time>2026-04-30T16:19:03.893Z</time></trkpt><trkpt lat="45.9048558" lon="11.0619446"><ele>329.0</ele><time>2026-04-30T16:19:05.892Z</time></trkpt><trkpt lat="45.9049591" lon="11.0618802"><ele>329.0</ele><time>2026-04-30T16:19:07.892Z</time></trkpt><trkpt lat="45.9050235" lon="11.0618288"><ele>329.0</ele><time>2026-04-30T16:19:08.893Z</time></trkpt><trkpt lat="45.9050707" lon="11.0617662"><ele>329.0</ele><time>2026-04-30T16:19:09.892Z</time></trkpt><trkpt lat="45.9051074" lon="11.0616203"><ele>329.0</ele><time>2026-04-30T16:19:11.893Z</time></trkpt><trkpt lat="45.9051007" lon="11.0614844"><ele>326.1666666666667</ele><time>2026-04-30T16:19:13.893Z</time></trkpt><trkpt lat="45.9051965" lon="11.0614161"><ele>323.33333333333337</ele><time>2026-04-30T16:19:16.892Z</time></trkpt><trkpt lat="45.9052684" lon="11.0613919"><ele>320.5</ele><time>2026-04-30T16:19:17.893Z</time></trkpt><trkpt lat="45.905335" lon="11.0613596"><ele>317.6666666666667</ele><time>2026-04-30T16:19:18.893Z</time></trkpt><trkpt lat="45.90541" lon="11.0613426"><ele>314.8333333333333</ele><time>2026-04-30T16:19:19.892Z</time></trkpt><trkpt lat="45.9055227" lon="11.0613874"><ele>312.0</ele><time>2026-04-30T16:19:21.893Z</time></trkpt><trkpt lat="45.9055679" lon="11.0614704"><ele>312.0</ele><time>2026-04-30T16:19:22.893Z</time></trkpt><trkpt lat="45.9056029" lon="11.061572"><ele>312.0</ele><time>2026-04-30T16:19:23.892Z</time></trkpt><trkpt lat="45.9056239" lon="11.0616616"><ele>312.0</ele><time>2026-04-30T16:19:24.893Z</time></trkpt><trkpt lat="45.905625" lon="11.0617555"><ele>312.0</ele><time>2026-04-30T16:19:25.893Z</time></trkpt><trkpt lat="45.9056073" lon="11.0618541"><ele>312.0</ele><time>2026-04-30T16:19:26.892Z</time></trkpt><trkpt lat="45.9055688" lon="11.0619609"><ele>312.0</ele><time>2026-04-30T16:19:27.892Z</time></trkpt><trkpt lat="45.9055185" lon="11.0620755"><ele>311.6</ele><time>2026-04-30T16:19:28.892Z</time></trkpt><trkpt lat="45.9054575" lon="11.0621786"><ele>311.2</ele><time>2026-04-30T16:19:29.893Z</time></trkpt><trkpt lat="45.9054072" lon="11.0622811"><ele>310.8</ele><time>2026-04-30T16:19:30.892Z</time></trkpt><trkpt lat="45.9053571" lon="11.0623911"><ele>310.4</ele><time>2026-04-30T16:19:31.893Z</time></trkpt><trkpt lat="45.9053085" lon="11.0624947"><ele>310.0</ele><time>2026-04-30T16:19:32.893Z</time></trkpt><trkpt lat="45.9052556" lon="11.0626306"><ele>308.2</ele><time>2026-04-30T16:19:34.892Z</time></trkpt><trkpt lat="45.905244" lon="11.0627492"><ele>306.4</ele><time>2026-04-30T16:19:37.892Z</time></trkpt><trkpt lat="45.9052628" lon="11.0628842"><ele>304.6</ele><time>2026-04-30T16:19:40.893Z</time></trkpt><trkpt lat="45.9052695" lon="11.0630497"><ele>302.8</ele><time>2026-04-30T16:19:42.893Z</time></trkpt><trkpt lat="45.9052462" lon="11.0631663"><ele>301.0</ele><time>2026-04-30T16:19:43.893Z</time></trkpt><trkpt lat="45.9052082" lon="11.0633051"><ele>299.40000000000003</ele><time>2026-04-30T16:19:45.893Z</time></trkpt><trkpt lat="45.9051215" lon="11.0634253"><ele>297.8</ele><time>2026-04-30T16:19:47.893Z</time></trkpt><trkpt lat="45.9050507" lon="11.0634726"><ele>296.20000000000005</ele><time>2026-04-30T16:19:48.892Z</time></trkpt><trkpt lat="45.9049628" lon="11.0635178"><ele>294.6</ele><time>2026-04-30T16:19:49.893Z</time></trkpt><trkpt lat="45.9048819" lon="11.0635361"><ele>293.0</ele><time>2026-04-30T16:19:50.892Z</time></trkpt><trkpt lat="45.9048059" lon="11.0635406"><ele>295.6666666666667</ele><time>2026-04-30T16:19:51.892Z</time></trkpt><trkpt lat="45.9047393" lon="11.0635522"><ele>298.33333333333337</ele><time>2026-04-30T16:19:52.893Z</time></trkpt><trkpt lat="45.9046453" lon="11.0635667"><ele>301.0</ele><time>2026-04-30T16:19:53.892Z</time></trkpt><trkpt lat="45.9045699" lon="11.0635642"><ele>303.6666666666667</ele><time>2026-04-30T16:19:54.892Z</time></trkpt><trkpt lat="45.9044869" lon="11.0635471"><ele>306.3333333333333</ele><time>2026-04-30T16:19:55.892Z</time></trkpt><trkpt lat="45.9044163" lon="11.063509"><ele>309.0</ele><time>2026-04-30T16:19:56.893Z</time></trkpt><trkpt lat="45.9042826" lon="11.0634407"><ele>311.79999999999995</ele><time>2026-04-30T16:19:58.893Z</time></trkpt><trkpt lat="45.9042207" lon="11.0634223"><ele>314.59999999999997</ele><time>2026-04-30T16:19:59.893Z</time></trkpt><trkpt lat="45.9041438" lon="11.0635093"><ele>317.4</ele><time>2026-04-30T16:20:01.893Z</time></trkpt><trkpt lat="45.9040641" lon="11.0636018"><ele>320.2</ele><time>2026-04-30T16:20:03.893Z</time></trkpt><trkpt lat="45.903965" lon="11.0635261"><ele>323.0</ele><time>2026-04-30T16:20:05.892Z</time></trkpt><trkpt lat="45.9039409" lon="11.0633933"><ele>323.0</ele><time>2026-04-30T16:20:07.893Z</time></trkpt><trkpt lat="45.9038489" lon="11.0632876"><ele>323.0</ele><time>2026-04-30T16:20:09.892Z</time></trkpt><trkpt lat="45.9037527" lon="11.0633482"><ele>323.0</ele><time>2026-04-30T16:20:11.892Z</time></trkpt><trkpt lat="45.9036675" lon="11.063355"><ele>323.0</ele><time>2026-04-30T16:20:13.892Z</time></trkpt><trkpt lat="45.9036454" lon="11.0632484"><ele>323.0</ele><time>2026-04-30T16:20:15.892Z</time></trkpt><trkpt lat="45.9036593" lon="11.0631418"><ele>324.83333333333337</ele><time>2026-04-30T16:20:17.893Z</time></trkpt><trkpt lat="45.9037326" lon="11.063097"><ele>326.6666666666667</ele><time>2026-04-30T16:20:19.892Z</time></trkpt><trkpt lat="45.9038123" lon="11.0630785"><ele>328.5</ele><time>2026-04-30T16:20:20.893Z</time></trkpt><trkpt lat="45.9038888" lon="11.0630812"><ele>330.3333333333333</ele><time>2026-04-30T16:20:21.893Z</time></trkpt><trkpt lat="45.9039539" lon="11.0630915"><ele>332.16666666666663</ele><time>2026-04-30T16:20:22.892Z</time></trkpt><trkpt lat="45.9040791" lon="11.0631143"><ele>334.0</ele><time>2026-04-30T16:20:24.892Z</time></trkpt><trkpt lat="45.9041647" lon="11.0631312"><ele>334.0</ele><time>2026-04-30T16:20:25.892Z</time></trkpt><trkpt lat="45.9042282" lon="11.0631419"><ele>334.0</ele><time>2026-04-30T16:20:26.893Z</time></trkpt><trkpt lat="45.9043367" lon="11.0631779"><ele>334.0</ele><time>2026-04-30T16:20:28.893Z</time></trkpt><trkpt lat="45.9044116" lon="11.0631975"><ele>334.0</ele><time>2026-04-30T16:20:29.893Z</time></trkpt><trkpt lat="45.9044945" lon="11.0632169"><ele>334.0</ele><time>2026-04-30T16:20:30.892Z</time></trkpt><trkpt lat="45.9046073" lon="11.0632073"><ele>334.0</ele><time>2026-04-30T16:20:32.892Z</time></trkpt><trkpt lat="45.9046598" lon="11.0631046"><ele>334.0</ele><time>2026-04-30T16:20:34.892Z</time></trkpt><trkpt lat="45.9046301" lon="11.0629692"><ele>334.0</ele><time>2026-04-30T16:20:36.892Z</time></trkpt><trkpt lat="45.9045402" lon="11.0629174"><ele>334.0</ele><time>2026-04-30T16:20:38.893Z</time></trkpt><trkpt lat="45.9044401" lon="11.0629018"><ele>334.0</ele><time>2026-04-30T16:20:40.892Z</time></trkpt><trkpt lat="45.9043709" lon="11.0628899"><ele>334.0</ele><time>2026-04-30T16:20:41.892Z</time></trkpt><trkpt lat="45.9042914" lon="11.0628796"><ele>334.0</ele><time>2026-04-30T16:20:42.893Z</time></trkpt><trkpt lat="45.9042124" lon="11.0628691"><ele>334.0</ele><time>2026-04-30T16:20:43.892Z</time></trkpt><trkpt lat="45.9041248" lon="11.0628604"><ele>334.0</ele><time>2026-04-30T16:20:44.893Z</time></trkpt><trkpt lat="45.9040452" lon="11.062857"><ele>334.0</ele><time>2026-04-30T16:20:45.893Z</time></trkpt><trkpt lat="45.9039625" lon="11.062856"><ele>334.0</ele><time>2026-04-30T16:20:46.893Z</time></trkpt><trkpt lat="45.9038659" lon="11.0628553"><ele>334.0</ele><time>2026-04-30T16:20:47.893Z</time></trkpt><trkpt lat="45.903769" lon="11.0628689"><ele>334.0</ele><time>2026-04-30T16:20:48.892Z</time></trkpt><trkpt lat="45.9037041" lon="11.0628873"><ele>334.0</ele><time>2026-04-30T16:20:49.893Z</time></trkpt><trkpt lat="45.9036128" lon="11.0628863"><ele>334.0</ele><time>2026-04-30T16:20:51.892Z</time></trkpt><trkpt lat="45.9035737" lon="11.0629655"><ele>334.0</ele><time>2026-04-30T16:20:53.892Z</time></trkpt><trkpt lat="45.9035318" lon="11.0630996"><ele>334.0</ele><time>2026-04-30T16:20:55.892Z</time></trkpt><trkpt lat="45.9035945" lon="11.0630778"><ele>334.0</ele><time>2026-04-30T16:20:59.892Z</time></trkpt><trkpt lat="45.9036676" lon="11.0630966"><ele>334.0</ele><time>2026-04-30T16:21:02.892Z</time></trkpt><trkpt lat="45.903743" lon="11.0630783"><ele>334.0</ele><time>2026-04-30T16:21:04.893Z</time></trkpt><trkpt lat="45.9038252" lon="11.0630627"><ele>334.0</ele><time>2026-04-30T16:21:05.893Z</time></trkpt><trkpt lat="45.9038978" lon="11.0630663"><ele>334.0</ele><time>2026-04-30T16:21:06.893Z</time></trkpt><trkpt lat="45.9039695" lon="11.0630768"><ele>334.0</ele><time>2026-04-30T16:21:07.893Z</time></trkpt><trkpt lat="45.9041016" lon="11.0631041"><ele>334.0</ele><time>2026-04-30T16:21:09.892Z</time></trkpt><trkpt lat="45.9041885" lon="11.0631223"><ele>334.0</ele><time>2026-04-30T16:21:10.892Z</time></trkpt><trkpt lat="45.9042545" lon="11.0631322"><ele>331.66666666666663</ele><time>2026-04-30T16:21:11.892Z</time></trkpt><trkpt lat="45.9043204" lon="11.0631583"><ele>329.3333333333333</ele><time>2026-04-30T16:21:12.892Z</time></trkpt><trkpt lat="45.9043827" lon="11.0631731"><ele>327.0</ele><time>2026-04-30T16:21:13.892Z</time></trkpt><trkpt lat="45.9044733" lon="11.0631871"><ele>324.6666666666667</ele><time>2026-04-30T16:21:14.892Z</time></trkpt><trkpt lat="45.9045411" lon="11.0632042"><ele>322.33333333333337</ele><time>2026-04-30T16:21:15.892Z</time></trkpt><trkpt lat="45.9046354" lon="11.0631742"><ele>320.0</ele><time>2026-04-30T16:21:17.893Z</time></trkpt><trkpt lat="45.9046676" lon="11.0630888"><ele>320.0</ele><time>2026-04-30T16:21:32.892Z</time></trkpt><trkpt lat="45.9046211" lon="11.0630047"><ele>320.0</ele><time>2026-04-30T16:21:34.892Z</time></trkpt><trkpt lat="45.9045594" lon="11.062928"><ele>320.0</ele><time>2026-04-30T16:21:36.893Z</time></trkpt><trkpt lat="45.9044406" lon="11.0628959"><ele>320.0</ele><time>2026-04-30T16:21:38.892Z</time></trkpt><trkpt lat="45.904364" lon="11.0628898"><ele>320.0</ele><time>2026-04-30T16:21:39.892Z</time></trkpt><trkpt lat="45.9042816" lon="11.0628799"><ele>320.0</ele><time>2026-04-30T16:21:40.892Z</time></trkpt><trkpt lat="45.9042039" lon="11.0628713"><ele>322.33333333333337</ele><time>2026-04-30T16:21:41.891Z</time></trkpt><trkpt lat="45.9041184" lon="11.0628628"><ele>324.6666666666667</ele><time>2026-04-30T16:21:42.893Z</time></trkpt><trkpt lat="45.9040403" lon="11.0628589"><ele>327.0</ele><time>2026-04-30T16:21:43.893Z</time></trkpt><trkpt lat="45.9039525" lon="11.0628586"><ele>329.3333333333333</ele><time>2026-04-30T16:21:44.893Z</time></trkpt><trkpt lat="45.9038558" lon="11.0628573"><ele>331.66666666666663</ele><time>2026-04-30T16:21:45.892Z</time></trkpt><trkpt lat="45.9037616" lon="11.0628687"><ele>334.0</ele><time>2026-04-30T16:21:46.892Z</time></trkpt><trkpt lat="45.903697" lon="11.0628899"><ele>334.0</ele><time>2026-04-30T16:21:47.893Z</time></trkpt><trkpt lat="45.9036053" lon="11.0628899"><ele>334.0</ele><time>2026-04-30T16:21:49.893Z</time></trkpt><trkpt lat="45.9035549" lon="11.063037"><ele>334.0</ele><time>2026-04-30T16:21:52.892Z</time></trkpt><trkpt lat="45.9035319" lon="11.0631475"><ele>334.0</ele><time>2026-04-30T16:21:54.893Z</time></trkpt><trkpt lat="45.9036023" lon="11.0630745"><ele>334.0</ele><time>2026-04-30T16:21:57.892Z</time></trkpt><trkpt lat="45.9036791" lon="11.0631101"><ele>334.0</ele><time>2026-04-30T16:22:00.892Z</time></trkpt><trkpt lat="45.9037878" lon="11.0630527"><ele>334.0</ele><time>2026-04-30T16:22:02.892Z</time></trkpt><trkpt lat="45.9038857" lon="11.0630676"><ele>334.0</ele><time>2026-04-30T16:22:03.892Z</time></trkpt><trkpt lat="45.9039691" lon="11.063071"><ele>334.0</ele><time>2026-04-30T16:22:04.892Z</time></trkpt><trkpt lat="45.9040879" lon="11.0630982"><ele>334.0</ele><time>2026-04-30T16:22:06.893Z</time></trkpt><trkpt lat="45.9041678" lon="11.063119"><ele>334.0</ele><time>2026-04-30T16:22:07.892Z</time></trkpt><trkpt lat="45.9042447" lon="11.0631375"><ele>334.0</ele><time>2026-04-30T16:22:08.893Z</time></trkpt><trkpt lat="45.9043072" lon="11.0631563"><ele>334.0</ele><time>2026-04-30T16:22:09.893Z</time></trkpt><trkpt lat="45.904376" lon="11.063178"><ele>334.0</ele><time>2026-04-30T16:22:10.892Z</time></trkpt><trkpt lat="45.9044702" lon="11.0631976"><ele>334.0</ele><time>2026-04-30T16:22:11.892Z</time></trkpt><trkpt lat="45.9045406" lon="11.0632078"><ele>334.0</ele><time>2026-04-30T16:22:12.892Z</time></trkpt><trkpt lat="45.9046033" lon="11.0631967"><ele>334.0</ele><time>2026-04-30T16:22:13.892Z</time></trkpt><trkpt lat="45.9046623" lon="11.0631113"><ele>334.0</ele><time>2026-04-30T16:22:15.892Z</time></trkpt><trkpt lat="45.9046531" lon="11.062997"><ele>334.0</ele><time>2026-04-30T16:22:17.892Z</time></trkpt><trkpt lat="45.9045872" lon="11.0629351"><ele>334.0</ele><time>2026-04-30T16:22:19.893Z</time></trkpt><trkpt lat="45.9045019" lon="11.0628984"><ele>334.0</ele><time>2026-04-30T16:22:21.892Z</time></trkpt><trkpt lat="45.904382" lon="11.062891"><ele>334.0</ele><time>2026-04-30T16:22:23.893Z</time></trkpt><trkpt lat="45.9043072" lon="11.0628896"><ele>334.0</ele><time>2026-04-30T16:22:24.892Z</time></trkpt><trkpt lat="45.9042354" lon="11.0628756"><ele>334.0</ele><time>2026-04-30T16:22:25.892Z</time></trkpt><trkpt lat="45.904117" lon="11.0628649"><ele>334.0</ele><time>2026-04-30T16:22:27.892Z</time></trkpt><trkpt lat="45.9040538" lon="11.0628639"><ele>334.0</ele><time>2026-04-30T16:22:28.892Z</time></trkpt><trkpt lat="45.9039797" lon="11.0628633"><ele>334.0</ele><time>2026-04-30T16:22:29.892Z</time></trkpt><trkpt lat="45.9039029" lon="11.0628617"><ele>334.0</ele><time>2026-04-30T16:22:30.892Z</time></trkpt><trkpt lat="45.9038182" lon="11.0628637"><ele>334.0</ele><time>2026-04-30T16:22:31.892Z</time></trkpt><trkpt lat="45.9037519" lon="11.0628778"><ele>334.0</ele><time>2026-04-30T16:22:32.893Z</time></trkpt><trkpt lat="45.9036883" lon="11.0628952"><ele>334.0</ele><time>2026-04-30T16:22:33.892Z</time></trkpt><trkpt lat="45.9036061" lon="11.0629041"><ele>334.0</ele><time>2026-04-30T16:22:35.893Z</time></trkpt><trkpt lat="45.9035628" lon="11.0630335"><ele>334.0</ele><time>2026-04-30T16:22:38.892Z</time></trkpt><trkpt lat="45.9035316" lon="11.0631317"><ele>334.0</ele><time>2026-04-30T16:22:40.893Z</time></trkpt><trkpt lat="45.9036108" lon="11.0630781"><ele>334.0</ele><time>2026-04-30T16:22:44.892Z</time></trkpt><trkpt lat="45.9036531" lon="11.0631717"><ele>331.79999999999995</ele><time>2026-04-30T16:22:47.892Z</time></trkpt><trkpt lat="45.9036573" lon="11.0633084"><ele>329.59999999999997</ele><time>2026-04-30T16:22:49.892Z</time></trkpt><trkpt lat="45.9037293" lon="11.0633455"><ele>327.4</ele><time>2026-04-30T16:22:52.892Z</time></trkpt><trkpt lat="45.9038083" lon="11.0633111"><ele>325.2</ele><time>2026-04-30T16:22:54.893Z</time></trkpt><trkpt lat="45.903905" lon="11.0633183"><ele>323.0</ele><time>2026-04-30T16:22:56.892Z</time></trkpt><trkpt lat="45.9039413" lon="11.0634765"><ele>323.0</ele><time>2026-04-30T16:22:58.892Z</time></trkpt><trkpt lat="45.9040381" lon="11.0635975"><ele>323.0</ele><time>2026-04-30T16:23:00.893Z</time></trkpt><trkpt lat="45.9041249" lon="11.0635095"><ele>323.0</ele><time>2026-04-30T16:23:02.893Z</time></trkpt><trkpt lat="45.9042213" lon="11.0634454"><ele>323.0</ele><time>2026-04-30T16:23:04.892Z</time></trkpt><trkpt lat="45.9042827" lon="11.0634673"><ele>323.0</ele><time>2026-04-30T16:23:05.892Z</time></trkpt><trkpt lat="45.9043773" lon="11.0635074"><ele>320.2</ele><time>2026-04-30T16:23:07.892Z</time></trkpt><trkpt lat="45.9045068" lon="11.0635526"><ele>317.4</ele><time>2026-04-30T16:23:09.893Z</time></trkpt><trkpt lat="45.9045933" lon="11.0635694"><ele>314.59999999999997</ele><time>2026-04-30T16:23:10.892Z</time></trkpt><trkpt lat="45.9046861" lon="11.0635725"><ele>311.79999999999995</ele><time>2026-04-30T16:23:11.892Z</time></trkpt><trkpt lat="45.9047553" lon="11.0635563"><ele>309.0</ele><time>2026-04-30T16:23:12.892Z</time></trkpt><trkpt lat="45.9048994" lon="11.0635616"><ele>309.0</ele><time>2026-04-30T16:23:14.892Z</time></trkpt><trkpt lat="45.9049732" lon="11.0635384"><ele>309.0</ele><time>2026-04-30T16:23:15.892Z</time></trkpt><trkpt lat="45.9050357" lon="11.0635049"><ele>309.0</ele><time>2026-04-30T16:23:16.892Z</time></trkpt><trkpt lat="45.9051178" lon="11.0634256"><ele>309.0</ele><time>2026-04-30T16:23:17.893Z</time></trkpt><trkpt lat="45.9052058" lon="11.0632958"><ele>309.0</ele><time>2026-04-30T16:23:19.893Z</time></trkpt><trkpt lat="45.9052435" lon="11.0631332"><ele>307.4</ele><time>2026-04-30T16:23:21.893Z</time></trkpt><trkpt lat="45.9052583" lon="11.063031"><ele>305.79999999999995</ele><time>2026-04-30T16:23:22.893Z</time></trkpt><trkpt lat="45.9052617" lon="11.0628778"><ele>304.20000000000005</ele><time>2026-04-30T16:23:24.892Z</time></trkpt><trkpt lat="45.9052424" lon="11.0627466"><ele>302.6</ele><time>2026-04-30T16:23:26.892Z</time></trkpt><trkpt lat="45.9052551" lon="11.0626104"><ele>301.0</ele><time>2026-04-30T16:23:28.893Z</time></trkpt><trkpt lat="45.9053077" lon="11.0624978"><ele>303.25</ele><time>2026-04-30T16:23:29.893Z</time></trkpt><trkpt lat="45.9053733" lon="11.0623502"><ele>305.5</ele><time>2026-04-30T16:23:30.893Z</time></trkpt><trkpt lat="45.9054418" lon="11.0622061"><ele>307.75</ele><time>2026-04-30T16:23:31.892Z</time></trkpt><trkpt lat="45.9055217" lon="11.0620682"><ele>310.0</ele><time>2026-04-30T16:23:32.892Z</time></trkpt><trkpt lat="45.9055734" lon="11.0619432"><ele>310.0</ele><time>2026-04-30T16:23:33.893Z</time></trkpt><trkpt lat="45.9056071" lon="11.0618324"><ele>310.0</ele><time>2026-04-30T16:23:34.892Z</time></trkpt><trkpt lat="45.9056215" lon="11.0617104"><ele>310.0</ele><time>2026-04-30T16:23:35.892Z</time></trkpt><trkpt lat="45.9056046" lon="11.061602"><ele>310.0</ele><time>2026-04-30T16:23:36.892Z</time></trkpt><trkpt lat="45.9055677" lon="11.061474"><ele>310.0</ele><time>2026-04-30T16:23:37.892Z</time></trkpt><trkpt lat="45.9055195" lon="11.0613915"><ele>310.0</ele><time>2026-04-30T16:23:38.893Z</time></trkpt><trkpt lat="45.9054497" lon="11.0613511"><ele>310.0</ele><time>2026-04-30T16:23:39.892Z</time></trkpt><trkpt lat="45.9053751" lon="11.0613503"><ele>310.0</ele><time>2026-04-30T16:23:40.892Z</time></trkpt><trkpt lat="45.9052905" lon="11.0613849"><ele>310.0</ele><time>2026-04-30T16:23:41.892Z</time></trkpt><trkpt lat="45.9052103" lon="11.0614141"><ele>310.0</ele><time>2026-04-30T16:23:42.892Z</time></trkpt><trkpt lat="45.9051148" lon="11.0614567"><ele>310.0</ele><time>2026-04-30T16:23:44.892Z</time></trkpt><trkpt lat="45.9051013" lon="11.061577"><ele>310.0</ele><time>2026-04-30T16:23:46.892Z</time></trkpt><trkpt lat="45.9050983" lon="11.061672"><ele>313.16666666666663</ele><time>2026-04-30T16:23:47.892Z</time></trkpt><trkpt lat="45.9050509" lon="11.061784"><ele>316.3333333333333</ele><time>2026-04-30T16:23:49.892Z</time></trkpt><trkpt lat="45.9049948" lon="11.0618478"><ele>319.5</ele><time>2026-04-30T16:23:50.893Z</time></trkpt><trkpt lat="45.9049351" lon="11.0618838"><ele>322.6666666666667</ele><time>2026-04-30T16:23:51.892Z</time></trkpt><trkpt lat="45.904868" lon="11.0619112"><ele>325.83333333333337</ele><time>2026-04-30T16:23:52.892Z</time></trkpt><trkpt lat="45.9047802" lon="11.0619956"><ele>329.0</ele><time>2026-04-30T16:23:54.893Z</time></trkpt><trkpt lat="45.9047082" lon="11.0619999"><ele>329.0</ele><time>2026-04-30T16:23:55.893Z</time></trkpt><trkpt lat="45.9046293" lon="11.0619985"><ele>329.0</ele><time>2026-04-30T16:23:56.893Z</time></trkpt><trkpt lat="45.9045638" lon="11.0620298"><ele>329.0</ele><time>2026-04-30T16:23:57.893Z</time></trkpt><trkpt lat="45.9045022" lon="11.0620685"><ele>329.0</ele><time>2026-04-30T16:23:58.892Z</time></trkpt><trkpt lat="45.9044231" lon="11.0622"><ele>329.0</ele><time>2026-04-30T16:24:00.893Z</time></trkpt><trkpt lat="45.9044807" lon="11.0623397"><ele>329.0</ele><time>2026-04-30T16:24:02.893Z</time></trkpt><trkpt lat="45.904556" lon="11.0623498"><ele>329.0</ele><time>2026-04-30T16:24:03.892Z</time></trkpt><trkpt lat="45.9046357" lon="11.0623004"><ele>329.0</ele><time>2026-04-30T16:24:04.892Z</time></trkpt><trkpt lat="45.9047086" lon="11.062254"><ele>329.0</ele><time>2026-04-30T16:24:05.893Z</time></trkpt><trkpt lat="45.9047957" lon="11.0621986"><ele>329.0</ele><time>2026-04-30T16:24:06.893Z</time></trkpt><trkpt lat="45.9048795" lon="11.0621291"><ele>329.0</ele><time>2026-04-30T16:24:07.893Z</time></trkpt><trkpt lat="45.9049506" lon="11.0620928"><ele>329.0</ele><time>2026-04-30T16:24:08.893Z</time></trkpt><trkpt lat="45.9050238" lon="11.0620828"><ele>329.0</ele><time>2026-04-30T16:24:09.893Z</time></trkpt><trkpt lat="45.9050837" lon="11.0621159"><ele>329.0</ele><time>2026-04-30T16:24:10.892Z</time></trkpt><trkpt lat="45.9051248" lon="11.0622621"><ele>329.0</ele><time>2026-04-30T16:24:12.892Z</time></trkpt><trkpt lat="45.9050882" lon="11.0623706"><ele>329.0</ele><time>2026-04-30T16:24:13.892Z</time></trkpt><trkpt lat="45.905023" lon="11.0624305"><ele>329.0</ele><time>2026-04-30T16:24:14.893Z</time></trkpt><trkpt lat="45.9049411" lon="11.0624523"><ele>329.0</ele><time>2026-04-30T16:24:15.893Z</time></trkpt><trkpt lat="45.9048418" lon="11.0624904"><ele>327.2</ele><time>2026-04-30T16:24:16.893Z</time></trkpt><trkpt lat="45.9047347" lon="11.0625234"><ele>325.4</ele><time>2026-04-30T16:24:17.893Z</time></trkpt><trkpt lat="45.9046417" lon="11.0625415"><ele>323.6</ele><time>2026-04-30T16:24:18.892Z</time></trkpt><trkpt lat="45.9045625" lon="11.0625257"><ele>321.8</ele><time>2026-04-30T16:24:19.891Z</time></trkpt><trkpt lat="45.9044779" lon="11.0625004"><ele>320.0</ele><time>2026-04-30T16:24:20.892Z</time></trkpt><trkpt lat="45.9043901" lon="11.0624806"><ele>320.0</ele><time>2026-04-30T16:24:21.892Z</time></trkpt><trkpt lat="45.9042881" lon="11.0624867"><ele>320.0</ele><time>2026-04-30T16:24:22.893Z</time></trkpt><trkpt lat="45.9041691" lon="11.0624913"><ele>320.0</ele><time>2026-04-30T16:24:23.893Z</time></trkpt><trkpt lat="45.9040705" lon="11.0625021"><ele>320.0</ele><time>2026-04-30T16:24:24.892Z</time></trkpt><trkpt lat="45.9039935" lon="11.0625189"><ele>320.0</ele><time>2026-04-30T16:24:25.892Z</time></trkpt><trkpt lat="45.9039209" lon="11.0626412"><ele>322.33333333333337</ele><time>2026-04-30T16:24:27.892Z</time></trkpt><trkpt lat="45.9038755" lon="11.0627169"><ele>324.6666666666667</ele><time>2026-04-30T16:24:28.893Z</time></trkpt><trkpt lat="45.9038013" lon="11.0627644"><ele>327.0</ele><time>2026-04-30T16:24:29.892Z</time></trkpt><trkpt lat="45.9037367" lon="11.062755"><ele>329.3333333333333</ele><time>2026-04-30T16:24:30.893Z</time></trkpt><trkpt lat="45.9036715" lon="11.062746"><ele>331.66666666666663</ele><time>2026-04-30T16:24:31.892Z</time></trkpt><trkpt lat="45.9035713" lon="11.0627763"><ele>334.0</ele><time>2026-04-30T16:24:33.893Z</time></trkpt><trkpt lat="45.903511" lon="11.0628438"><ele>334.0</ele><time>2026-04-30T16:24:35.892Z</time></trkpt><trkpt lat="45.903452" lon="11.0628976"><ele>334.0</ele><time>2026-04-30T16:24:40.892Z</time></trkpt><trkpt lat="45.9035216" lon="11.0628249"><ele>334.0</ele><time>2026-04-30T16:24:47.893Z</time></trkpt><trkpt lat="45.9035939" lon="11.0627916"><ele>334.0</ele><time>2026-04-30T16:24:50.891Z</time></trkpt><trkpt lat="45.9035812" lon="11.0629285"><ele>334.0</ele><time>2026-04-30T16:24:53.892Z</time></trkpt><trkpt lat="45.9035604" lon="11.0630245"><ele>334.0</ele><time>2026-04-30T16:24:54.891Z</time></trkpt><trkpt lat="45.9035273" lon="11.0631286"><ele>334.0</ele><time>2026-04-30T16:24:56.892Z</time></trkpt><trkpt lat="45.9035971" lon="11.0630819"><ele>334.0</ele><time>2026-04-30T16:24:59.891Z</time></trkpt><trkpt lat="45.9036724" lon="11.0631111"><ele>334.0</ele><time>2026-04-30T16:25:02.891Z</time></trkpt><trkpt lat="45.903792" lon="11.0630673"><ele>334.0</ele><time>2026-04-30T16:25:04.892Z</time></trkpt><trkpt lat="45.9038884" lon="11.0630702"><ele>334.0</ele><time>2026-04-30T16:25:05.891Z</time></trkpt><trkpt lat="45.9039672" lon="11.0630848"><ele>334.0</ele><time>2026-04-30T16:25:06.891Z</time></trkpt><trkpt lat="45.9040331" lon="11.0630957"><ele>334.0</ele><time>2026-04-30T16:25:07.891Z</time></trkpt><trkpt lat="45.9041096" lon="11.0631141"><ele>334.0</ele><time>2026-04-30T16:25:08.891Z</time></trkpt><trkpt lat="45.9042024" lon="11.0631345"><ele>334.0</ele><time>2026-04-30T16:25:09.891Z</time></trkpt><trkpt lat="45.9042694" lon="11.0631485"><ele>334.0</ele><time>2026-04-30T16:25:10.891Z</time></trkpt><trkpt lat="45.9043383" lon="11.0631725"><ele>334.0</ele><time>2026-04-30T16:25:11.891Z</time></trkpt><trkpt lat="45.9044088" lon="11.0631846"><ele>334.0</ele><time>2026-04-30T16:25:12.891Z</time></trkpt><trkpt lat="45.904512" lon="11.0632042"><ele>331.2</ele><time>2026-04-30T16:25:13.892Z</time></trkpt><trkpt lat="45.9045749" lon="11.0632087"><ele>328.4</ele><time>2026-04-30T16:25:14.891Z</time></trkpt><trkpt lat="45.9046457" lon="11.0631571"><ele>325.6</ele><time>2026-04-30T16:25:16.892Z</time></trkpt><trkpt lat="45.9046537" lon="11.0630255"><ele>322.8</ele><time>2026-04-30T16:25:18.891Z</time></trkpt><trkpt lat="45.9045705" lon="11.0629424"><ele>320.0</ele><time>2026-04-30T16:25:20.891Z</time></trkpt><trkpt lat="45.9044491" lon="11.062898"><ele>320.0</ele><time>2026-04-30T16:25:22.891Z</time></trkpt><trkpt lat="45.90436" lon="11.0628878"><ele>320.0</ele><time>2026-04-30T16:25:23.891Z</time></trkpt><trkpt lat="45.9042694" lon="11.0628805"><ele>320.0</ele><time>2026-04-30T16:25:24.892Z</time></trkpt><trkpt lat="45.9041785" lon="11.0628665"><ele>320.0</ele><time>2026-04-30T16:25:25.892Z</time></trkpt><trkpt lat="45.9040885" lon="11.0628602"><ele>320.0</ele><time>2026-04-30T16:25:26.892Z</time></trkpt><trkpt lat="45.9039975" lon="11.0628598"><ele>322.33333333333337</ele><time>2026-04-30T16:25:27.892Z</time></trkpt><trkpt lat="45.9038955" lon="11.062857"><ele>324.6666666666667</ele><time>2026-04-30T16:25:28.891Z</time></trkpt><trkpt lat="45.9037983" lon="11.0628633"><ele>327.0</ele><time>2026-04-30T16:25:29.891Z</time></trkpt><trkpt lat="45.9037285" lon="11.0628844"><ele>329.3333333333333</ele><time>2026-04-30T16:25:30.891Z</time></trkpt><trkpt lat="45.9036344" lon="11.0628929"><ele>331.66666666666663</ele><time>2026-04-30T16:25:32.891Z</time></trkpt><trkpt lat="45.9036066" lon="11.0628054"><ele>334.0</ele><time>2026-04-30T16:25:35.892Z</time></trkpt><trkpt lat="45.9036964" lon="11.0627593"><ele>334.0</ele><time>2026-04-30T16:25:37.891Z</time></trkpt><trkpt lat="45.903794" lon="11.062767"><ele>334.0</ele><time>2026-04-30T16:25:38.891Z</time></trkpt><trkpt lat="45.903864" lon="11.0627298"><ele>334.0</ele><time>2026-04-30T16:25:39.891Z</time></trkpt><trkpt lat="45.9039216" lon="11.0626415"><ele>334.0</ele><time>2026-04-30T16:25:40.891Z</time></trkpt><trkpt lat="45.9039551" lon="11.0625429"><ele>334.0</ele><time>2026-04-30T16:25:41.891Z</time></trkpt><trkpt lat="45.9040415" lon="11.0625131"><ele>334.0</ele><time>2026-04-30T16:25:43.89Z</time></trkpt><trkpt lat="45.9041827" lon="11.0625845"><ele>331.66666666666663</ele><time>2026-04-30T16:25:45.891Z</time></trkpt><trkpt lat="45.9042721" lon="11.0626012"><ele>329.3333333333333</ele><time>2026-04-30T16:25:46.891Z</time></trkpt><trkpt lat="45.9043518" lon="11.0625697"><ele>327.0</ele><time>2026-04-30T16:25:47.891Z</time></trkpt><trkpt lat="45.9044706" lon="11.0625309"><ele>324.6666666666667</ele><time>2026-04-30T16:25:49.891Z</time></trkpt><trkpt lat="45.9045359" lon="11.0625351"><ele>322.33333333333337</ele><time>2026-04-30T16:25:50.891Z</time></trkpt><trkpt lat="45.9046133" lon="11.0625383"><ele>320.0</ele><time>2026-04-30T16:25:51.891Z</time></trkpt><trkpt lat="45.904724" lon="11.0625249"><ele>320.0</ele><time>2026-04-30T16:25:52.891Z</time></trkpt><trkpt lat="45.9048478" lon="11.0624832"><ele>320.0</ele><time>2026-04-30T16:25:53.891Z</time></trkpt><trkpt lat="45.9049639" lon="11.0624407"><ele>320.0</ele><time>2026-04-30T16:25:54.891Z</time></trkpt><trkpt lat="45.905052" lon="11.0624131"><ele>320.0</ele><time>2026-04-30T16:25:55.892Z</time></trkpt><trkpt lat="45.9051003" lon="11.0623304"><ele>320.0</ele><time>2026-04-30T16:25:56.891Z</time></trkpt><trkpt lat="45.9051252" lon="11.0622293"><ele>321.8</ele><time>2026-04-30T16:25:57.891Z</time></trkpt><trkpt lat="45.9050495" lon="11.0621001"><ele>323.6</ele><time>2026-04-30T16:25:59.891Z</time></trkpt><trkpt lat="45.9049653" lon="11.0620962"><ele>325.4</ele><time>2026-04-30T16:26:00.891Z</time></trkpt><trkpt lat="45.9048789" lon="11.0621428"><ele>327.2</ele><time>2026-04-30T16:26:01.891Z</time></trkpt><trkpt lat="45.9047752" lon="11.062221"><ele>329.0</ele><time>2026-04-30T16:26:02.892Z</time></trkpt><trkpt lat="45.9046958" lon="11.0622742"><ele>329.0</ele><time>2026-04-30T16:26:03.891Z</time></trkpt><trkpt lat="45.9046013" lon="11.0623322"><ele>329.0</ele><time>2026-04-30T16:26:04.891Z</time></trkpt><trkpt lat="45.9045295" lon="11.0623599"><ele>329.0</ele><time>2026-04-30T16:26:05.891Z</time></trkpt><trkpt lat="45.9044247" lon="11.0622609"><ele>329.0</ele><time>2026-04-30T16:26:07.891Z</time></trkpt><trkpt lat="45.9044759" lon="11.0621176"><ele>329.0</ele><time>2026-04-30T16:26:09.892Z</time></trkpt><trkpt lat="45.904551" lon="11.0620583"><ele>329.0</ele><time>2026-04-30T16:26:10.891Z</time></trkpt><trkpt lat="45.9046617" lon="11.0620011"><ele>329.0</ele><time>2026-04-30T16:26:11.891Z</time></trkpt><trkpt lat="45.904744" lon="11.0619584"><ele>329.0</ele><time>2026-04-30T16:26:12.892Z</time></trkpt><trkpt lat="45.9048141" lon="11.0618818"><ele>329.0</ele><time>2026-04-30T16:26:13.891Z</time></trkpt><trkpt lat="45.9048688" lon="11.0617972"><ele>329.0</ele><time>2026-04-30T16:26:14.891Z</time></trkpt><trkpt lat="45.9049065" lon="11.0616759"><ele>328.5</ele><time>2026-04-30T16:26:16.892Z</time></trkpt><trkpt lat="45.9049743" lon="11.0615929"><ele>328.0</ele><time>2026-04-30T16:26:18.891Z</time></trkpt><trkpt lat="45.9050624" lon="11.0614949"><ele>327.5</ele><time>2026-04-30T16:26:20.891Z</time></trkpt><trkpt lat="45.9051565" lon="11.0614378"><ele>327.0</ele><time>2026-04-30T16:26:22.892Z</time></trkpt><trkpt lat="45.9052218" lon="11.0614147"><ele>326.5</ele><time>2026-04-30T16:26:23.891Z</time></trkpt><trkpt lat="45.905294" lon="11.0613864"><ele>326.0</ele><time>2026-04-30T16:26:24.891Z</time></trkpt><trkpt lat="45.9053654" lon="11.0613553"><ele>323.6666666666667</ele><time>2026-04-30T16:26:25.892Z</time></trkpt><trkpt lat="45.9054373" lon="11.061353"><ele>321.33333333333337</ele><time>2026-04-30T16:26:26.891Z</time></trkpt><trkpt lat="45.9055459" lon="11.0614431"><ele>319.0</ele><time>2026-04-30T16:26:28.891Z</time></trkpt><trkpt lat="45.9055924" lon="11.0615488"><ele>316.6666666666667</ele><time>2026-04-30T16:26:29.891Z</time></trkpt><trkpt lat="45.9056167" lon="11.0616621"><ele>314.3333333333333</ele><time>2026-04-30T16:26:30.891Z</time></trkpt><trkpt lat="45.9056209" lon="11.0617544"><ele>312.0</ele><time>2026-04-30T16:26:31.891Z</time></trkpt><trkpt lat="45.9056037" lon="11.0618489"><ele>311.6</ele><time>2026-04-30T16:26:32.892Z</time></trkpt><trkpt lat="45.9055628" lon="11.0619653"><ele>311.2</ele><time>2026-04-30T16:26:33.891Z</time></trkpt><trkpt lat="45.9055054" lon="11.0620945"><ele>310.8</ele><time>2026-04-30T16:26:34.891Z</time></trkpt><trkpt lat="45.9054376" lon="11.0622063"><ele>310.4</ele><time>2026-04-30T16:26:35.892Z</time></trkpt><trkpt lat="45.9053734" lon="11.0623382"><ele>310.0</ele><time>2026-04-30T16:26:36.892Z</time></trkpt><trkpt lat="45.9053251" lon="11.0624447"><ele>308.5</ele><time>2026-04-30T16:26:37.891Z</time></trkpt><trkpt lat="45.9052795" lon="11.062552"><ele>307.0</ele><time>2026-04-30T16:26:38.891Z</time></trkpt><trkpt lat="45.9052471" lon="11.0626565"><ele>305.5</ele><time>2026-04-30T16:26:40.892Z</time></trkpt><trkpt lat="45.9052509" lon="11.0627515"><ele>304.0</ele><time>2026-04-30T16:26:42.891Z</time></trkpt><trkpt lat="45.9052662" lon="11.0628602"><ele>302.5</ele><time>2026-04-30T16:26:44.892Z</time></trkpt><trkpt lat="45.9052507" lon="11.06304"><ele>301.0</ele><time>2026-04-30T16:26:46.891Z</time></trkpt><trkpt lat="45.9052337" lon="11.0631665"><ele>301.0</ele><time>2026-04-30T16:26:47.892Z</time></trkpt><trkpt lat="45.9052135" lon="11.0632676"><ele>301.0</ele><time>2026-04-30T16:26:48.891Z</time></trkpt><trkpt lat="45.9051201" lon="11.0634132"><ele>301.0</ele><time>2026-04-30T16:26:50.891Z</time></trkpt><trkpt lat="45.905047" lon="11.0634698"><ele>301.0</ele><time>2026-04-30T16:26:51.89Z</time></trkpt><trkpt lat="45.9049597" lon="11.0635154"><ele>301.0</ele><time>2026-04-30T16:26:52.891Z</time></trkpt><trkpt lat="45.9048696" lon="11.0635398"><ele>302.3333333333333</ele><time>2026-04-30T16:26:53.891Z</time></trkpt><trkpt lat="45.9047958" lon="11.0635374"><ele>303.66666666666663</ele><time>2026-04-30T16:26:54.892Z</time></trkpt><trkpt lat="45.9047215" lon="11.0635522"><ele>305.0</ele><time>2026-04-30T16:26:55.892Z</time></trkpt><trkpt lat="45.9046244" lon="11.0635665"><ele>306.3333333333333</ele><time>2026-04-30T16:26:56.891Z</time></trkpt><trkpt lat="45.9045313" lon="11.063551"><ele>307.6666666666667</ele><time>2026-04-30T16:26:57.891Z</time></trkpt><trkpt lat="45.9044475" lon="11.0635229"><ele>309.0</ele><time>2026-04-30T16:26:58.891Z</time></trkpt><trkpt lat="45.9043789" lon="11.0634896"><ele>309.0</ele><time>2026-04-30T16:26:59.892Z</time></trkpt><trkpt lat="45.9043107" lon="11.0634497"><ele>309.0</ele><time>2026-04-30T16:27:00.892Z</time></trkpt><trkpt lat="45.9042375" lon="11.063422"><ele>309.0</ele><time>2026-04-30T16:27:01.891Z</time></trkpt><trkpt lat="45.9041589" lon="11.0634855"><ele>309.0</ele><time>2026-04-30T16:27:03.892Z</time></trkpt><trkpt lat="45.9040801" lon="11.0635908"><ele>309.0</ele><time>2026-04-30T16:27:05.891Z</time></trkpt><trkpt lat="45.9039694" lon="11.0635175"><ele>311.79999999999995</ele><time>2026-04-30T16:27:07.892Z</time></trkpt><trkpt lat="45.9039383" lon="11.0633637"><ele>314.59999999999997</ele><time>2026-04-30T16:27:09.892Z</time></trkpt><trkpt lat="45.903848" lon="11.0632959"><ele>317.4</ele><time>2026-04-30T16:27:11.892Z</time></trkpt><trkpt lat="45.9037585" lon="11.0633478"><ele>320.2</ele><time>2026-04-30T16:27:13.891Z</time></trkpt><trkpt lat="45.9036813" lon="11.0633515"><ele>323.0</ele><time>2026-04-30T16:27:15.892Z</time></trkpt><trkpt lat="45.9036477" lon="11.0632486"><ele>324.83333333333337</ele><time>2026-04-30T16:27:17.891Z</time></trkpt><trkpt lat="45.9036641" lon="11.063133"><ele>326.6666666666667</ele><time>2026-04-30T16:27:19.89Z</time></trkpt><trkpt lat="45.9037451" lon="11.0630813"><ele>328.5</ele><time>2026-04-30T16:27:21.891Z</time></trkpt><trkpt lat="45.9038528" lon="11.0630775"><ele>330.3333333333333</ele><time>2026-04-30T16:27:22.891Z</time></trkpt><trkpt lat="45.9039391" lon="11.0630828"><ele>332.16666666666663</ele><time>2026-04-30T16:27:23.892Z</time></trkpt><trkpt lat="45.9040099" lon="11.0630974"><ele>334.0</ele><time>2026-04-30T16:27:24.891Z</time></trkpt><trkpt lat="45.9040831" lon="11.0631091"><ele>334.0</ele><time>2026-04-30T16:27:25.891Z</time></trkpt><trkpt lat="45.9041717" lon="11.0631294"><ele>334.0</ele><time>2026-04-30T16:27:26.891Z</time></trkpt><trkpt lat="45.904245" lon="11.0631427"><ele>334.0</ele><time>2026-04-30T16:27:27.89Z</time></trkpt><trkpt lat="45.9043116" lon="11.0631684"><ele>334.0</ele><time>2026-04-30T16:27:28.891Z</time></trkpt><trkpt lat="45.9043856" lon="11.0631835"><ele>334.0</ele><time>2026-04-30T16:27:29.891Z</time></trkpt><trkpt lat="45.9044741" lon="11.0632006"><ele>334.0</ele><time>2026-04-30T16:27:30.891Z</time></trkpt><trkpt lat="45.9045442" lon="11.0632112"><ele>331.66666666666663</ele><time>2026-04-30T16:27:31.891Z</time></trkpt><trkpt lat="45.9046345" lon="11.0631814"><ele>329.3333333333333</ele><time>2026-04-30T16:27:33.891Z</time></trkpt><trkpt lat="45.9046626" lon="11.0630693"><ele>327.0</ele><time>2026-04-30T16:27:35.892Z</time></trkpt><trkpt lat="45.9046144" lon="11.0629594"><ele>324.6666666666667</ele><time>2026-04-30T16:27:37.891Z</time></trkpt><trkpt lat="45.9045461" lon="11.0629332"><ele>322.33333333333337</ele><time>2026-04-30T16:27:39.891Z</time></trkpt><trkpt lat="45.9044616" lon="11.0628929"><ele>320.0</ele><time>2026-04-30T16:27:41.891Z</time></trkpt><trkpt lat="45.9043929" lon="11.0628764"><ele>320.0</ele><time>2026-04-30T16:27:42.892Z</time></trkpt><trkpt lat="45.9043275" lon="11.0628741"><ele>320.0</ele><time>2026-04-30T16:27:43.891Z</time></trkpt><trkpt lat="45.9042565" lon="11.0628703"><ele>320.0</ele><time>2026-04-30T16:27:44.892Z</time></trkpt><trkpt lat="45.904186" lon="11.0628598"><ele>320.0</ele><time>2026-04-30T16:27:45.891Z</time></trkpt><trkpt lat="45.9041167" lon="11.0628534"><ele>320.0</ele><time>2026-04-30T16:27:46.891Z</time></trkpt><trkpt lat="45.9040494" lon="11.0628467"><ele>320.0</ele><time>2026-04-30T16:27:47.892Z</time></trkpt><trkpt lat="45.9039678" lon="11.0628483"><ele>320.0</ele><time>2026-04-30T16:27:48.891Z</time></trkpt><trkpt lat="45.9038753" lon="11.0628462"><ele>322.33333333333337</ele><time>2026-04-30T16:27:49.891Z</time></trkpt><trkpt lat="45.9037876" lon="11.0628583"><ele>324.6666666666667</ele><time>2026-04-30T16:27:50.892Z</time></trkpt><trkpt lat="45.903722" lon="11.0628731"><ele>327.0</ele><time>2026-04-30T16:27:51.891Z</time></trkpt><trkpt lat="45.9036293" lon="11.0628794"><ele>329.3333333333333</ele><time>2026-04-30T16:27:53.892Z</time></trkpt><trkpt lat="45.9035572" lon="11.0629672"><ele>331.66666666666663</ele><time>2026-04-30T16:27:56.892Z</time></trkpt><trkpt lat="45.9035421" lon="11.0630613"><ele>334.0</ele><time>2026-04-30T16:27:57.892Z</time></trkpt><trkpt lat="45.9036237" lon="11.0630806"><ele>334.0</ele><time>2026-04-30T16:28:03.891Z</time></trkpt><trkpt lat="45.9036468" lon="11.0631784"><ele>334.0</ele><time>2026-04-30T16:28:05.891Z</time></trkpt><trkpt lat="45.9036535" lon="11.0633147"><ele>334.0</ele><time>2026-04-30T16:28:07.892Z</time></trkpt><trkpt lat="45.9037194" lon="11.0633588"><ele>334.0</ele><time>2026-04-30T16:28:10.891Z</time></trkpt><trkpt lat="45.9038062" lon="11.0633081"><ele>334.0</ele><time>2026-04-30T16:28:12.891Z</time></trkpt><trkpt lat="45.9039086" lon="11.0633264"><ele>334.0</ele><time>2026-04-30T16:28:14.892Z</time></trkpt><trkpt lat="45.9039497" lon="11.0634906"><ele>331.79999999999995</ele><time>2026-04-30T16:28:16.891Z</time></trkpt><trkpt lat="45.9040092" lon="11.0635575"><ele>329.59999999999997</ele><time>2026-04-30T16:28:17.892Z</time></trkpt><trkpt lat="45.9040659" lon="11.0636013"><ele>327.4</ele><time>2026-04-30T16:28:18.892Z</time></trkpt><trkpt lat="45.9041398" lon="11.0634957"><ele>325.2</ele><time>2026-04-30T16:28:20.891Z</time></trkpt><trkpt lat="45.9042353" lon="11.0634357"><ele>323.0</ele><time>2026-04-30T16:28:22.891Z</time></trkpt><trkpt lat="45.9043315" lon="11.0634866"><ele>320.2</ele><time>2026-04-30T16:28:24.891Z</time></trkpt><trkpt lat="45.9044543" lon="11.0635348"><ele>317.4</ele><time>2026-04-30T16:28:26.891Z</time></trkpt><trkpt lat="45.9045361" lon="11.0635616"><ele>314.59999999999997</ele><time>2026-04-30T16:28:27.891Z</time></trkpt><trkpt lat="45.9046247" lon="11.063563"><ele>311.79999999999995</ele><time>2026-04-30T16:28:28.891Z</time></trkpt><trkpt lat="45.9047138" lon="11.0635458"><ele>309.0</ele><time>2026-04-30T16:28:29.892Z</time></trkpt><trkpt lat="45.9048415" lon="11.0635379"><ele>309.0</ele><time>2026-04-30T16:28:31.891Z</time></trkpt><trkpt lat="45.9049179" lon="11.0635514"><ele>309.0</ele><time>2026-04-30T16:28:32.891Z</time></trkpt><trkpt lat="45.9049903" lon="11.0635307"><ele>309.0</ele><time>2026-04-30T16:28:33.891Z</time></trkpt><trkpt lat="45.9050722" lon="11.0634594"><ele>309.0</ele><time>2026-04-30T16:28:34.892Z</time></trkpt><trkpt lat="45.9051382" lon="11.0634079"><ele>309.0</ele><time>2026-04-30T16:28:35.891Z</time></trkpt><trkpt lat="45.9051857" lon="11.0633341"><ele>309.0</ele><time>2026-04-30T16:28:36.892Z</time></trkpt><trkpt lat="45.9052272" lon="11.0632514"><ele>307.4</ele><time>2026-04-30T16:28:37.891Z</time></trkpt><trkpt lat="45.9052517" lon="11.0631501"><ele>305.79999999999995</ele><time>2026-04-30T16:28:38.891Z</time></trkpt><trkpt lat="45.9052658" lon="11.063037"><ele>304.20000000000005</ele><time>2026-04-30T16:28:39.891Z</time></trkpt><trkpt lat="45.9052674" lon="11.0628894"><ele>302.6</ele><time>2026-04-30T16:28:41.891Z</time></trkpt><trkpt lat="45.9052461" lon="11.0627394"><ele>301.0</ele><time>2026-04-30T16:28:43.891Z</time></trkpt><trkpt lat="45.9052727" lon="11.0625819"><ele>301.0</ele><time>2026-04-30T16:28:45.892Z</time></trkpt><trkpt lat="45.9053253" lon="11.0624576"><ele>301.0</ele><time>2026-04-30T16:28:46.891Z</time></trkpt><trkpt lat="45.9053907" lon="11.0623134"><ele>301.0</ele><time>2026-04-30T16:28:47.892Z</time></trkpt><trkpt lat="45.905463" lon="11.0621779"><ele>301.0</ele><time>2026-04-30T16:28:48.891Z</time></trkpt><trkpt lat="45.9055442" lon="11.062034"><ele>302.8</ele><time>2026-04-30T16:28:49.891Z</time></trkpt><trkpt lat="45.9055957" lon="11.0619017"><ele>304.6</ele><time>2026-04-30T16:28:50.892Z</time></trkpt><trkpt lat="45.9056265" lon="11.0617901"><ele>306.4</ele><time>2026-04-30T16:28:51.891Z</time></trkpt><trkpt lat="45.9056223" lon="11.0616723"><ele>308.2</ele><time>2026-04-30T16:28:52.891Z</time></trkpt><trkpt lat="45.9055889" lon="11.0615316"><ele>310.0</ele><time>2026-04-30T16:28:53.892Z</time></trkpt><trkpt lat="45.9055378" lon="11.0614174"><ele>310.3333333333333</ele><time>2026-04-30T16:28:54.891Z</time></trkpt><trkpt lat="45.9054732" lon="11.0613645"><ele>310.66666666666663</ele><time>2026-04-30T16:28:55.891Z</time></trkpt><trkpt lat="45.9053901" lon="11.06133"><ele>311.0</ele><time>2026-04-30T16:28:56.891Z</time></trkpt><trkpt lat="45.905303" lon="11.0613864"><ele>311.3333333333333</ele><time>2026-04-30T16:28:57.892Z</time></trkpt><trkpt lat="45.9052255" lon="11.0614138"><ele>311.6666666666667</ele><time>2026-04-30T16:28:58.891Z</time></trkpt><trkpt lat="45.9051556" lon="11.0614352"><ele>312.0</ele><time>2026-04-30T16:28:59.892Z</time></trkpt><trkpt lat="45.9050937" lon="11.0615092"><ele>311.6</ele><time>2026-04-30T16:29:01.892Z</time></trkpt><trkpt lat="45.9050968" lon="11.0616716"><ele>311.2</ele><time>2026-04-30T16:29:03.891Z</time></trkpt><trkpt lat="45.9050435" lon="11.0617903"><ele>310.8</ele><time>2026-04-30T16:29:05.891Z</time></trkpt><trkpt lat="45.904981" lon="11.061859"><ele>310.4</ele><time>2026-04-30T16:29:06.892Z</time></trkpt><trkpt lat="45.9048567" lon="11.0619189"><ele>310.0</ele><time>2026-04-30T16:29:08.891Z</time></trkpt><trkpt lat="45.9047719" lon="11.0619956"><ele>313.16666666666663</ele><time>2026-04-30T16:29:10.892Z</time></trkpt><trkpt lat="45.9047054" lon="11.0620026"><ele>316.3333333333333</ele><time>2026-04-30T16:29:11.891Z</time></trkpt><trkpt lat="45.904623" lon="11.0619996"><ele>319.5</ele><time>2026-04-30T16:29:12.892Z</time></trkpt><trkpt lat="45.9045441" lon="11.0620396"><ele>322.6666666666667</ele><time>2026-04-30T16:29:13.892Z</time></trkpt><trkpt lat="45.9044757" lon="11.0621017"><ele>325.83333333333337</ele><time>2026-04-30T16:29:14.891Z</time></trkpt><trkpt lat="45.90443" lon="11.0621649"><ele>329.0</ele><time>2026-04-30T16:29:15.891Z</time></trkpt><trkpt lat="45.9044516" lon="11.0623256"><ele>329.0</ele><time>2026-04-30T16:29:17.891Z</time></trkpt><trkpt lat="45.9045207" lon="11.0623529"><ele>329.0</ele><time>2026-04-30T16:29:18.891Z</time></trkpt><trkpt lat="45.9045964" lon="11.0623279"><ele>329.0</ele><time>2026-04-30T16:29:19.892Z</time></trkpt><trkpt lat="45.9046749" lon="11.0622644"><ele>329.0</ele><time>2026-04-30T16:29:20.891Z</time></trkpt><trkpt lat="45.9047712" lon="11.0622102"><ele>329.0</ele><time>2026-04-30T16:29:21.892Z</time></trkpt><trkpt lat="45.9048616" lon="11.0621382"><ele>329.0</ele><time>2026-04-30T16:29:22.892Z</time></trkpt><trkpt lat="45.904935" lon="11.0620939"><ele>329.0</ele><time>2026-04-30T16:29:23.892Z</time></trkpt><trkpt lat="45.9050084" lon="11.062087"><ele>329.0</ele><time>2026-04-30T16:29:24.89Z</time></trkpt><trkpt lat="45.9050723" lon="11.0621223"><ele>329.0</ele><time>2026-04-30T16:29:25.891Z</time></trkpt><trkpt lat="45.9051068" lon="11.0622683"><ele>329.0</ele><time>2026-04-30T16:29:27.892Z</time></trkpt><trkpt lat="45.9050726" lon="11.0623754"><ele>329.0</ele><time>2026-04-30T16:29:28.891Z</time></trkpt><trkpt lat="45.9050086" lon="11.0624258"><ele>329.0</ele><time>2026-04-30T16:29:29.891Z</time></trkpt><trkpt lat="45.9049216" lon="11.0624544"><ele>327.2</ele><time>2026-04-30T16:29:30.892Z</time></trkpt><trkpt lat="45.9048226" lon="11.0624915"><ele>325.4</ele><time>2026-04-30T16:29:31.891Z</time></trkpt><trkpt lat="45.9047217" lon="11.0625224"><ele>323.6</ele><time>2026-04-30T16:29:32.89Z</time></trkpt><trkpt lat="45.9046303" lon="11.06254"><ele>321.8</ele><time>2026-04-30T16:29:33.892Z</time></trkpt><trkpt lat="45.9045482" lon="11.0625243"><ele>320.0</ele><time>2026-04-30T16:29:34.892Z</time></trkpt><trkpt lat="45.9044571" lon="11.062499"><ele>320.0</ele><time>2026-04-30T16:29:35.89Z</time></trkpt><trkpt lat="45.9043836" lon="11.0624773"><ele>320.0</ele><time>2026-04-30T16:29:36.892Z</time></trkpt><trkpt lat="45.9042821" lon="11.0624793"><ele>320.0</ele><time>2026-04-30T16:29:37.892Z</time></trkpt><trkpt lat="45.9041738" lon="11.0624916"><ele>320.0</ele><time>2026-04-30T16:29:38.892Z</time></trkpt><trkpt lat="45.9040787" lon="11.062494"><ele>320.0</ele><time>2026-04-30T16:29:39.892Z</time></trkpt><trkpt lat="45.904004" lon="11.0625106"><ele>322.33333333333337</ele><time>2026-04-30T16:29:40.891Z</time></trkpt><trkpt lat="45.9039147" lon="11.0626371"><ele>324.6666666666667</ele><time>2026-04-30T16:29:42.892Z</time></trkpt><trkpt lat="45.9038642" lon="11.0626936"><ele>327.0</ele><time>2026-04-30T16:29:43.891Z</time></trkpt><trkpt lat="45.9037998" lon="11.062724"><ele>329.3333333333333</ele><time>2026-04-30T16:29:44.891Z</time></trkpt><trkpt lat="45.9037132" lon="11.0627146"><ele>331.66666666666663</ele><time>2026-04-30T16:29:46.891Z</time></trkpt><trkpt lat="45.9037671" lon="11.0625896"><ele>334.0</ele><time>2026-04-30T16:29:49.891Z</time></trkpt><trkpt lat="45.9038235" lon="11.0625373"><ele>334.0</ele><time>2026-04-30T16:29:50.891Z</time></trkpt><trkpt lat="45.9038879" lon="11.0624647"><ele>334.0</ele><time>2026-04-30T16:29:53.892Z</time></trkpt><trkpt lat="45.904025" lon="11.0623536"><ele>334.0</ele><time>2026-04-30T16:29:55.891Z</time></trkpt><trkpt lat="45.9041314" lon="11.0622826"><ele>334.0</ele><time>2026-04-30T16:29:56.892Z</time></trkpt><trkpt lat="45.9042114" lon="11.0622244"><ele>334.0</ele><time>2026-04-30T16:29:57.892Z</time></trkpt><trkpt lat="45.9043142" lon="11.0621478"><ele>333.0</ele><time>2026-04-30T16:29:58.892Z</time></trkpt><trkpt lat="45.9044192" lon="11.0620932"><ele>332.0</ele><time>2026-04-30T16:29:59.891Z</time></trkpt><trkpt lat="45.9045307" lon="11.0620476"><ele>331.0</ele><time>2026-04-30T16:30:00.892Z</time></trkpt><trkpt lat="45.9046106" lon="11.0620113"><ele>330.0</ele><time>2026-04-30T16:30:01.892Z</time></trkpt><trkpt lat="45.9046889" lon="11.0620045"><ele>329.0</ele><time>2026-04-30T16:30:02.891Z</time></trkpt><trkpt lat="45.9047638" lon="11.0620041"><ele>329.0</ele><time>2026-04-30T16:30:03.891Z</time></trkpt><trkpt lat="45.9048527" lon="11.061924"><ele>329.0</ele><time>2026-04-30T16:30:05.891Z</time></trkpt><trkpt lat="45.9049665" lon="11.0618699"><ele>329.0</ele><time>2026-04-30T16:30:07.891Z</time></trkpt><trkpt lat="45.9050219" lon="11.0618255"><ele>329.0</ele><time>2026-04-30T16:30:08.891Z</time></trkpt><trkpt lat="45.9050695" lon="11.0617565"><ele>329.0</ele><time>2026-04-30T16:30:09.891Z</time></trkpt><trkpt lat="45.9050953" lon="11.0616239"><ele>326.1666666666667</ele><time>2026-04-30T16:30:11.891Z</time></trkpt><trkpt lat="45.9050937" lon="11.0614901"><ele>323.33333333333337</ele><time>2026-04-30T16:30:13.891Z</time></trkpt><trkpt lat="45.9051467" lon="11.0614399"><ele>320.5</ele><time>2026-04-30T16:30:15.892Z</time></trkpt><trkpt lat="45.9052718" lon="11.0613911"><ele>317.6666666666667</ele><time>2026-04-30T16:30:17.891Z</time></trkpt><trkpt lat="45.9053432" lon="11.0613598"><ele>314.8333333333333</ele><time>2026-04-30T16:30:18.891Z</time></trkpt><trkpt lat="45.9054122" lon="11.0613476"><ele>312.0</ele><time>2026-04-30T16:30:19.891Z</time></trkpt><trkpt lat="45.9054772" lon="11.061362"><ele>312.0</ele><time>2026-04-30T16:30:20.89Z</time></trkpt><trkpt lat="45.9055338" lon="11.0614167"><ele>312.0</ele><time>2026-04-30T16:30:21.891Z</time></trkpt><trkpt lat="45.9055764" lon="11.0615042"><ele>312.0</ele><time>2026-04-30T16:30:22.891Z</time></trkpt><trkpt lat="45.9056051" lon="11.0616075"><ele>312.0</ele><time>2026-04-30T16:30:23.891Z</time></trkpt><trkpt lat="45.9056222" lon="11.061707"><ele>312.0</ele><time>2026-04-30T16:30:24.891Z</time></trkpt><trkpt lat="45.9056145" lon="11.0617996"><ele>312.0</ele><time>2026-04-30T16:30:25.891Z</time></trkpt><trkpt lat="45.9055851" lon="11.0619047"><ele>312.0</ele><time>2026-04-30T16:30:26.891Z</time></trkpt><trkpt lat="45.9055335" lon="11.0620329"><ele>311.6</ele><time>2026-04-30T16:30:27.891Z</time></trkpt><trkpt lat="45.9054739" lon="11.0621413"><ele>311.2</ele><time>2026-04-30T16:30:28.89Z</time></trkpt><trkpt lat="45.9054045" lon="11.0622648"><ele>310.8</ele><time>2026-04-30T16:30:29.891Z</time></trkpt><trkpt lat="45.9053476" lon="11.0623833"><ele>310.4</ele><time>2026-04-30T16:30:30.891Z</time></trkpt><trkpt lat="45.9052962" lon="11.0625027"><ele>310.0</ele><time>2026-04-30T16:30:31.891Z</time></trkpt><trkpt lat="45.9052671" lon="11.0625894"><ele>308.5</ele><time>2026-04-30T16:30:32.891Z</time></trkpt><trkpt lat="45.9052405" lon="11.0626816"><ele>307.0</ele><time>2026-04-30T16:30:34.892Z</time></trkpt><trkpt lat="45.9052589" lon="11.0628035"><ele>305.5</ele><time>2026-04-30T16:30:37.891Z</time></trkpt><trkpt lat="45.9052851" lon="11.0628955"><ele>304.0</ele><time>2026-04-30T16:30:41.891Z</time></trkpt><trkpt lat="45.9053528" lon="11.0628244"><ele>302.5</ele><time>2026-04-30T16:30:44.89Z</time></trkpt><trkpt lat="45.9054232" lon="11.0628624"><ele>301.0</ele><time>2026-04-30T16:30:46.891Z</time></trkpt><trkpt lat="45.9054905" lon="11.0629499"><ele>301.0</ele><time>2026-04-30T16:30:48.892Z</time></trkpt><trkpt lat="45.9055069" lon="11.0630598"><ele>301.0</ele><time>2026-04-30T16:30:51.892Z</time></trkpt><trkpt lat="45.9054156" lon="11.0631978"><ele>301.0</ele><time>2026-04-30T16:30:53.891Z</time></trkpt><trkpt lat="45.9053656" lon="11.0632757"><ele>301.0</ele><time>2026-04-30T16:30:54.891Z</time></trkpt><trkpt lat="45.9053221" lon="11.0633667"><ele>301.0</ele><time>2026-04-30T16:30:56.891Z</time></trkpt><trkpt lat="45.9052481" lon="11.0634951"><ele>299.40000000000003</ele><time>2026-04-30T16:30:58.891Z</time></trkpt><trkpt lat="45.9051831" lon="11.0635694"><ele>297.8</ele><time>2026-04-30T16:30:59.891Z</time></trkpt><trkpt lat="45.9051049" lon="11.063639"><ele>296.20000000000005</ele><time>2026-04-30T16:31:00.891Z</time></trkpt><trkpt lat="45.9050214" lon="11.0637138"><ele>294.6</ele><time>2026-04-30T16:31:01.891Z</time></trkpt><trkpt lat="45.9049284" lon="11.0637621"><ele>293.0</ele><time>2026-04-30T16:31:02.892Z</time></trkpt><trkpt lat="45.9048234" lon="11.063777"><ele>297.0</ele><time>2026-04-30T16:31:03.892Z</time></trkpt><trkpt lat="45.9047095" lon="11.0637664"><ele>301.0</ele><time>2026-04-30T16:31:04.891Z</time></trkpt><trkpt lat="45.9045919" lon="11.0637634"><ele>305.0</ele><time>2026-04-30T16:31:05.891Z</time></trkpt><trkpt lat="45.9044728" lon="11.0637872"><ele>309.0</ele><time>2026-04-30T16:31:06.892Z</time></trkpt><trkpt lat="45.9043528" lon="11.0638192"><ele>312.5</ele><time>2026-04-30T16:31:07.891Z</time></trkpt><trkpt lat="45.90423" lon="11.0638397"><ele>316.0</ele><time>2026-04-30T16:31:08.891Z</time></trkpt><trkpt lat="45.9041045" lon="11.0638656"><ele>319.5</ele><time>2026-04-30T16:31:09.891Z</time></trkpt><trkpt lat="45.9039818" lon="11.0639074"><ele>323.0</ele><time>2026-04-30T16:31:10.892Z</time></trkpt><trkpt lat="45.9038586" lon="11.0639579"><ele>323.0</ele><time>2026-04-30T16:31:11.891Z</time></trkpt><trkpt lat="45.9037457" lon="11.0639862"><ele>323.0</ele><time>2026-04-30T16:31:12.891Z</time></trkpt><trkpt lat="45.9036525" lon="11.0639917"><ele>323.0</ele><time>2026-04-30T16:31:13.891Z</time></trkpt><trkpt lat="45.9035642" lon="11.063971"><ele>323.0</ele><time>2026-04-30T16:31:14.892Z</time></trkpt><trkpt lat="45.9034755" lon="11.0639261"><ele>323.0</ele><time>2026-04-30T16:31:15.891Z</time></trkpt><trkpt lat="45.9033907" lon="11.0638832"><ele>323.79999999999995</ele><time>2026-04-30T16:31:16.891Z</time></trkpt><trkpt lat="45.9033116" lon="11.0638807"><ele>324.6</ele><time>2026-04-30T16:31:17.891Z</time></trkpt><trkpt lat="45.9032272" lon="11.0639184"><ele>325.4</ele><time>2026-04-30T16:31:18.892Z</time></trkpt><trkpt lat="45.9031522" lon="11.0639988"><ele>326.20000000000005</ele><time>2026-04-30T16:31:19.892Z</time></trkpt><trkpt lat="45.9030725" lon="11.0640827"><ele>327.0</ele><time>2026-04-30T16:31:20.892Z</time></trkpt><trkpt lat="45.902973" lon="11.0641439"><ele>327.0</ele><time>2026-04-30T16:31:21.892Z</time></trkpt><trkpt lat="45.9028656" lon="11.0641993"><ele>327.0</ele><time>2026-04-30T16:31:22.892Z</time></trkpt><trkpt lat="45.9027555" lon="11.0642488"><ele>327.0</ele><time>2026-04-30T16:31:23.892Z</time></trkpt><trkpt lat="45.9026426" lon="11.0642557"><ele>327.0</ele><time>2026-04-30T16:31:24.892Z</time></trkpt><trkpt lat="45.90253" lon="11.0642371"><ele>331.0</ele><time>2026-04-30T16:31:25.891Z</time></trkpt><trkpt lat="45.902433" lon="11.0642421"><ele>335.0</ele><time>2026-04-30T16:31:26.891Z</time></trkpt><trkpt lat="45.9023376" lon="11.0643024"><ele>339.0</ele><time>2026-04-30T16:31:27.89Z</time></trkpt><trkpt lat="45.9022512" lon="11.0644069"><ele>343.0</ele><time>2026-04-30T16:31:28.891Z</time></trkpt><trkpt lat="45.9021647" lon="11.0645414"><ele>347.0</ele><time>2026-04-30T16:31:29.891Z</time></trkpt><trkpt lat="45.9020469" lon="11.064677"><ele>347.0</ele><time>2026-04-30T16:31:30.891Z</time></trkpt><trkpt lat="45.901904" lon="11.0648334"><ele>347.0</ele><time>2026-04-30T16:31:31.89Z</time></trkpt><trkpt lat="45.9017549" lon="11.0649974"><ele>347.0</ele><time>2026-04-30T16:31:32.892Z</time></trkpt><trkpt lat="45.9016246" lon="11.0651163"><ele>349.6666666666667</ele><time>2026-04-30T16:31:33.891Z</time></trkpt><trkpt lat="45.9014733" lon="11.0652086"><ele>352.3333333333333</ele><time>2026-04-30T16:31:34.892Z</time></trkpt><trkpt lat="45.9013133" lon="11.0652665"><ele>355.0</ele><time>2026-04-30T16:31:35.891Z</time></trkpt><trkpt lat="45.9011344" lon="11.0652848"><ele>355.0</ele><time>2026-04-30T16:31:36.891Z</time></trkpt><trkpt lat="45.9009334" lon="11.0652845"><ele>355.0</ele><time>2026-04-30T16:31:37.891Z</time></trkpt><trkpt lat="45.9007429" lon="11.0652767"><ele>355.0</ele><time>2026-04-30T16:31:38.891Z</time></trkpt><trkpt lat="45.9005666" lon="11.0652725"><ele>361.0</ele><time>2026-04-30T16:31:39.891Z</time></trkpt><trkpt lat="45.9003895" lon="11.0652741"><ele>367.0</ele><time>2026-04-30T16:31:40.892Z</time></trkpt><trkpt lat="45.9002188" lon="11.0652733"><ele>373.0</ele><time>2026-04-30T16:31:41.891Z</time></trkpt><trkpt lat="45.9000501" lon="11.0652889"><ele>376.0</ele><time>2026-04-30T16:31:42.891Z</time></trkpt><trkpt lat="45.8998847" lon="11.0653275"><ele>379.0</ele><time>2026-04-30T16:31:43.891Z</time></trkpt><trkpt lat="45.8997221" lon="11.0653844"><ele>382.0</ele><time>2026-04-30T16:31:44.892Z</time></trkpt><trkpt lat="45.8995585" lon="11.0654421"><ele>382.0</ele><time>2026-04-30T16:31:45.892Z</time></trkpt><trkpt lat="45.8993964" lon="11.0655041"><ele>382.0</ele><time>2026-04-30T16:31:46.892Z</time></trkpt><trkpt lat="45.899254" lon="11.0655819"><ele>382.0</ele><time>2026-04-30T16:31:47.892Z</time></trkpt><trkpt lat="45.8991392" lon="11.0656671"><ele>382.0</ele><time>2026-04-30T16:31:48.891Z</time></trkpt><trkpt lat="45.8990515" lon="11.0657661"><ele>383.0</ele><time>2026-04-30T16:31:49.891Z</time></trkpt><trkpt lat="45.899003" lon="11.0658802"><ele>384.0</ele><time>2026-04-30T16:31:50.892Z</time></trkpt><trkpt lat="45.8989857" lon="11.0660069"><ele>385.0</ele><time>2026-04-30T16:31:51.891Z</time></trkpt><trkpt lat="45.8990061" lon="11.0661331"><ele>386.0</ele><time>2026-04-30T16:31:52.892Z</time></trkpt><trkpt lat="45.8990612" lon="11.0662541"><ele>387.0</ele><time>2026-04-30T16:31:53.892Z</time></trkpt><trkpt lat="45.8991332" lon="11.0663709"><ele>387.0</ele><time>2026-04-30T16:31:54.891Z</time></trkpt><trkpt lat="45.8992155" lon="11.0664966"><ele>387.0</ele><time>2026-04-30T16:31:55.892Z</time></trkpt><trkpt lat="45.8992939" lon="11.0666269"><ele>387.0</ele><time>2026-04-30T16:31:56.891Z</time></trkpt><trkpt lat="45.8993611" lon="11.0667174"><ele>387.0</ele><time>2026-04-30T16:31:57.891Z</time></trkpt><trkpt lat="45.8993728" lon="11.0668666"><ele>387.0</ele><time>2026-04-30T16:31:59.892Z</time></trkpt><trkpt lat="45.8992614" lon="11.066885"><ele>389.5</ele><time>2026-04-30T16:32:01.891Z</time></trkpt><trkpt lat="45.8991643" lon="11.0668468"><ele>392.0</ele><time>2026-04-30T16:32:02.892Z</time></trkpt><trkpt lat="45.8990538" lon="11.0668145"><ele>394.5</ele><time>2026-04-30T16:32:03.892Z</time></trkpt><trkpt lat="45.8989377" lon="11.0667852"><ele>397.0</ele><time>2026-04-30T16:32:04.891Z</time></trkpt><trkpt lat="45.8988082" lon="11.0667553"><ele>397.0</ele><time>2026-04-30T16:32:05.891Z</time></trkpt><trkpt lat="45.8986764" lon="11.0667275"><ele>397.0</ele><time>2026-04-30T16:32:06.892Z</time></trkpt><trkpt lat="45.8985417" lon="11.0667144"><ele>397.0</ele><time>2026-04-30T16:32:07.891Z</time></trkpt><trkpt lat="45.898405" lon="11.0667257"><ele>397.0</ele><time>2026-04-30T16:32:08.892Z</time></trkpt><trkpt lat="45.8982724" lon="11.0667742"><ele>399.25</ele><time>2026-04-30T16:32:09.892Z</time></trkpt><trkpt lat="45.8981467" lon="11.066836"><ele>401.5</ele><time>2026-04-30T16:32:10.891Z</time></trkpt><trkpt lat="45.8980389" lon="11.0668679"><ele>403.75</ele><time>2026-04-30T16:32:11.892Z</time></trkpt><trkpt lat="45.8979324" lon="11.066846"><ele>406.0</ele><time>2026-04-30T16:32:12.892Z</time></trkpt><trkpt lat="45.8978209" lon="11.0668256"><ele>406.0</ele><time>2026-04-30T16:32:13.892Z</time></trkpt><trkpt lat="45.8977065" lon="11.0668466"><ele>406.0</ele><time>2026-04-30T16:32:14.891Z</time></trkpt><trkpt lat="45.8975884" lon="11.0668569"><ele>406.0</ele><time>2026-04-30T16:32:15.891Z</time></trkpt><trkpt lat="45.8974679" lon="11.0668643"><ele>406.0</ele><time>2026-04-30T16:32:16.891Z</time></trkpt><trkpt lat="45.8973473" lon="11.0668821"><ele>410.0</ele><time>2026-04-30T16:32:17.891Z</time></trkpt><trkpt lat="45.897225" lon="11.0669121"><ele>414.0</ele><time>2026-04-30T16:32:18.891Z</time></trkpt><trkpt lat="45.897103" lon="11.0669495"><ele>418.0</ele><time>2026-04-30T16:32:19.892Z</time></trkpt><trkpt lat="45.8969783" lon="11.0669789"><ele>422.0</ele><time>2026-04-30T16:32:20.891Z</time></trkpt><trkpt lat="45.896851" lon="11.0670024"><ele>425.5</ele><time>2026-04-30T16:32:21.892Z</time></trkpt><trkpt lat="45.8967213" lon="11.067021"><ele>429.0</ele><time>2026-04-30T16:32:22.892Z</time></trkpt><trkpt lat="45.8965911" lon="11.0670309"><ele>432.5</ele><time>2026-04-30T16:32:23.89Z</time></trkpt><trkpt lat="45.8964806" lon="11.0670321"><ele>436.0</ele><time>2026-04-30T16:32:24.891Z</time></trkpt><trkpt lat="45.8963809" lon="11.0670258"><ele>436.0</ele><time>2026-04-30T16:32:25.891Z</time></trkpt><trkpt lat="45.8962773" lon="11.0670328"><ele>436.0</ele><time>2026-04-30T16:32:26.891Z</time></trkpt><trkpt lat="45.8961747" lon="11.0670645"><ele>436.0</ele><time>2026-04-30T16:32:27.891Z</time></trkpt><trkpt lat="45.8960718" lon="11.0671047"><ele>436.0</ele><time>2026-04-30T16:32:28.891Z</time></trkpt><trkpt lat="45.8959783" lon="11.067144"><ele>436.0</ele><time>2026-04-30T16:32:29.892Z</time></trkpt><trkpt lat="45.8958978" lon="11.0671717"><ele>437.00000000000006</ele><time>2026-04-30T16:32:30.892Z</time></trkpt><trkpt lat="45.8958286" lon="11.067189"><ele>438.0</ele><time>2026-04-30T16:32:31.891Z</time></trkpt><trkpt lat="45.8957464" lon="11.0672168"><ele>439.0</ele><time>2026-04-30T16:32:43.891Z</time></trkpt><trkpt lat="45.8956393" lon="11.0672598"><ele>440.0</ele><time>2026-04-30T16:32:45.891Z</time></trkpt><trkpt lat="45.895571" lon="11.0672827"><ele>441.00000000000006</ele><time>2026-04-30T16:32:46.893Z</time></trkpt><trkpt lat="45.8954983" lon="11.0673115"><ele>442.0</ele><time>2026-04-30T16:32:47.892Z</time></trkpt><trkpt lat="45.8954188" lon="11.0673356"><ele>442.00000000000006</ele><time>2026-04-30T16:32:48.892Z</time></trkpt><trkpt lat="45.8953335" lon="11.0673517"><ele>442.0</ele><time>2026-04-30T16:32:49.892Z</time></trkpt><trkpt lat="45.8952466" lon="11.0673648"><ele>442.0</ele><time>2026-04-30T16:32:50.892Z</time></trkpt><trkpt lat="45.8951556" lon="11.0673647"><ele>442.0</ele><time>2026-04-30T16:32:51.892Z</time></trkpt><trkpt lat="45.8950659" lon="11.0673454"><ele>442.00000000000006</ele><time>2026-04-30T16:32:52.892Z</time></trkpt><trkpt lat="45.8949734" lon="11.0673219"><ele>442.0</ele><time>2026-04-30T16:32:53.891Z</time></trkpt><trkpt lat="45.8948776" lon="11.0672971"><ele>442.6</ele><time>2026-04-30T16:32:54.891Z</time></trkpt><trkpt lat="45.8947853" lon="11.0672639"><ele>443.20000000000005</ele><time>2026-04-30T16:32:55.892Z</time></trkpt><trkpt lat="45.8946876" lon="11.0672249"><ele>443.8</ele><time>2026-04-30T16:32:56.892Z</time></trkpt><trkpt lat="45.8945869" lon="11.0671792"><ele>444.4</ele><time>2026-04-30T16:32:57.892Z</time></trkpt><trkpt lat="45.894486" lon="11.067125"><ele>445.0</ele><time>2026-04-30T16:32:58.892Z</time></trkpt><trkpt lat="45.8943782" lon="11.0670753"><ele>445.0</ele><time>2026-04-30T16:32:59.891Z</time></trkpt><trkpt lat="45.8942596" lon="11.0670403"><ele>445.0</ele><time>2026-04-30T16:33:00.891Z</time></trkpt><trkpt lat="45.8941344" lon="11.0670127"><ele>445.0</ele><time>2026-04-30T16:33:01.891Z</time></trkpt><trkpt lat="45.8940058" lon="11.0669796"><ele>445.0</ele><time>2026-04-30T16:33:02.891Z</time></trkpt><trkpt lat="45.8938756" lon="11.0669346"><ele>445.0</ele><time>2026-04-30T16:33:03.892Z</time></trkpt><trkpt lat="45.8937431" lon="11.0668863"><ele>445.0</ele><time>2026-04-30T16:33:04.891Z</time></trkpt><trkpt lat="45.8936105" lon="11.0668358"><ele>445.0</ele><time>2026-04-30T16:33:05.891Z</time></trkpt><trkpt lat="45.8934769" lon="11.0667863"><ele>445.0</ele><time>2026-04-30T16:33:06.891Z</time></trkpt><trkpt lat="45.8933451" lon="11.0667326"><ele>446.25</ele><time>2026-04-30T16:33:07.891Z</time></trkpt><trkpt lat="45.8932125" lon="11.0666815"><ele>447.5</ele><time>2026-04-30T16:33:08.892Z</time></trkpt><trkpt lat="45.8930797" lon="11.0666361"><ele>448.75</ele><time>2026-04-30T16:33:09.892Z</time></trkpt><trkpt lat="45.8929487" lon="11.0666013"><ele>450.0</ele><time>2026-04-30T16:33:10.891Z</time></trkpt><trkpt lat="45.8928204" lon="11.0665722"><ele>450.2</ele><time>2026-04-30T16:33:11.891Z</time></trkpt><trkpt lat="45.8927104" lon="11.0665508"><ele>450.4</ele><time>2026-04-30T16:33:12.892Z</time></trkpt><trkpt lat="45.8926309" lon="11.0665339"><ele>450.6</ele><time>2026-04-30T16:33:13.891Z</time></trkpt><trkpt lat="45.8925538" lon="11.0665128"><ele>450.8</ele><time>2026-04-30T16:33:15.891Z</time></trkpt><trkpt lat="45.8924895" lon="11.0665421"><ele>451.0</ele><time>2026-04-30T16:33:17.891Z</time></trkpt><trkpt lat="45.8923732" lon="11.0665638"><ele>452.6</ele><time>2026-04-30T16:33:19.892Z</time></trkpt><trkpt lat="45.8922872" lon="11.0665718"><ele>454.20000000000005</ele><time>2026-04-30T16:33:21.891Z</time></trkpt><trkpt lat="45.8921888" lon="11.0665728"><ele>455.79999999999995</ele><time>2026-04-30T16:33:23.892Z</time></trkpt><trkpt lat="45.8920873" lon="11.0666151"><ele>457.4</ele><time>2026-04-30T16:33:25.891Z</time></trkpt><trkpt lat="45.8920056" lon="11.0666556"><ele>459.0</ele><time>2026-04-30T16:33:27.891Z</time></trkpt><trkpt lat="45.8919243" lon="11.0666494"><ele>459.0</ele><time>2026-04-30T16:33:29.891Z</time></trkpt><trkpt lat="45.8918341" lon="11.0665841"><ele>459.0</ele><time>2026-04-30T16:33:31.891Z</time></trkpt><trkpt lat="45.8917255" lon="11.0664925"><ele>459.0</ele><time>2026-04-30T16:33:33.891Z</time></trkpt><trkpt lat="45.8916648" lon="11.0664428"><ele>459.0</ele><time>2026-04-30T16:33:34.892Z</time></trkpt><trkpt lat="45.8916079" lon="11.0663766"><ele>459.0</ele><time>2026-04-30T16:33:35.892Z</time></trkpt><trkpt lat="45.8915583" lon="11.0663025"><ele>459.0</ele><time>2026-04-30T16:33:36.891Z</time></trkpt><trkpt lat="45.8915093" lon="11.0662188"><ele>460.1666666666667</ele><time>2026-04-30T16:33:37.891Z</time></trkpt><trkpt lat="45.8914638" lon="11.066129"><ele>461.33333333333337</ele><time>2026-04-30T16:33:38.891Z</time></trkpt><trkpt lat="45.8914221" lon="11.0660368"><ele>462.5</ele><time>2026-04-30T16:33:39.891Z</time></trkpt><trkpt lat="45.8913903" lon="11.0659497"><ele>463.6666666666667</ele><time>2026-04-30T16:33:40.891Z</time></trkpt><trkpt lat="45.8913635" lon="11.0658626"><ele>464.83333333333337</ele><time>2026-04-30T16:33:41.891Z</time></trkpt><trkpt lat="45.891333" lon="11.0657017"><ele>466.0</ele><time>2026-04-30T16:33:43.891Z</time></trkpt><trkpt lat="45.8913144" lon="11.0655498"><ele>467.0</ele><time>2026-04-30T16:33:45.891Z</time></trkpt><trkpt lat="45.8912937" lon="11.0653979"><ele>468.0</ele><time>2026-04-30T16:33:47.892Z</time></trkpt><trkpt lat="45.8912258" lon="11.0652509"><ele>469.0</ele><time>2026-04-30T16:33:49.892Z</time></trkpt><trkpt lat="45.8911595" lon="11.0651965"><ele>470.0</ele><time>2026-04-30T16:33:50.892Z</time></trkpt><trkpt lat="45.8910765" lon="11.0651498"><ele>471.0</ele><time>2026-04-30T16:33:51.891Z</time></trkpt><trkpt lat="45.8909947" lon="11.0651107"><ele>469.4</ele><time>2026-04-30T16:33:52.891Z</time></trkpt><trkpt lat="45.8909037" lon="11.0650688"><ele>467.8</ele><time>2026-04-30T16:33:53.891Z</time></trkpt><trkpt lat="45.8908066" lon="11.0650301"><ele>466.19999999999993</ele><time>2026-04-30T16:33:54.891Z</time></trkpt><trkpt lat="45.8907034" lon="11.0650012"><ele>464.59999999999997</ele><time>2026-04-30T16:33:55.891Z</time></trkpt><trkpt lat="45.8905936" lon="11.064987"><ele>463.0</ele><time>2026-04-30T16:33:56.891Z</time></trkpt><trkpt lat="45.8904809" lon="11.0649863"><ele>463.0</ele><time>2026-04-30T16:33:57.891Z</time></trkpt><trkpt lat="45.890364" lon="11.06499"><ele>463.0</ele><time>2026-04-30T16:33:58.891Z</time></trkpt><trkpt lat="45.8902456" lon="11.0649777"><ele>463.0</ele><time>2026-04-30T16:33:59.891Z</time></trkpt><trkpt lat="45.8901262" lon="11.0649518"><ele>463.0</ele><time>2026-04-30T16:34:00.892Z</time></trkpt><trkpt lat="45.8900046" lon="11.0649198"><ele>460.0</ele><time>2026-04-30T16:34:01.892Z</time></trkpt><trkpt lat="45.8898801" lon="11.0649061"><ele>457.0</ele><time>2026-04-30T16:34:02.892Z</time></trkpt><trkpt lat="45.889756" lon="11.0649003"><ele>454.0</ele><time>2026-04-30T16:34:03.891Z</time></trkpt><trkpt lat="45.8896327" lon="11.0649038"><ele>451.0</ele><time>2026-04-30T16:34:04.891Z</time></trkpt><trkpt lat="45.8895158" lon="11.0649069"><ele>451.0</ele><time>2026-04-30T16:34:05.891Z</time></trkpt><trkpt lat="45.8894038" lon="11.0649102"><ele>451.0</ele><time>2026-04-30T16:34:06.892Z</time></trkpt><trkpt lat="45.8892962" lon="11.0649256"><ele>451.0</ele><time>2026-04-30T16:34:07.891Z</time></trkpt><trkpt lat="45.8891949" lon="11.0649733"><ele>451.0</ele><time>2026-04-30T16:34:08.892Z</time></trkpt><trkpt lat="45.8891021" lon="11.065061"><ele>451.0</ele><time>2026-04-30T16:34:09.891Z</time></trkpt><trkpt lat="45.8890183" lon="11.0651697"><ele>449.6</ele><time>2026-04-30T16:34:10.891Z</time></trkpt><trkpt lat="45.8889325" lon="11.0652806"><ele>448.20000000000005</ele><time>2026-04-30T16:34:11.892Z</time></trkpt><trkpt lat="45.8888442" lon="11.0653789"><ele>446.79999999999995</ele><time>2026-04-30T16:34:12.891Z</time></trkpt><trkpt lat="45.8887527" lon="11.0654611"><ele>445.4</ele><time>2026-04-30T16:34:13.891Z</time></trkpt><trkpt lat="45.8886556" lon="11.0655169"><ele>444.0</ele><time>2026-04-30T16:34:14.891Z</time></trkpt><trkpt lat="45.8885528" lon="11.0655399"><ele>444.0</ele><time>2026-04-30T16:34:15.891Z</time></trkpt><trkpt lat="45.8884493" lon="11.0655439"><ele>444.0</ele><time>2026-04-30T16:34:16.891Z</time></trkpt><trkpt lat="45.8883464" lon="11.0655496"><ele>444.0</ele><time>2026-04-30T16:34:17.891Z</time></trkpt><trkpt lat="45.888243" lon="11.0655693"><ele>444.0</ele><time>2026-04-30T16:34:18.892Z</time></trkpt><trkpt lat="45.8881429" lon="11.0655973"><ele>444.0</ele><time>2026-04-30T16:34:19.892Z</time></trkpt><trkpt lat="45.8880448" lon="11.0656484"><ele>445.5</ele><time>2026-04-30T16:34:20.891Z</time></trkpt><trkpt lat="45.8879457" lon="11.0657225"><ele>447.0</ele><time>2026-04-30T16:34:21.892Z</time></trkpt><trkpt lat="45.8878436" lon="11.0658049"><ele>448.5</ele><time>2026-04-30T16:34:22.892Z</time></trkpt><trkpt lat="45.8877424" lon="11.0658824"><ele>450.0</ele><time>2026-04-30T16:34:23.892Z</time></trkpt><trkpt lat="45.8876393" lon="11.0659626"><ele>444.0</ele><time>2026-04-30T16:34:24.892Z</time></trkpt><trkpt lat="45.8875356" lon="11.066039"><ele>438.0</ele><time>2026-04-30T16:34:25.891Z</time></trkpt><trkpt lat="45.8874312" lon="11.0661095"><ele>432.0</ele><time>2026-04-30T16:34:26.892Z</time></trkpt><trkpt lat="45.887326" lon="11.0661722"><ele>426.0</ele><time>2026-04-30T16:34:27.891Z</time></trkpt><trkpt lat="45.8872216" lon="11.0662349"><ele>426.0</ele><time>2026-04-30T16:34:28.892Z</time></trkpt><trkpt lat="45.8871189" lon="11.066294"><ele>426.0</ele><time>2026-04-30T16:34:29.891Z</time></trkpt><trkpt lat="45.8870161" lon="11.0663451"><ele>426.0</ele><time>2026-04-30T16:34:30.892Z</time></trkpt><trkpt lat="45.8869163" lon="11.0664014"><ele>426.0</ele><time>2026-04-30T16:34:31.891Z</time></trkpt><trkpt lat="45.8868228" lon="11.0664688"><ele>426.0</ele><time>2026-04-30T16:34:32.891Z</time></trkpt><trkpt lat="45.8867347" lon="11.0665528"><ele>427.0</ele><time>2026-04-30T16:34:33.891Z</time></trkpt><trkpt lat="45.8866567" lon="11.0666504"><ele>428.0</ele><time>2026-04-30T16:34:34.891Z</time></trkpt><trkpt lat="45.8865933" lon="11.066767"><ele>429.0</ele><time>2026-04-30T16:34:35.892Z</time></trkpt><trkpt lat="45.8865307" lon="11.0668848"><ele>430.0</ele><time>2026-04-30T16:34:36.891Z</time></trkpt><trkpt lat="45.8864632" lon="11.0669952"><ele>431.0</ele><time>2026-04-30T16:34:37.891Z</time></trkpt><trkpt lat="45.8863856" lon="11.0670913"><ele>431.0</ele><time>2026-04-30T16:34:38.892Z</time></trkpt><trkpt lat="45.8863103" lon="11.0671934"><ele>431.0</ele><time>2026-04-30T16:34:39.891Z</time></trkpt><trkpt lat="45.8862366" lon="11.0673008"><ele>431.0</ele><time>2026-04-30T16:34:40.891Z</time></trkpt><trkpt lat="45.8861631" lon="11.0674153"><ele>431.0</ele><time>2026-04-30T16:34:41.892Z</time></trkpt><trkpt lat="45.8860915" lon="11.0675332"><ele>431.0</ele><time>2026-04-30T16:34:42.892Z</time></trkpt><trkpt lat="45.8860182" lon="11.0676528"><ele>427.0</ele><time>2026-04-30T16:34:43.891Z</time></trkpt><trkpt lat="45.8859443" lon="11.0677744"><ele>423.0</ele><time>2026-04-30T16:34:44.892Z</time></trkpt><trkpt lat="45.8858711" lon="11.0678965"><ele>419.0</ele><time>2026-04-30T16:34:45.891Z</time></trkpt><trkpt lat="45.8857949" lon="11.0680214"><ele>415.0</ele><time>2026-04-30T16:34:46.892Z</time></trkpt><trkpt lat="45.8857177" lon="11.0681446"><ele>415.0</ele><time>2026-04-30T16:34:47.891Z</time></trkpt><trkpt lat="45.8856419" lon="11.0682701"><ele>415.0</ele><time>2026-04-30T16:34:48.891Z</time></trkpt><trkpt lat="45.885565" lon="11.0683966"><ele>415.0</ele><time>2026-04-30T16:34:49.891Z</time></trkpt><trkpt lat="45.8854859" lon="11.0685211"><ele>415.0</ele><time>2026-04-30T16:34:50.891Z</time></trkpt><trkpt lat="45.8854055" lon="11.0686449"><ele>417.0</ele><time>2026-04-30T16:34:51.892Z</time></trkpt><trkpt lat="45.8853211" lon="11.0687638"><ele>419.0</ele><time>2026-04-30T16:34:52.892Z</time></trkpt><trkpt lat="45.8852359" lon="11.0688822"><ele>421.0</ele><time>2026-04-30T16:34:53.891Z</time></trkpt><trkpt lat="45.8851496" lon="11.0689972"><ele>423.0</ele><time>2026-04-30T16:34:54.891Z</time></trkpt><trkpt lat="45.8850627" lon="11.0691122"><ele>423.0</ele><time>2026-04-30T16:34:55.891Z</time></trkpt><trkpt lat="45.8849761" lon="11.069224"><ele>423.0</ele><time>2026-04-30T16:34:56.891Z</time></trkpt><trkpt lat="45.8848903" lon="11.0693374"><ele>423.0</ele><time>2026-04-30T16:34:57.892Z</time></trkpt><trkpt lat="45.8848079" lon="11.0694572"><ele>423.0</ele><time>2026-04-30T16:34:58.891Z</time></trkpt><trkpt lat="45.8847325" lon="11.0695822"><ele>423.0</ele><time>2026-04-30T16:34:59.892Z</time></trkpt><trkpt lat="45.8846666" lon="11.0697124"><ele>423.0</ele><time>2026-04-30T16:35:00.892Z</time></trkpt><trkpt lat="45.884615" lon="11.0698433"><ele>423.0</ele><time>2026-04-30T16:35:01.891Z</time></trkpt><trkpt lat="45.8845727" lon="11.0699188"><ele>423.0</ele><time>2026-04-30T16:35:02.89Z</time></trkpt><trkpt lat="45.8845022" lon="11.0699978"><ele>423.0</ele><time>2026-04-30T16:35:04.891Z</time></trkpt><trkpt lat="45.8844093" lon="11.0700315"><ele>421.2</ele><time>2026-04-30T16:35:10.892Z</time></trkpt><trkpt lat="45.8843091" lon="11.0701543"><ele>419.4</ele><time>2026-04-30T16:35:12.892Z</time></trkpt><trkpt lat="45.8842694" lon="11.0702356"><ele>417.59999999999997</ele><time>2026-04-30T16:35:13.891Z</time></trkpt><trkpt lat="45.8842237" lon="11.070325"><ele>415.79999999999995</ele><time>2026-04-30T16:35:14.891Z</time></trkpt><trkpt lat="45.8841747" lon="11.0704212"><ele>414.0</ele><time>2026-04-30T16:35:15.891Z</time></trkpt><trkpt lat="45.8841215" lon="11.070526"><ele>414.0</ele><time>2026-04-30T16:35:16.891Z</time></trkpt><trkpt lat="45.8840625" lon="11.0706314"><ele>414.0</ele><time>2026-04-30T16:35:17.891Z</time></trkpt><trkpt lat="45.8840016" lon="11.0707266"><ele>414.0</ele><time>2026-04-30T16:35:18.891Z</time></trkpt><trkpt lat="45.8839325" lon="11.0708027"><ele>414.0</ele><time>2026-04-30T16:35:19.891Z</time></trkpt><trkpt lat="45.883856" lon="11.070861"><ele>414.0</ele><time>2026-04-30T16:35:20.891Z</time></trkpt><trkpt lat="45.8837727" lon="11.0708959"><ele>414.0</ele><time>2026-04-30T16:35:21.891Z</time></trkpt><trkpt lat="45.8836894" lon="11.0709123"><ele>415.0</ele><time>2026-04-30T16:35:22.892Z</time></trkpt><trkpt lat="45.8836038" lon="11.0709079"><ele>416.0</ele><time>2026-04-30T16:35:23.891Z</time></trkpt><trkpt lat="45.8835179" lon="11.0708782"><ele>417.0</ele><time>2026-04-30T16:35:24.891Z</time></trkpt><trkpt lat="45.8834322" lon="11.0708434"><ele>418.0</ele><time>2026-04-30T16:35:25.892Z</time></trkpt><trkpt lat="45.8833464" lon="11.0708048"><ele>419.0</ele><time>2026-04-30T16:35:26.891Z</time></trkpt><trkpt lat="45.883259" lon="11.070768"><ele>420.0</ele><time>2026-04-30T16:35:27.892Z</time></trkpt><trkpt lat="45.8831709" lon="11.0707263"><ele>420.0</ele><time>2026-04-30T16:35:28.891Z</time></trkpt><trkpt lat="45.8830812" lon="11.0706865"><ele>420.0</ele><time>2026-04-30T16:35:29.892Z</time></trkpt><trkpt lat="45.8829917" lon="11.0706452"><ele>420.0</ele><time>2026-04-30T16:35:30.892Z</time></trkpt><trkpt lat="45.8829014" lon="11.0706052"><ele>420.0</ele><time>2026-04-30T16:35:31.891Z</time></trkpt><trkpt lat="45.8828082" lon="11.0705648"><ele>420.0</ele><time>2026-04-30T16:35:32.892Z</time></trkpt><trkpt lat="45.8827043" lon="11.0705214"><ele>420.0</ele><time>2026-04-30T16:35:33.891Z</time></trkpt><trkpt lat="45.882603" lon="11.0704761"><ele>420.0</ele><time>2026-04-30T16:35:34.891Z</time></trkpt><trkpt lat="45.8824922" lon="11.0704288"><ele>420.0</ele><time>2026-04-30T16:35:35.891Z</time></trkpt><trkpt lat="45.882377" lon="11.0703792"><ele>420.0</ele><time>2026-04-30T16:35:36.891Z</time></trkpt><trkpt lat="45.8822592" lon="11.070326"><ele>420.0</ele><time>2026-04-30T16:35:37.892Z</time></trkpt><trkpt lat="45.8821409" lon="11.0702756"><ele>420.0</ele><time>2026-04-30T16:35:38.892Z</time></trkpt><trkpt lat="45.8820198" lon="11.0702369"><ele>420.0</ele><time>2026-04-30T16:35:39.892Z</time></trkpt><trkpt lat="45.8818973" lon="11.070215"><ele>420.0</ele><time>2026-04-30T16:35:40.891Z</time></trkpt><trkpt lat="45.8817739" lon="11.0702154"><ele>421.25</ele><time>2026-04-30T16:35:41.891Z</time></trkpt><trkpt lat="45.8816512" lon="11.0702398"><ele>422.5</ele><time>2026-04-30T16:35:42.892Z</time></trkpt><trkpt lat="45.88153" lon="11.0702739"><ele>423.75</ele><time>2026-04-30T16:35:43.892Z</time></trkpt><trkpt lat="45.8814119" lon="11.070308"><ele>425.0</ele><time>2026-04-30T16:35:44.891Z</time></trkpt><trkpt lat="45.8813" lon="11.0703611"><ele>425.0</ele><time>2026-04-30T16:35:45.891Z</time></trkpt><trkpt lat="45.8812046" lon="11.0704528"><ele>425.0</ele><time>2026-04-30T16:35:46.891Z</time></trkpt><trkpt lat="45.8811307" lon="11.0705784"><ele>425.0</ele><time>2026-04-30T16:35:47.891Z</time></trkpt><trkpt lat="45.881081" lon="11.0707307"><ele>425.0</ele><time>2026-04-30T16:35:48.891Z</time></trkpt><trkpt lat="45.8810585" lon="11.070897"><ele>427.5</ele><time>2026-04-30T16:35:49.891Z</time></trkpt><trkpt lat="45.8810472" lon="11.0710645"><ele>430.0</ele><time>2026-04-30T16:35:50.891Z</time></trkpt><trkpt lat="45.8810274" lon="11.0712319"><ele>432.5</ele><time>2026-04-30T16:35:51.892Z</time></trkpt><trkpt lat="45.8810202" lon="11.0714012"><ele>435.0</ele><time>2026-04-30T16:35:52.891Z</time></trkpt><trkpt lat="45.8810453" lon="11.0715632"><ele>437.0</ele><time>2026-04-30T16:35:53.892Z</time></trkpt><trkpt lat="45.8811031" lon="11.0716975"><ele>439.0</ele><time>2026-04-30T16:35:54.891Z</time></trkpt><trkpt lat="45.8811893" lon="11.0717882"><ele>441.0</ele><time>2026-04-30T16:35:55.891Z</time></trkpt><trkpt lat="45.8812953" lon="11.071825"><ele>443.0</ele><time>2026-04-30T16:35:56.891Z</time></trkpt><trkpt lat="45.8813999" lon="11.0718086"><ele>445.0</ele><time>2026-04-30T16:35:57.891Z</time></trkpt><trkpt lat="45.8815016" lon="11.0717429"><ele>445.0</ele><time>2026-04-30T16:35:58.892Z</time></trkpt><trkpt lat="45.8816008" lon="11.0716588"><ele>445.0</ele><time>2026-04-30T16:35:59.891Z</time></trkpt><trkpt lat="45.8817012" lon="11.0715789"><ele>445.0</ele><time>2026-04-30T16:36:00.892Z</time></trkpt><trkpt lat="45.8818047" lon="11.0715247"><ele>445.0</ele><time>2026-04-30T16:36:01.89Z</time></trkpt><trkpt lat="45.881912" lon="11.0715157"><ele>445.0</ele><time>2026-04-30T16:36:02.891Z</time></trkpt><trkpt lat="45.8820109" lon="11.071555"><ele>444.2</ele><time>2026-04-30T16:36:03.891Z</time></trkpt><trkpt lat="45.8820862" lon="11.071642"><ele>443.4</ele><time>2026-04-30T16:36:04.892Z</time></trkpt><trkpt lat="45.8821378" lon="11.07177"><ele>442.6</ele><time>2026-04-30T16:36:05.892Z</time></trkpt><trkpt lat="45.8821687" lon="11.0719218"><ele>441.8</ele><time>2026-04-30T16:36:06.891Z</time></trkpt><trkpt lat="45.8821998" lon="11.0720837"><ele>441.0</ele><time>2026-04-30T16:36:07.891Z</time></trkpt><trkpt lat="45.8822495" lon="11.0722447"><ele>441.0</ele><time>2026-04-30T16:36:08.891Z</time></trkpt><trkpt lat="45.882316" lon="11.0724005"><ele>441.0</ele><time>2026-04-30T16:36:09.892Z</time></trkpt><trkpt lat="45.8824013" lon="11.0725425"><ele>441.0</ele><time>2026-04-30T16:36:10.891Z</time></trkpt><trkpt lat="45.882496" lon="11.0726718"><ele>441.0</ele><time>2026-04-30T16:36:11.892Z</time></trkpt><trkpt lat="45.8825894" lon="11.0728022"><ele>443.75</ele><time>2026-04-30T16:36:12.891Z</time></trkpt><trkpt lat="45.8826836" lon="11.0729271"><ele>446.5</ele><time>2026-04-30T16:36:13.892Z</time></trkpt><trkpt lat="45.8827868" lon="11.0730255"><ele>449.25</ele><time>2026-04-30T16:36:14.891Z</time></trkpt><trkpt lat="45.882906" lon="11.0730867"><ele>452.0</ele><time>2026-04-30T16:36:15.892Z</time></trkpt><trkpt lat="45.8830326" lon="11.0731168"><ele>452.0</ele><time>2026-04-30T16:36:16.892Z</time></trkpt><trkpt lat="45.8831615" lon="11.0731275"><ele>452.0</ele><time>2026-04-30T16:36:17.891Z</time></trkpt><trkpt lat="45.883287" lon="11.0731285"><ele>452.0</ele><time>2026-04-30T16:36:18.891Z</time></trkpt><trkpt lat="45.883404" lon="11.073096"><ele>452.0</ele><time>2026-04-30T16:36:19.892Z</time></trkpt><trkpt lat="45.8835139" lon="11.0730177"><ele>456.0</ele><time>2026-04-30T16:36:20.891Z</time></trkpt><trkpt lat="45.8836112" lon="11.0729048"><ele>460.0</ele><time>2026-04-30T16:36:21.892Z</time></trkpt><trkpt lat="45.8836972" lon="11.0727692"><ele>464.0</ele><time>2026-04-30T16:36:22.891Z</time></trkpt><trkpt lat="45.8837805" lon="11.0726303"><ele>468.0</ele><time>2026-04-30T16:36:23.891Z</time></trkpt><trkpt lat="45.8838774" lon="11.0725141"><ele>467.0</ele><time>2026-04-30T16:36:24.892Z</time></trkpt><trkpt lat="45.8839876" lon="11.0724259"><ele>466.0</ele><time>2026-04-30T16:36:25.892Z</time></trkpt><trkpt lat="45.8841057" lon="11.0723561"><ele>465.0</ele><time>2026-04-30T16:36:26.891Z</time></trkpt><trkpt lat="45.884225" lon="11.0722866"><ele>464.0</ele><time>2026-04-30T16:36:27.89Z</time></trkpt><trkpt lat="45.8843445" lon="11.0722124"><ele>464.0</ele><time>2026-04-30T16:36:28.892Z</time></trkpt><trkpt lat="45.8844642" lon="11.0721441"><ele>464.0</ele><time>2026-04-30T16:36:29.891Z</time></trkpt><trkpt lat="45.8845731" lon="11.0720792"><ele>464.0</ele><time>2026-04-30T16:36:30.892Z</time></trkpt><trkpt lat="45.8846652" lon="11.0720511"><ele>464.0</ele><time>2026-04-30T16:36:31.892Z</time></trkpt><trkpt lat="45.8847513" lon="11.0720755"><ele>464.0</ele><time>2026-04-30T16:36:32.891Z</time></trkpt><trkpt lat="45.884802" lon="11.0721748"><ele>464.0</ele><time>2026-04-30T16:36:33.892Z</time></trkpt><trkpt lat="45.8848192" lon="11.0722825"><ele>464.0</ele><time>2026-04-30T16:36:34.891Z</time></trkpt><trkpt lat="45.8847905" lon="11.0723854"><ele>464.0</ele><time>2026-04-30T16:36:35.89Z</time></trkpt><trkpt lat="45.8847299" lon="11.0724857"><ele>464.0</ele><time>2026-04-30T16:36:36.891Z</time></trkpt><trkpt lat="45.884656" lon="11.0725918"><ele>464.0</ele><time>2026-04-30T16:36:37.891Z</time></trkpt><trkpt lat="45.8845746" lon="11.0727037"><ele>465.0</ele><time>2026-04-30T16:36:38.891Z</time></trkpt><trkpt lat="45.8844871" lon="11.0728185"><ele>466.0</ele><time>2026-04-30T16:36:39.891Z</time></trkpt><trkpt lat="45.8843938" lon="11.0729373"><ele>467.0</ele><time>2026-04-30T16:36:40.891Z</time></trkpt><trkpt lat="45.8842961" lon="11.0730552"><ele>468.0</ele><time>2026-04-30T16:36:41.891Z</time></trkpt><trkpt lat="45.8841963" lon="11.0731721"><ele>472.0</ele><time>2026-04-30T16:36:42.891Z</time></trkpt><trkpt lat="45.8840958" lon="11.0732904"><ele>476.0</ele><time>2026-04-30T16:36:43.892Z</time></trkpt><trkpt lat="45.8839962" lon="11.0734089"><ele>480.0</ele><time>2026-04-30T16:36:44.891Z</time></trkpt><trkpt lat="45.8839046" lon="11.0735135"><ele>484.0</ele><time>2026-04-30T16:36:45.891Z</time></trkpt><trkpt lat="45.8838052" lon="11.0735958"><ele>484.0</ele><time>2026-04-30T16:36:46.892Z</time></trkpt><trkpt lat="45.8836923" lon="11.0736449"><ele>484.0</ele><time>2026-04-30T16:36:47.892Z</time></trkpt><trkpt lat="45.8835729" lon="11.0736755"><ele>484.0</ele><time>2026-04-30T16:36:48.891Z</time></trkpt><trkpt lat="45.8834515" lon="11.0737123"><ele>484.0</ele><time>2026-04-30T16:36:49.891Z</time></trkpt><trkpt lat="45.8833277" lon="11.0737526"><ele>481.5</ele><time>2026-04-30T16:36:50.891Z</time></trkpt><trkpt lat="45.8832019" lon="11.0738053"><ele>479.0</ele><time>2026-04-30T16:36:51.892Z</time></trkpt><trkpt lat="45.8830828" lon="11.0738887"><ele>476.5</ele><time>2026-04-30T16:36:52.892Z</time></trkpt><trkpt lat="45.8829688" lon="11.0739856"><ele>474.0</ele><time>2026-04-30T16:36:53.892Z</time></trkpt><trkpt lat="45.8828537" lon="11.0740838"><ele>476.25</ele><time>2026-04-30T16:36:54.891Z</time></trkpt><trkpt lat="45.8827407" lon="11.0741839"><ele>478.5</ele><time>2026-04-30T16:36:55.891Z</time></trkpt><trkpt lat="45.8826296" lon="11.0742888"><ele>480.75</ele><time>2026-04-30T16:36:56.892Z</time></trkpt><trkpt lat="45.8825166" lon="11.0743921"><ele>483.0</ele><time>2026-04-30T16:36:57.891Z</time></trkpt><trkpt lat="45.8824076" lon="11.0744996"><ele>483.0</ele><time>2026-04-30T16:36:58.891Z</time></trkpt><trkpt lat="45.8823076" lon="11.0746202"><ele>483.0</ele><time>2026-04-30T16:36:59.891Z</time></trkpt><trkpt lat="45.8822102" lon="11.074743"><ele>483.0</ele><time>2026-04-30T16:37:00.891Z</time></trkpt><trkpt lat="45.8821123" lon="11.0748606"><ele>483.0</ele><time>2026-04-30T16:37:01.892Z</time></trkpt><trkpt lat="45.8820015" lon="11.0749465"><ele>486.25</ele><time>2026-04-30T16:37:02.892Z</time></trkpt><trkpt lat="45.8818816" lon="11.0750063"><ele>489.5</ele><time>2026-04-30T16:37:03.891Z</time></trkpt><trkpt lat="45.8817588" lon="11.0750519"><ele>492.75</ele><time>2026-04-30T16:37:04.891Z</time></trkpt><trkpt lat="45.8816339" lon="11.0750942"><ele>496.0</ele><time>2026-04-30T16:37:05.891Z</time></trkpt><trkpt lat="45.8815116" lon="11.0751466"><ele>496.0</ele><time>2026-04-30T16:37:06.892Z</time></trkpt><trkpt lat="45.8813991" lon="11.0752271"><ele>496.0</ele><time>2026-04-30T16:37:07.892Z</time></trkpt><trkpt lat="45.8812976" lon="11.0753388"><ele>496.0</ele><time>2026-04-30T16:37:08.891Z</time></trkpt><trkpt lat="45.8812134" lon="11.0754744"><ele>496.0</ele><time>2026-04-30T16:37:09.891Z</time></trkpt><trkpt lat="45.8811316" lon="11.0756145"><ele>496.0</ele><time>2026-04-30T16:37:10.891Z</time></trkpt><trkpt lat="45.8810503" lon="11.0757534"><ele>496.0</ele><time>2026-04-30T16:37:11.891Z</time></trkpt><trkpt lat="45.8809779" lon="11.0758811"><ele>496.0</ele><time>2026-04-30T16:37:12.891Z</time></trkpt><trkpt lat="45.8809177" lon="11.0759891"><ele>496.0</ele><time>2026-04-30T16:37:13.891Z</time></trkpt><trkpt lat="45.880877" lon="11.0760743"><ele>496.0</ele><time>2026-04-30T16:37:14.892Z</time></trkpt><trkpt lat="45.880888" lon="11.0761938"><ele>498.6</ele><time>2026-04-30T16:37:16.891Z</time></trkpt><trkpt lat="45.8809914" lon="11.0761772"><ele>501.20000000000005</ele><time>2026-04-30T16:37:18.892Z</time></trkpt><trkpt lat="45.8810624" lon="11.0760957"><ele>503.79999999999995</ele><time>2026-04-30T16:37:19.891Z</time></trkpt><trkpt lat="45.8811401" lon="11.0760025"><ele>506.4</ele><time>2026-04-30T16:37:20.891Z</time></trkpt><trkpt lat="45.881228" lon="11.0759027"><ele>509.0</ele><time>2026-04-30T16:37:21.892Z</time></trkpt><trkpt lat="45.881311" lon="11.0758021"><ele>508.99999999999994</ele><time>2026-04-30T16:37:22.892Z</time></trkpt><trkpt lat="45.8813913" lon="11.0757498"><ele>509.0</ele><time>2026-04-30T16:37:23.892Z</time></trkpt><trkpt lat="45.881484" lon="11.0757461"><ele>509.0</ele><time>2026-04-30T16:37:24.891Z</time></trkpt><trkpt lat="45.8815718" lon="11.0757797"><ele>509.0</ele><time>2026-04-30T16:37:25.892Z</time></trkpt><trkpt lat="45.8816446" lon="11.0758475"><ele>508.99999999999994</ele><time>2026-04-30T16:37:26.891Z</time></trkpt><trkpt lat="45.8817038" lon="11.0759034"><ele>509.0</ele><time>2026-04-30T16:37:27.892Z</time></trkpt><trkpt lat="45.8817451" lon="11.0760443"><ele>508.99999999999994</ele><time>2026-04-30T16:37:29.891Z</time></trkpt><trkpt lat="45.8816735" lon="11.0760841"><ele>509.0</ele><time>2026-04-30T16:37:31.891Z</time></trkpt><trkpt lat="45.8816084" lon="11.0760443"><ele>509.0</ele><time>2026-04-30T16:37:32.891Z</time></trkpt><trkpt lat="45.8815304" lon="11.0760039"><ele>509.0</ele><time>2026-04-30T16:37:33.891Z</time></trkpt><trkpt lat="45.8814523" lon="11.0759891"><ele>508.99999999999994</ele><time>2026-04-30T16:37:34.891Z</time></trkpt><trkpt lat="45.8813785" lon="11.0760192"><ele>509.0</ele><time>2026-04-30T16:37:35.892Z</time></trkpt><trkpt lat="45.8813218" lon="11.0761051"><ele>509.0</ele><time>2026-04-30T16:37:36.891Z</time></trkpt><trkpt lat="45.8812737" lon="11.076225"><ele>509.0</ele><time>2026-04-30T16:37:37.892Z</time></trkpt><trkpt lat="45.8812054" lon="11.0763359"><ele>509.0</ele><time>2026-04-30T16:37:38.892Z</time></trkpt><trkpt lat="45.8811119" lon="11.0764122"><ele>509.0</ele><time>2026-04-30T16:37:39.891Z</time></trkpt><trkpt lat="45.8810431" lon="11.0764812"><ele>509.0</ele><time>2026-04-30T16:37:40.891Z</time></trkpt><trkpt lat="45.8810067" lon="11.0765609"><ele>509.0</ele><time>2026-04-30T16:37:41.892Z</time></trkpt><trkpt lat="45.8810524" lon="11.0766864"><ele>509.0</ele><time>2026-04-30T16:37:43.891Z</time></trkpt><trkpt lat="45.8811192" lon="11.0766876"><ele>509.0</ele><time>2026-04-30T16:37:44.891Z</time></trkpt><trkpt lat="45.8811925" lon="11.0766355"><ele>509.0</ele><time>2026-04-30T16:37:45.891Z</time></trkpt><trkpt lat="45.8812921" lon="11.0765759"><ele>509.0</ele><time>2026-04-30T16:37:46.891Z</time></trkpt><trkpt lat="45.8814097" lon="11.0765684"><ele>509.0</ele><time>2026-04-30T16:37:47.891Z</time></trkpt><trkpt lat="45.8815138" lon="11.076579"><ele>509.0</ele><time>2026-04-30T16:37:48.891Z</time></trkpt><trkpt lat="45.8816063" lon="11.0766209"><ele>509.0</ele><time>2026-04-30T16:37:49.891Z</time></trkpt><trkpt lat="45.8816926" lon="11.0767049"><ele>509.0</ele><time>2026-04-30T16:37:50.891Z</time></trkpt><trkpt lat="45.8817887" lon="11.0767844"><ele>509.0</ele><time>2026-04-30T16:37:51.892Z</time></trkpt><trkpt lat="45.8818992" lon="11.0768199"><ele>512.25</ele><time>2026-04-30T16:37:52.892Z</time></trkpt><trkpt lat="45.8820106" lon="11.0768129"><ele>515.5</ele><time>2026-04-30T16:37:53.891Z</time></trkpt><trkpt lat="45.882114" lon="11.076754"><ele>518.75</ele><time>2026-04-30T16:37:54.891Z</time></trkpt><trkpt lat="45.8822119" lon="11.0766519"><ele>522.0</ele><time>2026-04-30T16:37:55.891Z</time></trkpt><trkpt lat="45.8823147" lon="11.0765516"><ele>522.0</ele><time>2026-04-30T16:37:56.891Z</time></trkpt><trkpt lat="45.8824193" lon="11.0764469"><ele>522.0</ele><time>2026-04-30T16:37:57.891Z</time></trkpt><trkpt lat="45.8825001" lon="11.0763458"><ele>522.0</ele><time>2026-04-30T16:37:58.891Z</time></trkpt><trkpt lat="45.8825815" lon="11.0762805"><ele>522.0</ele><time>2026-04-30T16:37:59.891Z</time></trkpt><trkpt lat="45.8826448" lon="11.0763088"><ele>522.0</ele><time>2026-04-30T16:38:00.892Z</time></trkpt><trkpt lat="45.8826466" lon="11.0764062"><ele>522.0</ele><time>2026-04-30T16:38:02.891Z</time></trkpt><trkpt lat="45.8825273" lon="11.076541"><ele>522.0</ele><time>2026-04-30T16:38:04.892Z</time></trkpt><trkpt lat="45.88244" lon="11.0766591"><ele>522.0</ele><time>2026-04-30T16:38:05.891Z</time></trkpt><trkpt lat="45.8823556" lon="11.0767922"><ele>522.0</ele><time>2026-04-30T16:38:06.891Z</time></trkpt><trkpt lat="45.8822717" lon="11.0769535"><ele>526.0</ele><time>2026-04-30T16:38:07.891Z</time></trkpt><trkpt lat="45.8821912" lon="11.077118"><ele>530.0</ele><time>2026-04-30T16:38:08.891Z</time></trkpt><trkpt lat="45.8821075" lon="11.0772447"><ele>534.0</ele><time>2026-04-30T16:38:09.891Z</time></trkpt><trkpt lat="45.882039" lon="11.0773301"><ele>538.0</ele><time>2026-04-30T16:38:10.89Z</time></trkpt><trkpt lat="45.8819748" lon="11.0773925"><ele>542.0</ele><time>2026-04-30T16:38:12.892Z</time></trkpt><trkpt lat="45.8819212" lon="11.0775091"><ele>543.8333333333333</ele><time>2026-04-30T16:38:15.891Z</time></trkpt><trkpt lat="45.8818649" lon="11.0775677"><ele>545.6666666666666</ele><time>2026-04-30T16:38:17.891Z</time></trkpt><trkpt lat="45.8817871" lon="11.0775875"><ele>547.5</ele><time>2026-04-30T16:38:19.892Z</time></trkpt><trkpt lat="45.8817173" lon="11.0776613"><ele>549.3333333333334</ele><time>2026-04-30T16:38:22.891Z</time></trkpt><trkpt lat="45.8817677" lon="11.0777673"><ele>551.1666666666667</ele><time>2026-04-30T16:38:25.891Z</time></trkpt><trkpt lat="45.8818291" lon="11.0778007"><ele>553.0</ele><time>2026-04-30T16:38:26.891Z</time></trkpt><trkpt lat="45.8819084" lon="11.0778267"><ele>555.1999999999999</ele><time>2026-04-30T16:38:27.892Z</time></trkpt><trkpt lat="45.8819975" lon="11.0778367"><ele>557.4</ele><time>2026-04-30T16:38:28.892Z</time></trkpt><trkpt lat="45.8820976" lon="11.0778157"><ele>559.5999999999999</ele><time>2026-04-30T16:38:29.891Z</time></trkpt><trkpt lat="45.8821988" lon="11.077759"><ele>561.8</ele><time>2026-04-30T16:38:30.891Z</time></trkpt><trkpt lat="45.8822988" lon="11.0776771"><ele>564.0</ele><time>2026-04-30T16:38:31.892Z</time></trkpt><trkpt lat="45.8823989" lon="11.0775925"><ele>564.0</ele><time>2026-04-30T16:38:32.892Z</time></trkpt><trkpt lat="45.8825079" lon="11.0775198"><ele>564.0</ele><time>2026-04-30T16:38:33.892Z</time></trkpt><trkpt lat="45.8826248" lon="11.0774659"><ele>564.0</ele><time>2026-04-30T16:38:34.892Z</time></trkpt><trkpt lat="45.8827486" lon="11.0774286"><ele>564.0</ele><time>2026-04-30T16:38:35.891Z</time></trkpt><trkpt lat="45.8828761" lon="11.0773919"><ele>564.0</ele><time>2026-04-30T16:38:36.892Z</time></trkpt><trkpt lat="45.8830069" lon="11.0773508"><ele>564.0</ele><time>2026-04-30T16:38:37.891Z</time></trkpt><trkpt lat="45.8831357" lon="11.0772808"><ele>564.0</ele><time>2026-04-30T16:38:38.891Z</time></trkpt><trkpt lat="45.8832575" lon="11.0771835"><ele>564.0</ele><time>2026-04-30T16:38:39.892Z</time></trkpt><trkpt lat="45.8833765" lon="11.0770807"><ele>569.0</ele><time>2026-04-30T16:38:40.892Z</time></trkpt><trkpt lat="45.8834954" lon="11.0770099"><ele>574.0</ele><time>2026-04-30T16:38:41.892Z</time></trkpt><trkpt lat="45.8836242" lon="11.0769665"><ele>579.0</ele><time>2026-04-30T16:38:42.891Z</time></trkpt><trkpt lat="45.883754" lon="11.0769288"><ele>584.0</ele><time>2026-04-30T16:38:43.892Z</time></trkpt><trkpt lat="45.8838783" lon="11.0768566"><ele>584.0</ele><time>2026-04-30T16:38:44.892Z</time></trkpt><trkpt lat="45.8839983" lon="11.0767674"><ele>584.0</ele><time>2026-04-30T16:38:45.891Z</time></trkpt><trkpt lat="45.8841139" lon="11.0766679"><ele>584.0</ele><time>2026-04-30T16:38:46.891Z</time></trkpt><trkpt lat="45.8842116" lon="11.0765864"><ele>584.0</ele><time>2026-04-30T16:38:47.891Z</time></trkpt><trkpt lat="45.8842899" lon="11.0765178"><ele>581.2</ele><time>2026-04-30T16:38:48.891Z</time></trkpt><trkpt lat="45.8843669" lon="11.0764818"><ele>578.4</ele><time>2026-04-30T16:38:49.89Z</time></trkpt><trkpt lat="45.8844667" lon="11.0764716"><ele>575.6</ele><time>2026-04-30T16:38:50.891Z</time></trkpt><trkpt lat="45.8845781" lon="11.0764595"><ele>572.8</ele><time>2026-04-30T16:38:51.891Z</time></trkpt><trkpt lat="45.8846807" lon="11.076414"><ele>570.0</ele><time>2026-04-30T16:38:52.892Z</time></trkpt><trkpt lat="45.8847683" lon="11.0763418"><ele>570.0</ele><time>2026-04-30T16:38:53.892Z</time></trkpt><trkpt lat="45.8848484" lon="11.0762823"><ele>570.0</ele><time>2026-04-30T16:38:54.891Z</time></trkpt><trkpt lat="45.8849256" lon="11.0762637"><ele>570.0</ele><time>2026-04-30T16:38:55.891Z</time></trkpt><trkpt lat="45.8849998" lon="11.0762818"><ele>570.0</ele><time>2026-04-30T16:38:56.891Z</time></trkpt><trkpt lat="45.8850641" lon="11.0763439"><ele>570.0</ele><time>2026-04-30T16:38:57.891Z</time></trkpt><trkpt lat="45.8851226" lon="11.0764337"><ele>570.0</ele><time>2026-04-30T16:38:58.892Z</time></trkpt><trkpt lat="45.8852038" lon="11.0765087"><ele>573.0</ele><time>2026-04-30T16:38:59.891Z</time></trkpt><trkpt lat="45.8853106" lon="11.0765457"><ele>576.0</ele><time>2026-04-30T16:39:00.89Z</time></trkpt><trkpt lat="45.8854276" lon="11.0765308"><ele>579.0</ele><time>2026-04-30T16:39:01.89Z</time></trkpt><trkpt lat="45.8855469" lon="11.0764908"><ele>582.0</ele><time>2026-04-30T16:39:02.89Z</time></trkpt><trkpt lat="45.8856729" lon="11.0764448"><ele>582.0</ele><time>2026-04-30T16:39:03.89Z</time></trkpt><trkpt lat="45.8858032" lon="11.0763909"><ele>582.0</ele><time>2026-04-30T16:39:04.891Z</time></trkpt><trkpt lat="45.8859367" lon="11.0763303"><ele>582.0</ele><time>2026-04-30T16:39:05.89Z</time></trkpt><trkpt lat="45.8860676" lon="11.0762716"><ele>582.0</ele><time>2026-04-30T16:39:06.891Z</time></trkpt><trkpt lat="45.8861731" lon="11.0761874"><ele>585.6</ele><time>2026-04-30T16:39:07.89Z</time></trkpt><trkpt lat="45.8862517" lon="11.0760764"><ele>589.2</ele><time>2026-04-30T16:39:08.891Z</time></trkpt><trkpt lat="45.8863116" lon="11.0760109"><ele>592.8</ele><time>2026-04-30T16:39:09.89Z</time></trkpt><trkpt lat="45.8863877" lon="11.0760713"><ele>596.4</ele><time>2026-04-30T16:39:11.89Z</time></trkpt><trkpt lat="45.8863163" lon="11.0762111"><ele>600.0</ele><time>2026-04-30T16:39:13.891Z</time></trkpt><trkpt lat="45.886251" lon="11.076301"><ele>600.0</ele><time>2026-04-30T16:39:14.891Z</time></trkpt><trkpt lat="45.8861689" lon="11.0764157"><ele>600.0</ele><time>2026-04-30T16:39:15.89Z</time></trkpt><trkpt lat="45.8860759" lon="11.0765315"><ele>600.0</ele><time>2026-04-30T16:39:16.89Z</time></trkpt><trkpt lat="45.8859715" lon="11.0766538"><ele>600.0</ele><time>2026-04-30T16:39:17.89Z</time></trkpt><trkpt lat="45.8858625" lon="11.0767666"><ele>601.75</ele><time>2026-04-30T16:39:18.891Z</time></trkpt><trkpt lat="45.8857539" lon="11.0768761"><ele>603.5</ele><time>2026-04-30T16:39:19.89Z</time></trkpt><trkpt lat="45.8856442" lon="11.0769868"><ele>605.25</ele><time>2026-04-30T16:39:20.889Z</time></trkpt><trkpt lat="45.8855295" lon="11.0770816"><ele>607.0</ele><time>2026-04-30T16:39:21.89Z</time></trkpt><trkpt lat="45.885411" lon="11.0771563"><ele>607.0</ele><time>2026-04-30T16:39:22.889Z</time></trkpt><trkpt lat="45.8852879" lon="11.0772214"><ele>607.0</ele><time>2026-04-30T16:39:23.891Z</time></trkpt><trkpt lat="45.8851659" lon="11.0772891"><ele>607.0</ele><time>2026-04-30T16:39:24.891Z</time></trkpt><trkpt lat="45.8850466" lon="11.0773716"><ele>607.0</ele><time>2026-04-30T16:39:25.89Z</time></trkpt><trkpt lat="45.8849214" lon="11.0774311"><ele>612.25</ele><time>2026-04-30T16:39:26.89Z</time></trkpt><trkpt lat="45.8847894" lon="11.0774668"><ele>617.5</ele><time>2026-04-30T16:39:27.89Z</time></trkpt><trkpt lat="45.8846658" lon="11.0774836"><ele>622.75</ele><time>2026-04-30T16:39:28.89Z</time></trkpt><trkpt lat="45.8845628" lon="11.0775086"><ele>628.0</ele><time>2026-04-30T16:39:29.891Z</time></trkpt><trkpt lat="45.8844774" lon="11.0775572"><ele>628.0</ele><time>2026-04-30T16:39:30.891Z</time></trkpt><trkpt lat="45.884403" lon="11.0776483"><ele>628.0</ele><time>2026-04-30T16:39:31.891Z</time></trkpt><trkpt lat="45.8843416" lon="11.0777726"><ele>628.0</ele><time>2026-04-30T16:39:32.891Z</time></trkpt><trkpt lat="45.8843037" lon="11.0779307"><ele>628.0</ele><time>2026-04-30T16:39:33.891Z</time></trkpt><trkpt lat="45.8842785" lon="11.0781074"><ele>628.0</ele><time>2026-04-30T16:39:34.889Z</time></trkpt><trkpt lat="45.8842441" lon="11.078291"><ele>629.0</ele><time>2026-04-30T16:39:35.89Z</time></trkpt><trkpt lat="45.8842057" lon="11.0784743"><ele>630.0</ele><time>2026-04-30T16:39:36.89Z</time></trkpt><trkpt lat="45.884156" lon="11.0786332"><ele>631.0</ele><time>2026-04-30T16:39:37.89Z</time></trkpt><trkpt lat="45.8840793" lon="11.0787802"><ele>632.0</ele><time>2026-04-30T16:39:38.89Z</time></trkpt><trkpt lat="45.88399" lon="11.0789173"><ele>632.0</ele><time>2026-04-30T16:39:39.89Z</time></trkpt><trkpt lat="45.8838795" lon="11.0790264"><ele>632.0</ele><time>2026-04-30T16:39:40.89Z</time></trkpt><trkpt lat="45.8837569" lon="11.0791132"><ele>632.0</ele><time>2026-04-30T16:39:41.89Z</time></trkpt><trkpt lat="45.8836347" lon="11.0792115"><ele>632.0</ele><time>2026-04-30T16:39:42.89Z</time></trkpt><trkpt lat="45.8835048" lon="11.0792929"><ele>633.5</ele><time>2026-04-30T16:39:43.89Z</time></trkpt><trkpt lat="45.8833747" lon="11.0793282"><ele>635.0</ele><time>2026-04-30T16:39:44.89Z</time></trkpt><trkpt lat="45.8832355" lon="11.0793338"><ele>636.5</ele><time>2026-04-30T16:39:45.89Z</time></trkpt><trkpt lat="45.8830954" lon="11.0793344"><ele>638.0</ele><time>2026-04-30T16:39:46.89Z</time></trkpt><trkpt lat="45.882953" lon="11.0793404"><ele>638.0</ele><time>2026-04-30T16:39:47.89Z</time></trkpt><trkpt lat="45.882837" lon="11.0793561"><ele>638.0</ele><time>2026-04-30T16:39:48.891Z</time></trkpt><trkpt lat="45.882757" lon="11.0793869"><ele>638.0</ele><time>2026-04-30T16:39:49.89Z</time></trkpt><trkpt lat="45.882729" lon="11.0795157"><ele>638.0</ele><time>2026-04-30T16:39:51.889Z</time></trkpt><trkpt lat="45.8828384" lon="11.0795571"><ele>638.0</ele><time>2026-04-30T16:39:53.89Z</time></trkpt><trkpt lat="45.8829275" lon="11.0795451"><ele>638.0</ele><time>2026-04-30T16:39:54.891Z</time></trkpt><trkpt lat="45.8830333" lon="11.0795338"><ele>638.0</ele><time>2026-04-30T16:39:55.891Z</time></trkpt><trkpt lat="45.8831471" lon="11.0795564"><ele>638.0</ele><time>2026-04-30T16:39:56.891Z</time></trkpt><trkpt lat="45.8832706" lon="11.0796164"><ele>638.0</ele><time>2026-04-30T16:39:57.891Z</time></trkpt><trkpt lat="45.8833834" lon="11.0796763"><ele>641.75</ele><time>2026-04-30T16:39:58.89Z</time></trkpt><trkpt lat="45.8834943" lon="11.079679"><ele>645.5</ele><time>2026-04-30T16:39:59.89Z</time></trkpt><trkpt lat="45.8836103" lon="11.0796477"><ele>649.25</ele><time>2026-04-30T16:40:00.891Z</time></trkpt><trkpt lat="45.8837298" lon="11.0795951"><ele>653.0</ele><time>2026-04-30T16:40:01.89Z</time></trkpt><trkpt lat="45.8838572" lon="11.0795666"><ele>653.0</ele><time>2026-04-30T16:40:02.89Z</time></trkpt><trkpt lat="45.8839749" lon="11.0795684"><ele>653.0</ele><time>2026-04-30T16:40:03.891Z</time></trkpt><trkpt lat="45.8840923" lon="11.07953"><ele>653.0</ele><time>2026-04-30T16:40:04.89Z</time></trkpt><trkpt lat="45.8842037" lon="11.0794528"><ele>653.0</ele><time>2026-04-30T16:40:05.89Z</time></trkpt><trkpt lat="45.8843028" lon="11.079332"><ele>654.5</ele><time>2026-04-30T16:40:06.89Z</time></trkpt><trkpt lat="45.8843847" lon="11.0791804"><ele>656.0</ele><time>2026-04-30T16:40:07.891Z</time></trkpt><trkpt lat="45.8844434" lon="11.079006"><ele>657.5</ele><time>2026-04-30T16:40:08.89Z</time></trkpt><trkpt lat="45.8844816" lon="11.0788482"><ele>659.0</ele><time>2026-04-30T16:40:09.891Z</time></trkpt><trkpt lat="45.8845457" lon="11.0787181"><ele>659.0</ele><time>2026-04-30T16:40:10.891Z</time></trkpt><trkpt lat="45.8846237" lon="11.0786181"><ele>659.0</ele><time>2026-04-30T16:40:11.891Z</time></trkpt><trkpt lat="45.8847007" lon="11.0785823"><ele>659.0</ele><time>2026-04-30T16:40:12.891Z</time></trkpt><trkpt lat="45.8847951" lon="11.0785849"><ele>659.0</ele><time>2026-04-30T16:40:13.89Z</time></trkpt><trkpt lat="45.8848987" lon="11.0786285"><ele>659.0</ele><time>2026-04-30T16:40:14.891Z</time></trkpt><trkpt lat="45.8850109" lon="11.078637"><ele>661.4000000000001</ele><time>2026-04-30T16:40:15.891Z</time></trkpt><trkpt lat="45.8851181" lon="11.0786077"><ele>663.8</ele><time>2026-04-30T16:40:16.89Z</time></trkpt><trkpt lat="45.8852074" lon="11.0785248"><ele>666.2</ele><time>2026-04-30T16:40:17.89Z</time></trkpt><trkpt lat="45.8852898" lon="11.078423"><ele>668.5999999999999</ele><time>2026-04-30T16:40:18.89Z</time></trkpt><trkpt lat="45.8853838" lon="11.0783672"><ele>671.0</ele><time>2026-04-30T16:40:19.89Z</time></trkpt><trkpt lat="45.885497" lon="11.0783481"><ele>671.0</ele><time>2026-04-30T16:40:20.89Z</time></trkpt><trkpt lat="45.8856318" lon="11.0783574"><ele>671.0</ele><time>2026-04-30T16:40:21.889Z</time></trkpt><trkpt lat="45.885773" lon="11.0783548"><ele>671.0</ele><time>2026-04-30T16:40:22.89Z</time></trkpt><trkpt lat="45.8859159" lon="11.0783475"><ele>671.0</ele><time>2026-04-30T16:40:23.891Z</time></trkpt><trkpt lat="45.8860631" lon="11.078327"><ele>674.25</ele><time>2026-04-30T16:40:24.891Z</time></trkpt><trkpt lat="45.8862089" lon="11.0782925"><ele>677.5</ele><time>2026-04-30T16:40:25.89Z</time></trkpt><trkpt lat="45.8863509" lon="11.0782488"><ele>680.75</ele><time>2026-04-30T16:40:26.89Z</time></trkpt><trkpt lat="45.8864969" lon="11.0782074"><ele>684.0</ele><time>2026-04-30T16:40:27.89Z</time></trkpt><trkpt lat="45.8866409" lon="11.0781642"><ele>680.25</ele><time>2026-04-30T16:40:28.89Z</time></trkpt><trkpt lat="45.886783" lon="11.0781124"><ele>676.5</ele><time>2026-04-30T16:40:29.89Z</time></trkpt><trkpt lat="45.8869258" lon="11.078072"><ele>672.75</ele><time>2026-04-30T16:40:30.89Z</time></trkpt><trkpt lat="45.8870686" lon="11.0780416"><ele>669.0</ele><time>2026-04-30T16:40:31.89Z</time></trkpt><trkpt lat="45.8872083" lon="11.0780014"><ele>669.0</ele><time>2026-04-30T16:40:32.891Z</time></trkpt><trkpt lat="45.8873479" lon="11.0779493"><ele>669.0</ele><time>2026-04-30T16:40:33.89Z</time></trkpt><trkpt lat="45.8874669" lon="11.0778827"><ele>669.0</ele><time>2026-04-30T16:40:34.89Z</time></trkpt><trkpt lat="45.8875648" lon="11.0778029"><ele>669.0</ele><time>2026-04-30T16:40:35.891Z</time></trkpt><trkpt lat="45.8876416" lon="11.0777223"><ele>670.8333333333334</ele><time>2026-04-30T16:40:36.891Z</time></trkpt><trkpt lat="45.8876973" lon="11.0776697"><ele>672.6666666666666</ele><time>2026-04-30T16:40:37.891Z</time></trkpt><trkpt lat="45.8878027" lon="11.0776445"><ele>674.5</ele><time>2026-04-30T16:40:39.891Z</time></trkpt><trkpt lat="45.8878742" lon="11.0776606"><ele>676.3333333333333</ele><time>2026-04-30T16:40:41.891Z</time></trkpt><trkpt lat="45.8879077" lon="11.0777436"><ele>678.1666666666666</ele><time>2026-04-30T16:40:43.89Z</time></trkpt><trkpt lat="45.8879013" lon="11.0778367"><ele>680.0</ele><time>2026-04-30T16:40:45.89Z</time></trkpt><trkpt lat="45.8878067" lon="11.0779256"><ele>680.0</ele><time>2026-04-30T16:40:57.89Z</time></trkpt><trkpt lat="45.8876927" lon="11.0780092"><ele>680.0</ele><time>2026-04-30T16:40:59.89Z</time></trkpt><trkpt lat="45.8876279" lon="11.0781134"><ele>680.0</ele><time>2026-04-30T16:41:01.89Z</time></trkpt><trkpt lat="45.8875676" lon="11.0781942"><ele>680.0</ele><time>2026-04-30T16:41:03.89Z</time></trkpt><trkpt lat="45.8874804" lon="11.07826"><ele>680.0</ele><time>2026-04-30T16:41:05.891Z</time></trkpt><trkpt lat="45.8873842" lon="11.078341"><ele>682.8</ele><time>2026-04-30T16:41:07.89Z</time></trkpt><trkpt lat="45.8872923" lon="11.0784043"><ele>685.6</ele><time>2026-04-30T16:41:09.891Z</time></trkpt><trkpt lat="45.8872179" lon="11.0785006"><ele>688.4000000000001</ele><time>2026-04-30T16:41:11.891Z</time></trkpt><trkpt lat="45.8871303" lon="11.0785954"><ele>691.2</ele><time>2026-04-30T16:41:13.89Z</time></trkpt><trkpt lat="45.8870225" lon="11.0786682"><ele>694.0</ele><time>2026-04-30T16:41:15.89Z</time></trkpt><trkpt lat="45.8869602" lon="11.0787326"><ele>694.0</ele><time>2026-04-30T16:41:17.891Z</time></trkpt><trkpt lat="45.8868863" lon="11.0788229"><ele>694.0</ele><time>2026-04-30T16:41:19.891Z</time></trkpt><trkpt lat="45.8867975" lon="11.0789365"><ele>694.0</ele><time>2026-04-30T16:41:21.89Z</time></trkpt><trkpt lat="45.8867297" lon="11.0789858"><ele>694.0</ele><time>2026-04-30T16:41:22.891Z</time></trkpt><trkpt lat="45.8866273" lon="11.0790455"><ele>694.0</ele><time>2026-04-30T16:41:24.89Z</time></trkpt><trkpt lat="45.8865562" lon="11.0791155"><ele>697.8000000000001</ele><time>2026-04-30T16:41:26.89Z</time></trkpt><trkpt lat="45.8865621" lon="11.0792148"><ele>701.6</ele><time>2026-04-30T16:41:30.891Z</time></trkpt><trkpt lat="45.8866413" lon="11.0792328"><ele>705.4</ele><time>2026-04-30T16:41:32.89Z</time></trkpt><trkpt lat="45.886749" lon="11.0792701"><ele>709.2</ele><time>2026-04-30T16:41:34.89Z</time></trkpt><trkpt lat="45.8868475" lon="11.0793115"><ele>713.0</ele><time>2026-04-30T16:41:36.891Z</time></trkpt><trkpt lat="45.8869547" lon="11.0792996"><ele>714.5999999999999</ele><time>2026-04-30T16:41:38.891Z</time></trkpt><trkpt lat="45.8870224" lon="11.0792993"><ele>716.1999999999999</ele><time>2026-04-30T16:41:40.89Z</time></trkpt><trkpt lat="45.8870964" lon="11.0793814"><ele>717.8</ele><time>2026-04-30T16:41:42.891Z</time></trkpt><trkpt lat="45.8871668" lon="11.0794564"><ele>719.4</ele><time>2026-04-30T16:41:44.891Z</time></trkpt><trkpt lat="45.8872527" lon="11.07958"><ele>721.0</ele><time>2026-04-30T16:41:46.889Z</time></trkpt><trkpt lat="45.8873311" lon="11.079692"><ele>721.0</ele><time>2026-04-30T16:41:48.89Z</time></trkpt><trkpt lat="45.8874202" lon="11.0797725"><ele>721.0</ele><time>2026-04-30T16:41:50.89Z</time></trkpt><trkpt lat="45.8874994" lon="11.0798097"><ele>721.0</ele><time>2026-04-30T16:41:53.89Z</time></trkpt><trkpt lat="45.8875782" lon="11.0798291"><ele>721.0</ele><time>2026-04-30T16:41:55.89Z</time></trkpt><trkpt lat="45.8876712" lon="11.0798613"><ele>721.0</ele><time>2026-04-30T16:41:57.891Z</time></trkpt><trkpt lat="45.8877994" lon="11.0798865"><ele>722.8</ele><time>2026-04-30T16:41:59.89Z</time></trkpt><trkpt lat="45.8878677" lon="11.0799032"><ele>724.5999999999999</ele><time>2026-04-30T16:42:00.89Z</time></trkpt><trkpt lat="45.8879663" lon="11.0798159"><ele>726.4</ele><time>2026-04-30T16:42:02.89Z</time></trkpt><trkpt lat="45.8880612" lon="11.0797515"><ele>728.2</ele><time>2026-04-30T16:42:04.89Z</time></trkpt><trkpt lat="45.888125" lon="11.0796736"><ele>730.0</ele><time>2026-04-30T16:42:06.89Z</time></trkpt><trkpt lat="45.8882021" lon="11.0796167"><ele>730.0</ele><time>2026-04-30T16:42:08.89Z</time></trkpt><trkpt lat="45.888292" lon="11.0796159"><ele>730.0</ele><time>2026-04-30T16:42:10.889Z</time></trkpt><trkpt lat="45.8884" lon="11.0796034"><ele>730.0</ele><time>2026-04-30T16:42:12.891Z</time></trkpt><trkpt lat="45.8884736" lon="11.0795961"><ele>730.0</ele><time>2026-04-30T16:42:14.891Z</time></trkpt><trkpt lat="45.8885657" lon="11.0796323"><ele>730.0</ele><time>2026-04-30T16:42:16.89Z</time></trkpt><trkpt lat="45.8886736" lon="11.0796803"><ele>733.8</ele><time>2026-04-30T16:42:18.89Z</time></trkpt><trkpt lat="45.8887695" lon="11.0797391"><ele>737.6</ele><time>2026-04-30T16:42:20.89Z</time></trkpt><trkpt lat="45.8888349" lon="11.0797679"><ele>741.4000000000001</ele><time>2026-04-30T16:42:21.891Z</time></trkpt><trkpt lat="45.8889393" lon="11.0798048"><ele>745.2</ele><time>2026-04-30T16:42:23.891Z</time></trkpt><trkpt lat="45.8890364" lon="11.0798283"><ele>749.0</ele><time>2026-04-30T16:42:25.891Z</time></trkpt><trkpt lat="45.8891224" lon="11.0798539"><ele>749.0</ele><time>2026-04-30T16:42:27.891Z</time></trkpt><trkpt lat="45.8892026" lon="11.0798894"><ele>749.0</ele><time>2026-04-30T16:42:29.89Z</time></trkpt><trkpt lat="45.8893015" lon="11.0798965"><ele>749.0</ele><time>2026-04-30T16:42:31.89Z</time></trkpt><trkpt lat="45.889403" lon="11.0798573"><ele>749.0</ele><time>2026-04-30T16:42:33.891Z</time></trkpt><trkpt lat="45.8894928" lon="11.0798431"><ele>749.0</ele><time>2026-04-30T16:42:35.891Z</time></trkpt><trkpt lat="45.8895811" lon="11.0798062"><ele>754.4000000000001</ele><time>2026-04-30T16:42:37.89Z</time></trkpt><trkpt lat="45.8896628" lon="11.0798067"><ele>759.8</ele><time>2026-04-30T16:42:39.891Z</time></trkpt><trkpt lat="45.8897363" lon="11.079798"><ele>765.2</ele><time>2026-04-30T16:42:41.89Z</time></trkpt><trkpt lat="45.8898408" lon="11.0798299"><ele>770.5999999999999</ele><time>2026-04-30T16:42:43.891Z</time></trkpt><trkpt lat="45.8899442" lon="11.0798284"><ele>776.0</ele><time>2026-04-30T16:42:45.89Z</time></trkpt><trkpt lat="45.8900386" lon="11.0798262"><ele>779.8333333333334</ele><time>2026-04-30T16:42:47.891Z</time></trkpt><trkpt lat="45.8901192" lon="11.0799037"><ele>783.6666666666667</ele><time>2026-04-30T16:42:50.89Z</time></trkpt><trkpt lat="45.8901715" lon="11.0799678"><ele>787.5</ele><time>2026-04-30T16:42:52.89Z</time></trkpt><trkpt lat="45.8902424" lon="11.0800345"><ele>791.3333333333333</ele><time>2026-04-30T16:42:55.89Z</time></trkpt><trkpt lat="45.8903139" lon="11.0800776"><ele>795.1666666666666</ele><time>2026-04-30T16:42:57.891Z</time></trkpt><trkpt lat="45.8904063" lon="11.0801486"><ele>799.0</ele><time>2026-04-30T16:42:59.89Z</time></trkpt><trkpt lat="45.8904936" lon="11.0801341"><ele>799.9999999999999</ele><time>2026-04-30T16:43:01.89Z</time></trkpt><trkpt lat="45.8905858" lon="11.0801719"><ele>801.0</ele><time>2026-04-30T16:43:03.891Z</time></trkpt><trkpt lat="45.8906507" lon="11.0801979"><ele>802.0</ele><time>2026-04-30T16:43:04.89Z</time></trkpt><trkpt lat="45.8907133" lon="11.0802301"><ele>803.0</ele><time>2026-04-30T16:43:05.891Z</time></trkpt><trkpt lat="45.8907869" lon="11.0802621"><ele>803.9999999999999</ele><time>2026-04-30T16:43:06.89Z</time></trkpt><trkpt lat="45.8908653" lon="11.0802909"><ele>805.0</ele><time>2026-04-30T16:43:07.891Z</time></trkpt><trkpt lat="45.8909589" lon="11.0802908"><ele>807.0</ele><time>2026-04-30T16:43:08.891Z</time></trkpt><trkpt lat="45.8910416" lon="11.0802862"><ele>809.0</ele><time>2026-04-30T16:43:09.89Z</time></trkpt><trkpt lat="45.8911177" lon="11.0802776"><ele>811.0</ele><time>2026-04-30T16:43:10.89Z</time></trkpt><trkpt lat="45.8912264" lon="11.0802568"><ele>813.0</ele><time>2026-04-30T16:43:12.891Z</time></trkpt><trkpt lat="45.8913153" lon="11.0802854"><ele>815.0</ele><time>2026-04-30T16:43:14.89Z</time></trkpt><trkpt lat="45.8914331" lon="11.0803288"><ele>815.0</ele><time>2026-04-30T16:43:16.89Z</time></trkpt><trkpt lat="45.8915372" lon="11.0803851"><ele>815.0</ele><time>2026-04-30T16:43:18.89Z</time></trkpt><trkpt lat="45.8916292" lon="11.0803869"><ele>815.0</ele><time>2026-04-30T16:43:20.891Z</time></trkpt><trkpt lat="45.891739" lon="11.0804152"><ele>815.0</ele><time>2026-04-30T16:43:22.891Z</time></trkpt><trkpt lat="45.8918686" lon="11.0804759"><ele>816.6666666666667</ele><time>2026-04-30T16:43:24.89Z</time></trkpt><trkpt lat="45.8919324" lon="11.0804765"><ele>818.3333333333334</ele><time>2026-04-30T16:43:25.89Z</time></trkpt><trkpt lat="45.8919979" lon="11.0804907"><ele>820.0</ele><time>2026-04-30T16:43:26.889Z</time></trkpt><trkpt lat="45.8921223" lon="11.0805247"><ele>821.6666666666667</ele><time>2026-04-30T16:43:28.89Z</time></trkpt><trkpt lat="45.8921821" lon="11.0805722"><ele>823.3333333333334</ele><time>2026-04-30T16:43:29.891Z</time></trkpt><trkpt lat="45.8922462" lon="11.0806229"><ele>825.0</ele><time>2026-04-30T16:43:30.89Z</time></trkpt><trkpt lat="45.8923558" lon="11.0806543"><ele>825.0</ele><time>2026-04-30T16:43:32.89Z</time></trkpt><trkpt lat="45.8924288" lon="11.0806502"><ele>825.0</ele><time>2026-04-30T16:43:34.89Z</time></trkpt><trkpt lat="45.8924835" lon="11.0805682"><ele>825.0</ele><time>2026-04-30T16:43:36.89Z</time></trkpt><trkpt lat="45.8925683" lon="11.0805574"><ele>825.0</ele><time>2026-04-30T16:43:38.89Z</time></trkpt><trkpt lat="45.8926649" lon="11.0805868"><ele>825.0</ele><time>2026-04-30T16:43:40.89Z</time></trkpt><trkpt lat="45.8927768" lon="11.0805898"><ele>825.0</ele><time>2026-04-30T16:43:42.89Z</time></trkpt><trkpt lat="45.8928958" lon="11.0805362"><ele>827.0</ele><time>2026-04-30T16:43:44.891Z</time></trkpt><trkpt lat="45.8929656" lon="11.0805246"><ele>829.0</ele><time>2026-04-30T16:43:45.89Z</time></trkpt><trkpt lat="45.8930696" lon="11.0804896"><ele>831.0</ele><time>2026-04-30T16:43:47.891Z</time></trkpt><trkpt lat="45.8931613" lon="11.0804667"><ele>833.0</ele><time>2026-04-30T16:43:49.891Z</time></trkpt><trkpt lat="45.8932917" lon="11.0804895"><ele>835.0</ele><time>2026-04-30T16:43:51.891Z</time></trkpt><trkpt lat="45.8933955" lon="11.0804664"><ele>836.4</ele><time>2026-04-30T16:43:53.89Z</time></trkpt><trkpt lat="45.8934988" lon="11.0805156"><ele>837.8</ele><time>2026-04-30T16:43:55.891Z</time></trkpt><trkpt lat="45.8935652" lon="11.0805498"><ele>839.2</ele><time>2026-04-30T16:43:56.89Z</time></trkpt><trkpt lat="45.8936959" lon="11.0805875"><ele>840.6</ele><time>2026-04-30T16:43:58.89Z</time></trkpt><trkpt lat="45.8938224" lon="11.0805832"><ele>842.0</ele><time>2026-04-30T16:44:00.89Z</time></trkpt><trkpt lat="45.8939419" lon="11.0805965"><ele>842.0</ele><time>2026-04-30T16:44:02.89Z</time></trkpt><trkpt lat="45.894052" lon="11.0806143"><ele>842.0</ele><time>2026-04-30T16:44:04.89Z</time></trkpt><trkpt lat="45.8941084" lon="11.0805308"><ele>842.0</ele><time>2026-04-30T16:44:06.891Z</time></trkpt><trkpt lat="45.8941766" lon="11.0804595"><ele>842.0</ele><time>2026-04-30T16:44:08.89Z</time></trkpt><trkpt lat="45.8942758" lon="11.080425"><ele>842.0</ele><time>2026-04-30T16:44:10.89Z</time></trkpt><trkpt lat="45.8943587" lon="11.0804527"><ele>841.8</ele><time>2026-04-30T16:44:12.892Z</time></trkpt><trkpt lat="45.894373" lon="11.0805481"><ele>841.6</ele><time>2026-04-30T16:44:14.891Z</time></trkpt><trkpt lat="45.8943422" lon="11.0806714"><ele>841.4</ele><time>2026-04-30T16:44:16.891Z</time></trkpt><trkpt lat="45.8942956" lon="11.0808256"><ele>841.1999999999999</ele><time>2026-04-30T16:44:18.89Z</time></trkpt><trkpt lat="45.8942647" lon="11.080961"><ele>841.0</ele><time>2026-04-30T16:44:20.89Z</time></trkpt><trkpt lat="45.894246" lon="11.0811302"><ele>841.0</ele><time>2026-04-30T16:44:22.891Z</time></trkpt><trkpt lat="45.8942452" lon="11.0812272"><ele>841.0</ele><time>2026-04-30T16:44:23.891Z</time></trkpt><trkpt lat="45.8942456" lon="11.0813806"><ele>841.0</ele><time>2026-04-30T16:44:25.89Z</time></trkpt><trkpt lat="45.8942425" lon="11.0815453"><ele>841.0</ele><time>2026-04-30T16:44:27.89Z</time></trkpt><trkpt lat="45.8942428" lon="11.0817024"><ele>841.0</ele><time>2026-04-30T16:44:29.89Z</time></trkpt><trkpt lat="45.8942282" lon="11.0818084"><ele>841.4</ele><time>2026-04-30T16:44:31.89Z</time></trkpt><trkpt lat="45.8941855" lon="11.081925"><ele>841.8</ele><time>2026-04-30T16:44:33.89Z</time></trkpt><trkpt lat="45.8941389" lon="11.0820585"><ele>842.1999999999999</ele><time>2026-04-30T16:44:35.89Z</time></trkpt><trkpt lat="45.8941231" lon="11.0822309"><ele>842.5999999999999</ele><time>2026-04-30T16:44:37.891Z</time></trkpt><trkpt lat="45.8941048" lon="11.0823365"><ele>843.0</ele><time>2026-04-30T16:44:39.89Z</time></trkpt><trkpt lat="45.8940474" lon="11.0824136"><ele>844.8333333333334</ele><time>2026-04-30T16:44:41.89Z</time></trkpt><trkpt lat="45.8940718" lon="11.0825206"><ele>846.6666666666667</ele><time>2026-04-30T16:44:44.89Z</time></trkpt><trkpt lat="45.8940496" lon="11.082606"><ele>848.5</ele><time>2026-04-30T16:44:47.89Z</time></trkpt><trkpt lat="45.8940299" lon="11.0827314"><ele>850.3333333333334</ele><time>2026-04-30T16:44:49.89Z</time></trkpt><trkpt lat="45.8939992" lon="11.0829035"><ele>852.1666666666667</ele><time>2026-04-30T16:44:51.891Z</time></trkpt><trkpt lat="45.8939754" lon="11.0829931"><ele>854.0</ele><time>2026-04-30T16:44:52.89Z</time></trkpt><trkpt lat="45.8938828" lon="11.0830832"><ele>854.0000000000001</ele><time>2026-04-30T16:44:54.89Z</time></trkpt><trkpt lat="45.8937981" lon="11.0831224"><ele>854.0</ele><time>2026-04-30T16:44:55.89Z</time></trkpt><trkpt lat="45.8937043" lon="11.0831792"><ele>854.0</ele><time>2026-04-30T16:44:56.891Z</time></trkpt><trkpt lat="45.8936372" lon="11.0832196"><ele>854.0</ele><time>2026-04-30T16:44:57.89Z</time></trkpt><trkpt lat="45.8935685" lon="11.0832624"><ele>854.0000000000001</ele><time>2026-04-30T16:44:58.89Z</time></trkpt><trkpt lat="45.8935266" lon="11.0833905"><ele>854.0</ele><time>2026-04-30T16:45:00.891Z</time></trkpt><trkpt lat="45.893439" lon="11.0835062"><ele>856.8333333333334</ele><time>2026-04-30T16:45:02.89Z</time></trkpt><trkpt lat="45.8933671" lon="11.0835979"><ele>859.6666666666667</ele><time>2026-04-30T16:45:03.89Z</time></trkpt><trkpt lat="45.8932946" lon="11.0836621"><ele>862.5</ele><time>2026-04-30T16:45:04.89Z</time></trkpt><trkpt lat="45.8932137" lon="11.0837131"><ele>865.3333333333333</ele><time>2026-04-30T16:45:05.89Z</time></trkpt><trkpt lat="45.8931297" lon="11.0837414"><ele>868.1666666666666</ele><time>2026-04-30T16:45:06.89Z</time></trkpt><trkpt lat="45.8930599" lon="11.0837734"><ele>871.0</ele><time>2026-04-30T16:45:07.891Z</time></trkpt><trkpt lat="45.8929757" lon="11.0838515"><ele>870.9999999999999</ele><time>2026-04-30T16:45:09.89Z</time></trkpt><trkpt lat="45.8929281" lon="11.0839119"><ele>871.0</ele><time>2026-04-30T16:45:10.891Z</time></trkpt><trkpt lat="45.8928815" lon="11.0840071"><ele>871.0</ele><time>2026-04-30T16:45:12.89Z</time></trkpt><trkpt lat="45.8929691" lon="11.0841066"><ele>871.0</ele><time>2026-04-30T16:45:15.891Z</time></trkpt><trkpt lat="45.8930779" lon="11.0841872"><ele>870.9999999999999</ele><time>2026-04-30T16:45:17.89Z</time></trkpt><trkpt lat="45.893138" lon="11.0842275"><ele>871.0</ele><time>2026-04-30T16:45:18.89Z</time></trkpt><trkpt lat="45.893203" lon="11.0843017"><ele>873.4</ele><time>2026-04-30T16:45:19.89Z</time></trkpt><trkpt lat="45.8932622" lon="11.0843782"><ele>875.8</ele><time>2026-04-30T16:45:20.891Z</time></trkpt><trkpt lat="45.8933258" lon="11.0844417"><ele>878.1999999999999</ele><time>2026-04-30T16:45:21.891Z</time></trkpt><trkpt lat="45.8934017" lon="11.0845059"><ele>880.5999999999999</ele><time>2026-04-30T16:45:22.891Z</time></trkpt><trkpt lat="45.8934952" lon="11.0845746"><ele>883.0</ele><time>2026-04-30T16:45:23.89Z</time></trkpt><trkpt lat="45.8935922" lon="11.0846446"><ele>882.9999999999999</ele><time>2026-04-30T16:45:24.89Z</time></trkpt><trkpt lat="45.8936723" lon="11.0847095"><ele>883.0</ele><time>2026-04-30T16:45:25.89Z</time></trkpt><trkpt lat="45.8937399" lon="11.0847644"><ele>883.0</ele><time>2026-04-30T16:45:27.89Z</time></trkpt><trkpt lat="45.8937928" lon="11.0848164"><ele>883.0</ele><time>2026-04-30T16:45:37.89Z</time></trkpt><trkpt lat="45.8937347" lon="11.0847321"><ele>882.9999999999999</ele><time>2026-04-30T16:45:52.891Z</time></trkpt><trkpt lat="45.8936368" lon="11.0846832"><ele>883.0</ele><time>2026-04-30T16:45:54.89Z</time></trkpt><trkpt lat="45.8935495" lon="11.084606"><ele>883.0</ele><time>2026-04-30T16:45:56.89Z</time></trkpt><trkpt lat="45.8934534" lon="11.0845417"><ele>883.0</ele><time>2026-04-30T16:45:58.89Z</time></trkpt><trkpt lat="45.8933311" lon="11.0844556"><ele>883.0</ele><time>2026-04-30T16:46:00.89Z</time></trkpt><trkpt lat="45.8932602" lon="11.084406"><ele>883.0</ele><time>2026-04-30T16:46:01.89Z</time></trkpt><trkpt lat="45.8931591" lon="11.0843049"><ele>883.0</ele><time>2026-04-30T16:46:03.89Z</time></trkpt><trkpt lat="45.8930642" lon="11.084236"><ele>883.1666666666666</ele><time>2026-04-30T16:46:05.89Z</time></trkpt><trkpt lat="45.8929801" lon="11.0841556"><ele>883.3333333333333</ele><time>2026-04-30T16:46:07.891Z</time></trkpt><trkpt lat="45.8929025" lon="11.0840882"><ele>883.5</ele><time>2026-04-30T16:46:09.891Z</time></trkpt><trkpt lat="45.8928697" lon="11.0839966"><ele>883.6666666666667</ele><time>2026-04-30T16:46:12.89Z</time></trkpt><trkpt lat="45.8929058" lon="11.0839146"><ele>883.8333333333334</ele><time>2026-04-30T16:46:40.89Z</time></trkpt><trkpt lat="45.8929624" lon="11.0838516"><ele>884.0</ele><time>2026-04-30T16:46:41.891Z</time></trkpt><trkpt lat="45.8930407" lon="11.0837745"><ele>882.1428571428572</ele><time>2026-04-30T16:46:43.89Z</time></trkpt><trkpt lat="45.8931049" lon="11.0837532"><ele>880.2857142857143</ele><time>2026-04-30T16:46:44.891Z</time></trkpt><trkpt lat="45.8931683" lon="11.0837284"><ele>878.4285714285714</ele><time>2026-04-30T16:46:45.891Z</time></trkpt><trkpt lat="45.8932381" lon="11.0836875"><ele>876.5714285714287</ele><time>2026-04-30T16:46:46.89Z</time></trkpt><trkpt lat="45.8933011" lon="11.0836523"><ele>874.7142857142857</ele><time>2026-04-30T16:46:47.891Z</time></trkpt><trkpt lat="45.8933606" lon="11.0835958"><ele>872.8571428571429</ele><time>2026-04-30T16:46:48.89Z</time></trkpt><trkpt lat="45.8934152" lon="11.0835304"><ele>871.0</ele><time>2026-04-30T16:46:49.891Z</time></trkpt><trkpt lat="45.8934638" lon="11.0834701"><ele>871.0</ele><time>2026-04-30T16:46:50.89Z</time></trkpt><trkpt lat="45.8935325" lon="11.0833466"><ele>870.9999999999999</ele><time>2026-04-30T16:46:52.891Z</time></trkpt><trkpt lat="45.8936044" lon="11.0832325"><ele>870.9999999999999</ele><time>2026-04-30T16:46:54.891Z</time></trkpt><trkpt lat="45.8936842" lon="11.083172"><ele>871.0</ele><time>2026-04-30T16:46:56.89Z</time></trkpt><trkpt lat="45.8937446" lon="11.0831449"><ele>871.0</ele><time>2026-04-30T16:46:57.891Z</time></trkpt><trkpt lat="45.8938587" lon="11.0830793"><ele>868.5714285714286</ele><time>2026-04-30T16:46:59.89Z</time></trkpt><trkpt lat="45.8939402" lon="11.0830492"><ele>866.1428571428571</ele><time>2026-04-30T16:47:01.89Z</time></trkpt><trkpt lat="45.8939757" lon="11.0829734"><ele>863.7142857142858</ele><time>2026-04-30T16:47:03.89Z</time></trkpt><trkpt lat="45.8939622" lon="11.0828751"><ele>861.2857142857142</ele><time>2026-04-30T16:47:07.89Z</time></trkpt><trkpt lat="45.8939317" lon="11.0827927"><ele>858.8571428571429</ele><time>2026-04-30T16:47:10.89Z</time></trkpt><trkpt lat="45.8939641" lon="11.082878"><ele>856.4285714285714</ele><time>2026-04-30T16:47:18.89Z</time></trkpt><trkpt lat="45.8939794" lon="11.0829808"><ele>854.0</ele><time>2026-04-30T16:47:21.891Z</time></trkpt><trkpt lat="45.8939438" lon="11.0830672"><ele>854.0000000000001</ele><time>2026-04-30T16:47:23.89Z</time></trkpt><trkpt lat="45.8938532" lon="11.0830985"><ele>854.0</ele><time>2026-04-30T16:47:25.89Z</time></trkpt><trkpt lat="45.8937341" lon="11.0831733"><ele>854.0</ele><time>2026-04-30T16:47:27.89Z</time></trkpt><trkpt lat="45.8936691" lon="11.0832056"><ele>854.0</ele><time>2026-04-30T16:47:28.89Z</time></trkpt><trkpt lat="45.8935988" lon="11.083258"><ele>854.0000000000001</ele><time>2026-04-30T16:47:30.89Z</time></trkpt><trkpt lat="45.893563" lon="11.0833395"><ele>854.0</ele><time>2026-04-30T16:47:32.891Z</time></trkpt><trkpt lat="45.8936478" lon="11.0832267"><ele>854.0</ele><time>2026-04-30T16:47:49.89Z</time></trkpt><trkpt lat="45.8937457" lon="11.0831743"><ele>854.0000000000001</ele><time>2026-04-30T16:47:51.891Z</time></trkpt><trkpt lat="45.8938615" lon="11.0831111"><ele>854.0000000000001</ele><time>2026-04-30T16:47:53.89Z</time></trkpt><trkpt lat="45.8939567" lon="11.0830448"><ele>854.0</ele><time>2026-04-30T16:47:55.89Z</time></trkpt><trkpt lat="45.8939968" lon="11.0829099"><ele>854.0</ele><time>2026-04-30T16:47:57.89Z</time></trkpt><trkpt lat="45.8940178" lon="11.082757"><ele>854.0000000000001</ele><time>2026-04-30T16:47:59.891Z</time></trkpt><trkpt lat="45.8940466" lon="11.0826261"><ele>854.0</ele><time>2026-04-30T16:48:01.89Z</time></trkpt><trkpt lat="45.8940555" lon="11.0825332"><ele>854.0</ele><time>2026-04-30T16:48:06.89Z</time></trkpt><trkpt lat="45.8940414" lon="11.0826236"><ele>854.0</ele><time>2026-04-30T16:48:41.89Z</time></trkpt><trkpt lat="45.8940189" lon="11.0827655"><ele>854.0000000000001</ele><time>2026-04-30T16:49:10.891Z</time></trkpt><trkpt lat="45.8940131" lon="11.0828677"><ele>854.0</ele><time>2026-04-30T16:49:11.89Z</time></trkpt><trkpt lat="45.8939688" lon="11.0829903"><ele>854.0</ele><time>2026-04-30T16:49:12.891Z</time></trkpt><trkpt lat="45.893892" lon="11.083103"><ele>854.0000000000001</ele><time>2026-04-30T16:49:14.891Z</time></trkpt><trkpt lat="45.8938029" lon="11.0831677"><ele>854.0000000000001</ele><time>2026-04-30T16:49:15.891Z</time></trkpt><trkpt lat="45.8937152" lon="11.0832177"><ele>854.0</ele><time>2026-04-30T16:49:16.89Z</time></trkpt><trkpt lat="45.8936263" lon="11.0832528"><ele>854.0</ele><time>2026-04-30T16:49:17.89Z</time></trkpt><trkpt lat="45.8935383" lon="11.0834006"><ele>857.4000000000001</ele><time>2026-04-30T16:49:19.89Z</time></trkpt><trkpt lat="45.8934491" lon="11.0835106"><ele>860.8000000000001</ele><time>2026-04-30T16:49:20.89Z</time></trkpt><trkpt lat="45.893366" lon="11.0836175"><ele>864.1999999999999</ele><time>2026-04-30T16:49:21.891Z</time></trkpt><trkpt lat="45.8932936" lon="11.0836935"><ele>867.5999999999999</ele><time>2026-04-30T16:49:22.89Z</time></trkpt><trkpt lat="45.8932249" lon="11.0837334"><ele>871.0</ele><time>2026-04-30T16:49:23.89Z</time></trkpt><trkpt lat="45.8931376" lon="11.0837682"><ele>870.9999999999999</ele><time>2026-04-30T16:49:24.89Z</time></trkpt><trkpt lat="45.8930617" lon="11.0837902"><ele>871.0</ele><time>2026-04-30T16:49:25.891Z</time></trkpt><trkpt lat="45.892975" lon="11.0838788"><ele>871.0</ele><time>2026-04-30T16:49:27.89Z</time></trkpt><trkpt lat="45.8929167" lon="11.0839346"><ele>871.0</ele><time>2026-04-30T16:49:28.891Z</time></trkpt><trkpt lat="45.8928874" lon="11.0840246"><ele>870.9999999999999</ele><time>2026-04-30T16:49:30.89Z</time></trkpt><trkpt lat="45.8929611" lon="11.0841149"><ele>871.0</ele><time>2026-04-30T16:49:33.89Z</time></trkpt><trkpt lat="45.8930644" lon="11.0842097"><ele>873.4</ele><time>2026-04-30T16:49:35.89Z</time></trkpt><trkpt lat="45.8931413" lon="11.0842697"><ele>875.8</ele><time>2026-04-30T16:49:36.891Z</time></trkpt><trkpt lat="45.8932136" lon="11.0843456"><ele>878.1999999999999</ele><time>2026-04-30T16:49:37.89Z</time></trkpt><trkpt lat="45.8933024" lon="11.0844256"><ele>880.5999999999999</ele><time>2026-04-30T16:49:38.89Z</time></trkpt><trkpt lat="45.8933905" lon="11.0844959"><ele>883.0</ele><time>2026-04-30T16:49:39.891Z</time></trkpt><trkpt lat="45.8934743" lon="11.0845566"><ele>883.0</ele><time>2026-04-30T16:49:40.891Z</time></trkpt><trkpt lat="45.8935575" lon="11.0846258"><ele>883.0</ele><time>2026-04-30T16:49:41.89Z</time></trkpt><trkpt lat="45.8936359" lon="11.0846795"><ele>883.0</ele><time>2026-04-30T16:49:42.89Z</time></trkpt><trkpt lat="45.8937347" lon="11.0847533"><ele>883.0</ele><time>2026-04-30T16:49:44.89Z</time></trkpt><trkpt lat="45.893839" lon="11.0848716"><ele>883.0</ele><time>2026-04-30T16:49:46.891Z</time></trkpt><trkpt lat="45.8938986" lon="11.084945"><ele>885.0</ele><time>2026-04-30T16:49:47.89Z</time></trkpt><trkpt lat="45.8939946" lon="11.0850702"><ele>887.0</ele><time>2026-04-30T16:49:49.891Z</time></trkpt><trkpt lat="45.8940592" lon="11.0851307"><ele>889.0</ele><time>2026-04-30T16:49:50.891Z</time></trkpt><trkpt lat="45.8941341" lon="11.0851788"><ele>891.0</ele><time>2026-04-30T16:49:51.89Z</time></trkpt><trkpt lat="45.8942177" lon="11.0852215"><ele>893.0</ele><time>2026-04-30T16:49:52.891Z</time></trkpt><trkpt lat="45.8943011" lon="11.0852532"><ele>893.4</ele><time>2026-04-30T16:49:53.891Z</time></trkpt><trkpt lat="45.8943912" lon="11.0852756"><ele>893.8</ele><time>2026-04-30T16:49:54.891Z</time></trkpt><trkpt lat="45.8944866" lon="11.0852753"><ele>894.2</ele><time>2026-04-30T16:49:55.891Z</time></trkpt><trkpt lat="45.8945598" lon="11.0852726"><ele>894.6</ele><time>2026-04-30T16:49:56.89Z</time></trkpt><trkpt lat="45.8946848" lon="11.0853201"><ele>895.0</ele><time>2026-04-30T16:49:58.891Z</time></trkpt><trkpt lat="45.8947621" lon="11.0853727"><ele>894.9999999999999</ele><time>2026-04-30T16:49:59.89Z</time></trkpt><trkpt lat="45.8948507" lon="11.0854296"><ele>895.0</ele><time>2026-04-30T16:50:00.891Z</time></trkpt><trkpt lat="45.8949348" lon="11.0854668"><ele>895.0</ele><time>2026-04-30T16:50:01.89Z</time></trkpt><trkpt lat="45.895012" lon="11.0854957"><ele>895.0</ele><time>2026-04-30T16:50:02.89Z</time></trkpt><trkpt lat="45.8951011" lon="11.0854912"><ele>894.9999999999999</ele><time>2026-04-30T16:50:03.891Z</time></trkpt><trkpt lat="45.8951867" lon="11.0854986"><ele>895.0</ele><time>2026-04-30T16:50:04.89Z</time></trkpt><trkpt lat="45.8952581" lon="11.0855193"><ele>895.6</ele><time>2026-04-30T16:50:05.89Z</time></trkpt><trkpt lat="45.8953384" lon="11.0855602"><ele>896.2</ele><time>2026-04-30T16:50:06.891Z</time></trkpt><trkpt lat="45.895435" lon="11.0856209"><ele>896.8</ele><time>2026-04-30T16:50:07.891Z</time></trkpt><trkpt lat="45.8955156" lon="11.0856954"><ele>897.4</ele><time>2026-04-30T16:50:08.891Z</time></trkpt><trkpt lat="45.8955682" lon="11.0857582"><ele>898.0</ele><time>2026-04-30T16:50:09.891Z</time></trkpt><trkpt lat="45.8956575" lon="11.0858999"><ele>901.4</ele><time>2026-04-30T16:50:11.89Z</time></trkpt><trkpt lat="45.8956567" lon="11.0860702"><ele>904.8</ele><time>2026-04-30T16:50:13.89Z</time></trkpt><trkpt lat="45.8956248" lon="11.0862159"><ele>908.2</ele><time>2026-04-30T16:50:15.89Z</time></trkpt><trkpt lat="45.8956842" lon="11.0863255"><ele>911.6</ele><time>2026-04-30T16:50:17.89Z</time></trkpt><trkpt lat="45.8958075" lon="11.0863291"><ele>915.0</ele><time>2026-04-30T16:50:19.89Z</time></trkpt><trkpt lat="45.8958755" lon="11.086301"><ele>915.6666666666666</ele><time>2026-04-30T16:50:20.89Z</time></trkpt><trkpt lat="45.8959435" lon="11.0862429"><ele>916.3333333333333</ele><time>2026-04-30T16:50:21.89Z</time></trkpt><trkpt lat="45.8960124" lon="11.0861664"><ele>917.0</ele><time>2026-04-30T16:50:22.89Z</time></trkpt><trkpt lat="45.896085" lon="11.0860974"><ele>917.6666666666666</ele><time>2026-04-30T16:50:23.89Z</time></trkpt><trkpt lat="45.8961621" lon="11.0860405"><ele>918.3333333333333</ele><time>2026-04-30T16:50:24.89Z</time></trkpt><trkpt lat="45.8962367" lon="11.0859983"><ele>919.0</ele><time>2026-04-30T16:50:25.891Z</time></trkpt><trkpt lat="45.8963033" lon="11.0859778"><ele>918.9999999999999</ele><time>2026-04-30T16:50:26.891Z</time></trkpt><trkpt lat="45.8963692" lon="11.0859714"><ele>919.0</ele><time>2026-04-30T16:50:27.891Z</time></trkpt><trkpt lat="45.8964434" lon="11.0859873"><ele>919.0</ele><time>2026-04-30T16:50:28.891Z</time></trkpt><trkpt lat="45.8965233" lon="11.086024"><ele>919.0</ele><time>2026-04-30T16:50:29.891Z</time></trkpt><trkpt lat="45.8966097" lon="11.0860607"><ele>918.9999999999999</ele><time>2026-04-30T16:50:30.891Z</time></trkpt><trkpt lat="45.8967051" lon="11.0860768"><ele>919.0</ele><time>2026-04-30T16:50:31.891Z</time></trkpt><trkpt lat="45.8968066" lon="11.0860748"><ele>918.3333333333333</ele><time>2026-04-30T16:50:32.89Z</time></trkpt><trkpt lat="45.8969013" lon="11.0860672"><ele>917.6666666666666</ele><time>2026-04-30T16:50:33.891Z</time></trkpt><trkpt lat="45.8969802" lon="11.0860567"><ele>917.0</ele><time>2026-04-30T16:50:34.89Z</time></trkpt><trkpt lat="45.8970503" lon="11.0860452"><ele>916.3333333333333</ele><time>2026-04-30T16:50:35.891Z</time></trkpt><trkpt lat="45.8971266" lon="11.0860346"><ele>915.6666666666666</ele><time>2026-04-30T16:50:36.89Z</time></trkpt><trkpt lat="45.8972059" lon="11.0860369"><ele>915.0</ele><time>2026-04-30T16:50:37.891Z</time></trkpt><trkpt lat="45.8972911" lon="11.086052"><ele>915.0</ele><time>2026-04-30T16:50:38.89Z</time></trkpt><trkpt lat="45.8973769" lon="11.0860824"><ele>915.0</ele><time>2026-04-30T16:50:39.891Z</time></trkpt><trkpt lat="45.8974556" lon="11.0861256"><ele>915.0</ele><time>2026-04-30T16:50:40.891Z</time></trkpt><trkpt lat="45.8975232" lon="11.0861587"><ele>915.0</ele><time>2026-04-30T16:50:41.89Z</time></trkpt><trkpt lat="45.8975971" lon="11.0861893"><ele>915.0</ele><time>2026-04-30T16:50:42.891Z</time></trkpt><trkpt lat="45.8976727" lon="11.0862052"><ele>915.0</ele><time>2026-04-30T16:50:43.89Z</time></trkpt><trkpt lat="45.8977596" lon="11.0862137"><ele>914.6</ele><time>2026-04-30T16:50:44.892Z</time></trkpt><trkpt lat="45.8978536" lon="11.0862258"><ele>914.2</ele><time>2026-04-30T16:50:45.89Z</time></trkpt><trkpt lat="45.8979569" lon="11.0862389"><ele>913.8</ele><time>2026-04-30T16:50:46.89Z</time></trkpt><trkpt lat="45.8980655" lon="11.0862536"><ele>913.4</ele><time>2026-04-30T16:50:47.891Z</time></trkpt><trkpt lat="45.8981664" lon="11.0862656"><ele>913.0</ele><time>2026-04-30T16:50:48.89Z</time></trkpt><trkpt lat="45.8982533" lon="11.0862793"><ele>913.0</ele><time>2026-04-30T16:50:49.89Z</time></trkpt><trkpt lat="45.8983468" lon="11.0863125"><ele>913.0</ele><time>2026-04-30T16:50:50.89Z</time></trkpt><trkpt lat="45.8984304" lon="11.0863664"><ele>913.0</ele><time>2026-04-30T16:50:51.891Z</time></trkpt><trkpt lat="45.8985115" lon="11.0864107"><ele>913.0</ele><time>2026-04-30T16:50:52.89Z</time></trkpt><trkpt lat="45.8986022" lon="11.0864303"><ele>913.0</ele><time>2026-04-30T16:50:53.891Z</time></trkpt><trkpt lat="45.8986915" lon="11.086405"><ele>913.2</ele><time>2026-04-30T16:50:54.89Z</time></trkpt><trkpt lat="45.8987952" lon="11.0863836"><ele>913.4</ele><time>2026-04-30T16:50:55.89Z</time></trkpt><trkpt lat="45.8988911" lon="11.0863504"><ele>913.6000000000001</ele><time>2026-04-30T16:50:56.891Z</time></trkpt><trkpt lat="45.8989833" lon="11.0863209"><ele>913.8000000000001</ele><time>2026-04-30T16:50:57.89Z</time></trkpt><trkpt lat="45.8990785" lon="11.0863106"><ele>914.0</ele><time>2026-04-30T16:50:58.89Z</time></trkpt><trkpt lat="45.8991792" lon="11.0863099"><ele>911.8333333333334</ele><time>2026-04-30T16:50:59.891Z</time></trkpt><trkpt lat="45.8992783" lon="11.0863214"><ele>909.6666666666667</ele><time>2026-04-30T16:51:00.89Z</time></trkpt><trkpt lat="45.8993713" lon="11.0863389"><ele>907.5</ele><time>2026-04-30T16:51:01.891Z</time></trkpt><trkpt lat="45.8994583" lon="11.0863658"><ele>905.3333333333333</ele><time>2026-04-30T16:51:02.89Z</time></trkpt><trkpt lat="45.8995379" lon="11.0864066"><ele>903.1666666666666</ele><time>2026-04-30T16:51:03.89Z</time></trkpt><trkpt lat="45.8996032" lon="11.086477"><ele>901.0</ele><time>2026-04-30T16:51:04.89Z</time></trkpt><trkpt lat="45.8996597" lon="11.0865699"><ele>902.1999999999999</ele><time>2026-04-30T16:51:05.891Z</time></trkpt><trkpt lat="45.8997032" lon="11.086671"><ele>903.3999999999999</ele><time>2026-04-30T16:51:06.89Z</time></trkpt><trkpt lat="45.899734" lon="11.0867907"><ele>904.6</ele><time>2026-04-30T16:51:07.89Z</time></trkpt><trkpt lat="45.8997568" lon="11.0869229"><ele>905.8</ele><time>2026-04-30T16:51:08.891Z</time></trkpt><trkpt lat="45.8997724" lon="11.0870626"><ele>907.0</ele><time>2026-04-30T16:51:09.89Z</time></trkpt><trkpt lat="45.8997758" lon="11.0872086"><ele>907.0</ele><time>2026-04-30T16:51:10.89Z</time></trkpt><trkpt lat="45.8997936" lon="11.0873537"><ele>907.0</ele><time>2026-04-30T16:51:11.89Z</time></trkpt><trkpt lat="45.899827" lon="11.0874989"><ele>907.0</ele><time>2026-04-30T16:51:12.891Z</time></trkpt><trkpt lat="45.8998713" lon="11.087641"><ele>907.0</ele><time>2026-04-30T16:51:13.891Z</time></trkpt><trkpt lat="45.8999147" lon="11.087782"><ele>907.0</ele><time>2026-04-30T16:51:14.89Z</time></trkpt><trkpt lat="45.8999417" lon="11.0879263"><ele>907.6666666666666</ele><time>2026-04-30T16:51:15.891Z</time></trkpt><trkpt lat="45.8999705" lon="11.0880552"><ele>908.3333333333333</ele><time>2026-04-30T16:51:16.89Z</time></trkpt><trkpt lat="45.8999979" lon="11.0881596"><ele>909.0</ele><time>2026-04-30T16:51:17.89Z</time></trkpt><trkpt lat="45.9000572" lon="11.0882126"><ele>909.6666666666667</ele><time>2026-04-30T16:51:18.89Z</time></trkpt><trkpt lat="45.9001338" lon="11.0882517"><ele>910.3333333333334</ele><time>2026-04-30T16:51:19.891Z</time></trkpt><trkpt lat="45.9002213" lon="11.088259"><ele>911.0</ele><time>2026-04-30T16:51:20.891Z</time></trkpt><trkpt lat="45.9003275" lon="11.0882664"><ele>911.0</ele><time>2026-04-30T16:51:21.89Z</time></trkpt><trkpt lat="45.9004249" lon="11.088275"><ele>910.9999999999999</ele><time>2026-04-30T16:51:22.891Z</time></trkpt><trkpt lat="45.9005222" lon="11.0882914"><ele>910.9999999999999</ele><time>2026-04-30T16:51:23.891Z</time></trkpt><trkpt lat="45.9006106" lon="11.0883149"><ele>911.0</ele><time>2026-04-30T16:51:24.89Z</time></trkpt><trkpt lat="45.9006782" lon="11.0883627"><ele>911.0</ele><time>2026-04-30T16:51:25.891Z</time></trkpt><trkpt lat="45.9007516" lon="11.0885059"><ele>911.0</ele><time>2026-04-30T16:51:27.891Z</time></trkpt><trkpt lat="45.900775" lon="11.0886379"><ele>911.0</ele><time>2026-04-30T16:51:28.891Z</time></trkpt><trkpt lat="45.90081" lon="11.0887934"><ele>911.0</ele><time>2026-04-30T16:51:29.89Z</time></trkpt><trkpt lat="45.90086" lon="11.0889567"><ele>911.0</ele><time>2026-04-30T16:51:30.891Z</time></trkpt><trkpt lat="45.9009255" lon="11.0891163"><ele>907.0</ele><time>2026-04-30T16:51:31.891Z</time></trkpt><trkpt lat="45.9009821" lon="11.0892676"><ele>902.9999999999999</ele><time>2026-04-30T16:51:32.89Z</time></trkpt><trkpt lat="45.9010289" lon="11.0894081"><ele>898.9999999999999</ele><time>2026-04-30T16:51:33.89Z</time></trkpt><trkpt lat="45.9010725" lon="11.0895211"><ele>895.0</ele><time>2026-04-30T16:51:34.891Z</time></trkpt><trkpt lat="45.9011271" lon="11.0896127"><ele>891.0</ele><time>2026-04-30T16:51:35.89Z</time></trkpt><trkpt lat="45.9011906" lon="11.0896968"><ele>891.0</ele><time>2026-04-30T16:51:36.89Z</time></trkpt><trkpt lat="45.9012882" lon="11.0897457"><ele>890.9999999999999</ele><time>2026-04-30T16:51:37.89Z</time></trkpt><trkpt lat="45.901381" lon="11.0897299"><ele>890.9999999999999</ele><time>2026-04-30T16:51:38.89Z</time></trkpt><trkpt lat="45.9014461" lon="11.0897742"><ele>891.0</ele><time>2026-04-30T16:51:39.89Z</time></trkpt><trkpt lat="45.901521" lon="11.0898602"><ele>891.0</ele><time>2026-04-30T16:51:40.89Z</time></trkpt><trkpt lat="45.9015949" lon="11.089969"><ele>891.8</ele><time>2026-04-30T16:51:41.89Z</time></trkpt><trkpt lat="45.9016792" lon="11.0901009"><ele>892.5999999999999</ele><time>2026-04-30T16:51:42.89Z</time></trkpt><trkpt lat="45.9017538" lon="11.0902369"><ele>893.4</ele><time>2026-04-30T16:51:43.89Z</time></trkpt><trkpt lat="45.9018117" lon="11.0903246"><ele>894.2</ele><time>2026-04-30T16:51:44.89Z</time></trkpt><trkpt lat="45.9018803" lon="11.0903748"><ele>895.0</ele><time>2026-04-30T16:51:45.89Z</time></trkpt><trkpt lat="45.9019688" lon="11.090401"><ele>895.0</ele><time>2026-04-30T16:51:46.891Z</time></trkpt><trkpt lat="45.9020464" lon="11.0903954"><ele>895.0</ele><time>2026-04-30T16:51:47.891Z</time></trkpt><trkpt lat="45.9021259" lon="11.0904072"><ele>895.0</ele><time>2026-04-30T16:51:48.89Z</time></trkpt><trkpt lat="45.9022177" lon="11.0904561"><ele>895.0</ele><time>2026-04-30T16:51:49.89Z</time></trkpt><trkpt lat="45.9023241" lon="11.0904899"><ele>895.0</ele><time>2026-04-30T16:51:50.89Z</time></trkpt><trkpt lat="45.9024337" lon="11.0905092"><ele>894.9999999999999</ele><time>2026-04-30T16:51:51.89Z</time></trkpt><trkpt lat="45.9025285" lon="11.09052"><ele>895.0</ele><time>2026-04-30T16:51:52.89Z</time></trkpt><trkpt lat="45.9026046" lon="11.0905269"><ele>895.0</ele><time>2026-04-30T16:51:53.89Z</time></trkpt><trkpt lat="45.9026705" lon="11.09056"><ele>895.0</ele><time>2026-04-30T16:51:54.89Z</time></trkpt><trkpt lat="45.902744" lon="11.0906146"><ele>894.9999999999999</ele><time>2026-04-30T16:51:55.891Z</time></trkpt><trkpt lat="45.9028092" lon="11.0907215"><ele>895.0</ele><time>2026-04-30T16:51:56.89Z</time></trkpt><trkpt lat="45.902888" lon="11.090824"><ele>895.6</ele><time>2026-04-30T16:51:57.891Z</time></trkpt><trkpt lat="45.9029712" lon="11.0909234"><ele>896.2</ele><time>2026-04-30T16:51:58.891Z</time></trkpt><trkpt lat="45.9030567" lon="11.0910149"><ele>896.8</ele><time>2026-04-30T16:51:59.89Z</time></trkpt><trkpt lat="45.9031499" lon="11.0911034"><ele>897.4</ele><time>2026-04-30T16:52:00.89Z</time></trkpt><trkpt lat="45.9032106" lon="11.0911904"><ele>898.0</ele><time>2026-04-30T16:52:01.89Z</time></trkpt><trkpt lat="45.9032907" lon="11.0912818"><ele>898.0</ele><time>2026-04-30T16:52:02.89Z</time></trkpt><trkpt lat="45.9033625" lon="11.0913769"><ele>898.0</ele><time>2026-04-30T16:52:03.89Z</time></trkpt><trkpt lat="45.903443" lon="11.0914487"><ele>898.0</ele><time>2026-04-30T16:52:04.89Z</time></trkpt><trkpt lat="45.9035326" lon="11.0915237"><ele>898.0</ele><time>2026-04-30T16:52:05.891Z</time></trkpt><trkpt lat="45.9036386" lon="11.09157"><ele>898.0</ele><time>2026-04-30T16:52:06.891Z</time></trkpt><trkpt lat="45.9037422" lon="11.0916239"><ele>896.8</ele><time>2026-04-30T16:52:07.891Z</time></trkpt><trkpt lat="45.9038507" lon="11.0916783"><ele>895.5999999999999</ele><time>2026-04-30T16:52:08.89Z</time></trkpt><trkpt lat="45.903949" lon="11.0917332"><ele>894.4000000000001</ele><time>2026-04-30T16:52:09.89Z</time></trkpt><trkpt lat="45.9040494" lon="11.0917918"><ele>893.2</ele><time>2026-04-30T16:52:10.89Z</time></trkpt><trkpt lat="45.9041469" lon="11.0918286"><ele>892.0</ele><time>2026-04-30T16:52:11.89Z</time></trkpt><trkpt lat="45.9042306" lon="11.0918538"><ele>887.4999999999999</ele><time>2026-04-30T16:52:12.89Z</time></trkpt><trkpt lat="45.9042934" lon="11.0918826"><ele>883.0</ele><time>2026-04-30T16:52:13.89Z</time></trkpt><trkpt lat="45.9043625" lon="11.0919439"><ele>878.5</ele><time>2026-04-30T16:52:14.89Z</time></trkpt><trkpt lat="45.9044336" lon="11.0920123"><ele>874.0</ele><time>2026-04-30T16:52:15.891Z</time></trkpt><trkpt lat="45.9044984" lon="11.092078"><ele>869.4999999999999</ele><time>2026-04-30T16:52:16.891Z</time></trkpt><trkpt lat="45.9045583" lon="11.0922107"><ele>865.0</ele><time>2026-04-30T16:52:18.89Z</time></trkpt><trkpt lat="45.9045535" lon="11.092303"><ele>865.0</ele><time>2026-04-30T16:52:19.89Z</time></trkpt><trkpt lat="45.9045389" lon="11.0923972"><ele>865.0</ele><time>2026-04-30T16:52:20.891Z</time></trkpt><trkpt lat="45.9045057" lon="11.0925053"><ele>865.0</ele><time>2026-04-30T16:52:21.89Z</time></trkpt><trkpt lat="45.9044508" lon="11.092642"><ele>865.0</ele><time>2026-04-30T16:52:22.89Z</time></trkpt><trkpt lat="45.9044089" lon="11.092784"><ele>865.0</ele><time>2026-04-30T16:52:23.89Z</time></trkpt><trkpt lat="45.9043927" lon="11.0929145"><ele>867.4</ele><time>2026-04-30T16:52:24.89Z</time></trkpt><trkpt lat="45.9043923" lon="11.0930444"><ele>869.8</ele><time>2026-04-30T16:52:25.891Z</time></trkpt><trkpt lat="45.9044425" lon="11.0931723"><ele>872.2</ele><time>2026-04-30T16:52:26.89Z</time></trkpt><trkpt lat="45.9044909" lon="11.0933032"><ele>874.6</ele><time>2026-04-30T16:52:27.891Z</time></trkpt><trkpt lat="45.904557" lon="11.0934405"><ele>877.0</ele><time>2026-04-30T16:52:28.891Z</time></trkpt><trkpt lat="45.9046324" lon="11.0935994"><ele>878.75</ele><time>2026-04-30T16:52:29.891Z</time></trkpt><trkpt lat="45.9047095" lon="11.0937744"><ele>880.5</ele><time>2026-04-30T16:52:30.89Z</time></trkpt><trkpt lat="45.9047857" lon="11.0939433"><ele>882.25</ele><time>2026-04-30T16:52:31.891Z</time></trkpt><trkpt lat="45.9048511" lon="11.0940905"><ele>884.0</ele><time>2026-04-30T16:52:32.891Z</time></trkpt><trkpt lat="45.9049089" lon="11.094239"><ele>886.4000000000001</ele><time>2026-04-30T16:52:33.89Z</time></trkpt><trkpt lat="45.9049532" lon="11.0943792"><ele>888.8000000000001</ele><time>2026-04-30T16:52:34.89Z</time></trkpt><trkpt lat="45.9049927" lon="11.0945225"><ele>891.1999999999999</ele><time>2026-04-30T16:52:35.891Z</time></trkpt><trkpt lat="45.9050216" lon="11.0946671"><ele>893.5999999999999</ele><time>2026-04-30T16:52:36.89Z</time></trkpt><trkpt lat="45.905047" lon="11.0948129"><ele>896.0</ele><time>2026-04-30T16:52:37.89Z</time></trkpt><trkpt lat="45.90506" lon="11.0949644"><ele>899.8</ele><time>2026-04-30T16:52:38.889Z</time></trkpt><trkpt lat="45.9050599" lon="11.0951252"><ele>903.5999999999999</ele><time>2026-04-30T16:52:39.89Z</time></trkpt><trkpt lat="45.9050521" lon="11.0952929"><ele>907.4</ele><time>2026-04-30T16:52:40.891Z</time></trkpt><trkpt lat="45.9050466" lon="11.0954487"><ele>911.2</ele><time>2026-04-30T16:52:41.89Z</time></trkpt><trkpt lat="45.9050579" lon="11.095596"><ele>915.0</ele><time>2026-04-30T16:52:42.89Z</time></trkpt><trkpt lat="45.9050916" lon="11.0957412"><ele>911.2</ele><time>2026-04-30T16:52:43.89Z</time></trkpt><trkpt lat="45.9051333" lon="11.0958876"><ele>907.4</ele><time>2026-04-30T16:52:44.891Z</time></trkpt><trkpt lat="45.9051806" lon="11.0960076"><ele>903.5999999999999</ele><time>2026-04-30T16:52:45.89Z</time></trkpt><trkpt lat="45.9052473" lon="11.096105"><ele>899.8</ele><time>2026-04-30T16:52:46.89Z</time></trkpt><trkpt lat="45.9053214" lon="11.0961954"><ele>896.0</ele><time>2026-04-30T16:52:47.891Z</time></trkpt><trkpt lat="45.9053912" lon="11.096297"><ele>896.0</ele><time>2026-04-30T16:52:48.89Z</time></trkpt><trkpt lat="45.9054622" lon="11.0964036"><ele>895.9999999999999</ele><time>2026-04-30T16:52:49.89Z</time></trkpt><trkpt lat="45.9055248" lon="11.0965204"><ele>895.9999999999999</ele><time>2026-04-30T16:52:50.891Z</time></trkpt><trkpt lat="45.9055839" lon="11.0966344"><ele>896.0</ele><time>2026-04-30T16:52:51.89Z</time></trkpt><trkpt lat="45.9056489" lon="11.0967458"><ele>896.0</ele><time>2026-04-30T16:52:52.891Z</time></trkpt><trkpt lat="45.9057237" lon="11.0968672"><ele>894.0</ele><time>2026-04-30T16:52:53.891Z</time></trkpt><trkpt lat="45.9057869" lon="11.0969946"><ele>891.9999999999999</ele><time>2026-04-30T16:52:54.89Z</time></trkpt><trkpt lat="45.9058473" lon="11.0971075"><ele>889.9999999999999</ele><time>2026-04-30T16:52:55.89Z</time></trkpt><trkpt lat="45.9058928" lon="11.0972433"><ele>888.0</ele><time>2026-04-30T16:52:56.891Z</time></trkpt><trkpt lat="45.9059356" lon="11.0974073"><ele>886.0</ele><time>2026-04-30T16:52:57.891Z</time></trkpt><trkpt lat="45.905982" lon="11.0975778"><ele>891.5</ele><time>2026-04-30T16:52:58.891Z</time></trkpt><trkpt lat="45.9060378" lon="11.0977492"><ele>897.0</ele><time>2026-04-30T16:52:59.891Z</time></trkpt><trkpt lat="45.9060983" lon="11.0979258"><ele>902.5</ele><time>2026-04-30T16:53:00.89Z</time></trkpt><trkpt lat="45.906176" lon="11.0980942"><ele>908.0</ele><time>2026-04-30T16:53:01.89Z</time></trkpt><trkpt lat="45.906249" lon="11.0982396"><ele>912.4</ele><time>2026-04-30T16:53:02.89Z</time></trkpt><trkpt lat="45.9063058" lon="11.098352"><ele>916.8</ele><time>2026-04-30T16:53:03.89Z</time></trkpt><trkpt lat="45.9063533" lon="11.0984683"><ele>921.2</ele><time>2026-04-30T16:53:04.891Z</time></trkpt><trkpt lat="45.9063835" lon="11.0986157"><ele>925.6</ele><time>2026-04-30T16:53:05.891Z</time></trkpt><trkpt lat="45.9064354" lon="11.0987682"><ele>930.0</ele><time>2026-04-30T16:53:06.89Z</time></trkpt><trkpt lat="45.9065044" lon="11.0989157"><ele>930.0</ele><time>2026-04-30T16:53:07.89Z</time></trkpt><trkpt lat="45.9065565" lon="11.099028"><ele>930.0</ele><time>2026-04-30T16:53:08.891Z</time></trkpt><trkpt lat="45.9065961" lon="11.0991022"><ele>930.0</ele><time>2026-04-30T16:53:09.89Z</time></trkpt><trkpt lat="45.9066031" lon="11.0992896"><ele>930.0</ele><time>2026-04-30T16:53:11.891Z</time></trkpt><trkpt lat="45.9065895" lon="11.0994051"><ele>930.0</ele><time>2026-04-30T16:53:12.89Z</time></trkpt><trkpt lat="45.9065836" lon="11.0995481"><ele>933.75</ele><time>2026-04-30T16:53:13.891Z</time></trkpt><trkpt lat="45.9065976" lon="11.0997092"><ele>937.5</ele><time>2026-04-30T16:53:14.891Z</time></trkpt><trkpt lat="45.906635" lon="11.0998755"><ele>941.25</ele><time>2026-04-30T16:53:15.89Z</time></trkpt><trkpt lat="45.9066928" lon="11.1000225"><ele>945.0</ele><time>2026-04-30T16:53:16.891Z</time></trkpt><trkpt lat="45.906758" lon="11.1001537"><ele>945.0</ele><time>2026-04-30T16:53:17.89Z</time></trkpt><trkpt lat="45.9068075" lon="11.1002888"><ele>945.0</ele><time>2026-04-30T16:53:18.89Z</time></trkpt><trkpt lat="45.9068418" lon="11.1004032"><ele>945.0</ele><time>2026-04-30T16:53:19.891Z</time></trkpt><trkpt lat="45.9068797" lon="11.1004774"><ele>945.0</ele><time>2026-04-30T16:53:20.891Z</time></trkpt><trkpt lat="45.9069712" lon="11.1006093"><ele>945.0</ele><time>2026-04-30T16:53:22.89Z</time></trkpt><trkpt lat="45.9070335" lon="11.1007238"><ele>949.1666666666666</ele><time>2026-04-30T16:53:23.891Z</time></trkpt><trkpt lat="45.9070913" lon="11.1008314"><ele>953.3333333333333</ele><time>2026-04-30T16:53:24.89Z</time></trkpt><trkpt lat="45.9071455" lon="11.1009117"><ele>957.5</ele><time>2026-04-30T16:53:25.89Z</time></trkpt><trkpt lat="45.9072109" lon="11.1009649"><ele>961.6666666666666</ele><time>2026-04-30T16:53:26.891Z</time></trkpt><trkpt lat="45.9072905" lon="11.1010154"><ele>965.8333333333333</ele><time>2026-04-30T16:53:27.891Z</time></trkpt><trkpt lat="45.9073762" lon="11.1010654"><ele>970.0</ele><time>2026-04-30T16:53:28.891Z</time></trkpt><trkpt lat="45.9074575" lon="11.1011312"><ele>969.9999999999999</ele><time>2026-04-30T16:53:29.891Z</time></trkpt><trkpt lat="45.9075264" lon="11.1011722"><ele>970.0</ele><time>2026-04-30T16:53:30.891Z</time></trkpt><trkpt lat="45.9075894" lon="11.101162"><ele>970.0</ele><time>2026-04-30T16:53:31.89Z</time></trkpt><trkpt lat="45.907673" lon="11.1011413"><ele>970.0</ele><time>2026-04-30T16:53:32.891Z</time></trkpt><trkpt lat="45.9077552" lon="11.1011011"><ele>969.9999999999999</ele><time>2026-04-30T16:53:33.891Z</time></trkpt><trkpt lat="45.9078781" lon="11.1010773"><ele>970.0</ele><time>2026-04-30T16:53:35.891Z</time></trkpt><trkpt lat="45.9079941" lon="11.1011448"><ele>965.4</ele><time>2026-04-30T16:53:37.891Z</time></trkpt><trkpt lat="45.9080625" lon="11.1012147"><ele>960.8</ele><time>2026-04-30T16:53:38.89Z</time></trkpt><trkpt lat="45.908144" lon="11.1013019"><ele>956.2</ele><time>2026-04-30T16:53:39.891Z</time></trkpt><trkpt lat="45.9082198" lon="11.1014005"><ele>951.6</ele><time>2026-04-30T16:53:40.89Z</time></trkpt><trkpt lat="45.9083056" lon="11.1014887"><ele>947.0</ele><time>2026-04-30T16:53:41.891Z</time></trkpt><trkpt lat="45.9084057" lon="11.1015717"><ele>950.4000000000001</ele><time>2026-04-30T16:53:42.89Z</time></trkpt><trkpt lat="45.9085062" lon="11.1016478"><ele>953.8000000000001</ele><time>2026-04-30T16:53:43.89Z</time></trkpt><trkpt lat="45.9086008" lon="11.1017258"><ele>957.2</ele><time>2026-04-30T16:53:44.891Z</time></trkpt><trkpt lat="45.9086907" lon="11.1017899"><ele>960.6</ele><time>2026-04-30T16:53:45.891Z</time></trkpt><trkpt lat="45.9087801" lon="11.1018404"><ele>964.0</ele><time>2026-04-30T16:53:46.89Z</time></trkpt><trkpt lat="45.9088713" lon="11.1018747"><ele>964.0</ele><time>2026-04-30T16:53:47.89Z</time></trkpt><trkpt lat="45.9089726" lon="11.101885"><ele>964.0000000000001</ele><time>2026-04-30T16:53:48.89Z</time></trkpt><trkpt lat="45.9090715" lon="11.10191"><ele>964.0000000000001</ele><time>2026-04-30T16:53:49.89Z</time></trkpt><trkpt lat="45.9091643" lon="11.1019265"><ele>964.0</ele><time>2026-04-30T16:53:50.891Z</time></trkpt><trkpt lat="45.9092834" lon="11.1018812"><ele>964.0</ele><time>2026-04-30T16:53:52.89Z</time></trkpt><trkpt lat="45.9093517" lon="11.1017915"><ele>965.1666666666666</ele><time>2026-04-30T16:53:53.89Z</time></trkpt><trkpt lat="45.9094222" lon="11.101685"><ele>966.3333333333333</ele><time>2026-04-30T16:53:54.891Z</time></trkpt><trkpt lat="45.9094788" lon="11.1015988"><ele>967.5</ele><time>2026-04-30T16:53:55.89Z</time></trkpt><trkpt lat="45.9095444" lon="11.101523"><ele>968.6666666666667</ele><time>2026-04-30T16:53:56.89Z</time></trkpt><trkpt lat="45.9096013" lon="11.101477"><ele>969.8333333333334</ele><time>2026-04-30T16:53:57.89Z</time></trkpt><trkpt lat="45.9096719" lon="11.1014454"><ele>971.0</ele><time>2026-04-30T16:53:58.89Z</time></trkpt><trkpt lat="45.909757" lon="11.1014274"><ele>963.1999999999999</ele><time>2026-04-30T16:53:59.89Z</time></trkpt><trkpt lat="45.9098586" lon="11.1014232"><ele>955.3999999999999</ele><time>2026-04-30T16:54:00.89Z</time></trkpt><trkpt lat="45.9099679" lon="11.1014294"><ele>947.6</ele><time>2026-04-30T16:54:01.891Z</time></trkpt><trkpt lat="45.9100699" lon="11.1014473"><ele>939.8</ele><time>2026-04-30T16:54:02.891Z</time></trkpt><trkpt lat="45.9101654" lon="11.1014696"><ele>932.0</ele><time>2026-04-30T16:54:03.891Z</time></trkpt><trkpt lat="45.910263" lon="11.101514"><ele>930.2</ele><time>2026-04-30T16:54:04.89Z</time></trkpt><trkpt lat="45.9103708" lon="11.1015627"><ele>928.4000000000001</ele><time>2026-04-30T16:54:05.891Z</time></trkpt><trkpt lat="45.9104826" lon="11.101602"><ele>926.5999999999999</ele><time>2026-04-30T16:54:06.891Z</time></trkpt><trkpt lat="45.9105801" lon="11.101642"><ele>924.8</ele><time>2026-04-30T16:54:07.89Z</time></trkpt><trkpt lat="45.9106862" lon="11.1016935"><ele>923.0</ele><time>2026-04-30T16:54:08.891Z</time></trkpt><trkpt lat="45.9107688" lon="11.1017313"><ele>928.8</ele><time>2026-04-30T16:54:09.89Z</time></trkpt><trkpt lat="45.9108409" lon="11.1017929"><ele>934.5999999999999</ele><time>2026-04-30T16:54:10.89Z</time></trkpt><trkpt lat="45.91092" lon="11.1019026"><ele>940.4000000000001</ele><time>2026-04-30T16:54:11.89Z</time></trkpt><trkpt lat="45.911009" lon="11.102025"><ele>946.2</ele><time>2026-04-30T16:54:12.89Z</time></trkpt><trkpt lat="45.9110926" lon="11.1021465"><ele>952.0</ele><time>2026-04-30T16:54:13.89Z</time></trkpt><trkpt lat="45.9111513" lon="11.1022411"><ele>951.9999999999999</ele><time>2026-04-30T16:54:14.891Z</time></trkpt><trkpt lat="45.9111971" lon="11.1023395"><ele>952.0</ele><time>2026-04-30T16:54:15.891Z</time></trkpt><trkpt lat="45.9112442" lon="11.1024461"><ele>952.0</ele><time>2026-04-30T16:54:16.89Z</time></trkpt><trkpt lat="45.9112899" lon="11.1025489"><ele>952.0</ele><time>2026-04-30T16:54:17.89Z</time></trkpt><trkpt lat="45.9113249" lon="11.1026565"><ele>951.9999999999999</ele><time>2026-04-30T16:54:18.89Z</time></trkpt><trkpt lat="45.9113436" lon="11.1027742"><ele>952.0</ele><time>2026-04-30T16:54:19.89Z</time></trkpt><trkpt lat="45.9113723" lon="11.1028928"><ele>954.6</ele><time>2026-04-30T16:54:20.89Z</time></trkpt><trkpt lat="45.9114631" lon="11.1030252"><ele>957.2</ele><time>2026-04-30T16:54:22.89Z</time></trkpt><trkpt lat="45.9115288" lon="11.1030929"><ele>959.8</ele><time>2026-04-30T16:54:23.89Z</time></trkpt><trkpt lat="45.9116514" lon="11.103094"><ele>962.4</ele><time>2026-04-30T16:54:24.89Z</time></trkpt><trkpt lat="45.9117256" lon="11.1031309"><ele>965.0</ele><time>2026-04-30T16:54:25.89Z</time></trkpt><trkpt lat="45.911805" lon="11.1031953"><ele>964.0000000000001</ele><time>2026-04-30T16:54:26.89Z</time></trkpt><trkpt lat="45.9118848" lon="11.103264"><ele>963.0</ele><time>2026-04-30T16:54:27.89Z</time></trkpt><trkpt lat="45.911972" lon="11.1032978"><ele>962.0</ele><time>2026-04-30T16:54:28.891Z</time></trkpt><trkpt lat="45.9120554" lon="11.1033159"><ele>961.0</ele><time>2026-04-30T16:54:29.891Z</time></trkpt><trkpt lat="45.912137" lon="11.1033269"><ele>960.0000000000001</ele><time>2026-04-30T16:54:30.891Z</time></trkpt><trkpt lat="45.9122098" lon="11.1033566"><ele>959.0</ele><time>2026-04-30T16:54:31.891Z</time></trkpt><trkpt lat="45.9122887" lon="11.1034165"><ele>959.0</ele><time>2026-04-30T16:54:32.891Z</time></trkpt><trkpt lat="45.9123837" lon="11.1034852"><ele>959.0000000000001</ele><time>2026-04-30T16:54:33.891Z</time></trkpt><trkpt lat="45.9124711" lon="11.1035317"><ele>959.0000000000001</ele><time>2026-04-30T16:54:34.891Z</time></trkpt><trkpt lat="45.9125624" lon="11.1035585"><ele>959.0</ele><time>2026-04-30T16:54:35.891Z</time></trkpt><trkpt lat="45.9126612" lon="11.1035585"><ele>959.0</ele><time>2026-04-30T16:54:36.89Z</time></trkpt><trkpt lat="45.9127722" lon="11.1035226"><ele>956.75</ele><time>2026-04-30T16:54:37.891Z</time></trkpt><trkpt lat="45.9128785" lon="11.1035084"><ele>954.5</ele><time>2026-04-30T16:54:38.89Z</time></trkpt><trkpt lat="45.9129792" lon="11.1035224"><ele>952.25</ele><time>2026-04-30T16:54:39.89Z</time></trkpt><trkpt lat="45.913098" lon="11.1035519"><ele>950.0</ele><time>2026-04-30T16:54:40.89Z</time></trkpt><trkpt lat="45.9132304" lon="11.103577"><ele>950.0</ele><time>2026-04-30T16:54:41.89Z</time></trkpt><trkpt lat="45.9133517" lon="11.1036109"><ele>950.0</ele><time>2026-04-30T16:54:42.89Z</time></trkpt><trkpt lat="45.9134706" lon="11.1036422"><ele>950.0</ele><time>2026-04-30T16:54:43.89Z</time></trkpt><trkpt lat="45.9135861" lon="11.1036629"><ele>950.0</ele><time>2026-04-30T16:54:44.89Z</time></trkpt><trkpt lat="45.9136933" lon="11.1036627"><ele>945.75</ele><time>2026-04-30T16:54:45.891Z</time></trkpt><trkpt lat="45.9138224" lon="11.1036526"><ele>941.5</ele><time>2026-04-30T16:54:46.891Z</time></trkpt><trkpt lat="45.9139561" lon="11.1036532"><ele>937.25</ele><time>2026-04-30T16:54:47.89Z</time></trkpt><trkpt lat="45.9140613" lon="11.1036644"><ele>933.0</ele><time>2026-04-30T16:54:48.89Z</time></trkpt><trkpt lat="45.9141684" lon="11.1036944"><ele>932.2</ele><time>2026-04-30T16:54:49.891Z</time></trkpt><trkpt lat="45.9142815" lon="11.1037467"><ele>931.4</ele><time>2026-04-30T16:54:50.89Z</time></trkpt><trkpt lat="45.9143873" lon="11.1037972"><ele>930.6000000000001</ele><time>2026-04-30T16:54:51.891Z</time></trkpt><trkpt lat="45.9144537" lon="11.1038558"><ele>929.8000000000001</ele><time>2026-04-30T16:54:52.89Z</time></trkpt><trkpt lat="45.9145112" lon="11.1039897"><ele>929.0</ele><time>2026-04-30T16:54:54.89Z</time></trkpt><trkpt lat="45.9145262" lon="11.1040839"><ele>929.0</ele><time>2026-04-30T16:54:55.891Z</time></trkpt><trkpt lat="45.9146072" lon="11.1040968"><ele>929.0</ele><time>2026-04-30T16:54:57.89Z</time></trkpt><trkpt lat="45.914721" lon="11.1040534"><ele>929.0</ele><time>2026-04-30T16:54:59.891Z</time></trkpt><trkpt lat="45.9148104" lon="11.1041243"><ele>929.0</ele><time>2026-04-30T16:55:01.89Z</time></trkpt><trkpt lat="45.914855" lon="11.1043296"><ele>931.0000000000001</ele><time>2026-04-30T16:55:03.891Z</time></trkpt><trkpt lat="45.9148832" lon="11.1044808"><ele>933.0</ele><time>2026-04-30T16:55:04.891Z</time></trkpt><trkpt lat="45.9149148" lon="11.1046187"><ele>935.0</ele><time>2026-04-30T16:55:05.891Z</time></trkpt><trkpt lat="45.9149451" lon="11.1047139"><ele>937.0</ele><time>2026-04-30T16:55:06.89Z</time></trkpt><trkpt lat="45.9149957" lon="11.1047913"><ele>939.0000000000001</ele><time>2026-04-30T16:55:07.89Z</time></trkpt><trkpt lat="45.9150625" lon="11.1048454"><ele>941.0</ele><time>2026-04-30T16:55:08.891Z</time></trkpt><trkpt lat="45.9151609" lon="11.1049012"><ele>943.0</ele><time>2026-04-30T16:55:09.89Z</time></trkpt><trkpt lat="45.9152534" lon="11.1049437"><ele>944.9999999999999</ele><time>2026-04-30T16:55:10.891Z</time></trkpt><trkpt lat="45.9153744" lon="11.1049924"><ele>946.9999999999999</ele><time>2026-04-30T16:55:11.89Z</time></trkpt><trkpt lat="45.9154731" lon="11.10503"><ele>949.0</ele><time>2026-04-30T16:55:12.89Z</time></trkpt><trkpt lat="45.915569" lon="11.1050851"><ele>951.0</ele><time>2026-04-30T16:55:13.89Z</time></trkpt><trkpt lat="45.9156636" lon="11.1051244"><ele>951.0</ele><time>2026-04-30T16:55:14.891Z</time></trkpt><trkpt lat="45.9157538" lon="11.1051582"><ele>950.9999999999999</ele><time>2026-04-30T16:55:15.891Z</time></trkpt><trkpt lat="45.915858" lon="11.1051991"><ele>950.9999999999999</ele><time>2026-04-30T16:55:16.89Z</time></trkpt><trkpt lat="45.9159517" lon="11.1052333"><ele>951.0</ele><time>2026-04-30T16:55:17.89Z</time></trkpt><trkpt lat="45.916057" lon="11.1052658"><ele>951.0</ele><time>2026-04-30T16:55:18.89Z</time></trkpt><trkpt lat="45.9161628" lon="11.1052625"><ele>949.3333333333334</ele><time>2026-04-30T16:55:19.89Z</time></trkpt><trkpt lat="45.916257" lon="11.1052741"><ele>947.6666666666667</ele><time>2026-04-30T16:55:20.891Z</time></trkpt><trkpt lat="45.9163497" lon="11.1052853"><ele>946.0</ele><time>2026-04-30T16:55:21.89Z</time></trkpt><trkpt lat="45.9164229" lon="11.1052912"><ele>944.3333333333334</ele><time>2026-04-30T16:55:22.89Z</time></trkpt><trkpt lat="45.9165344" lon="11.1052812"><ele>942.6666666666667</ele><time>2026-04-30T16:55:24.89Z</time></trkpt><trkpt lat="45.9164706" lon="11.1053173"><ele>941.0</ele><time>2026-04-30T16:59:45.891Z</time></trkpt><trkpt lat="45.9163948" lon="11.1053119"><ele>941.0</ele><time>2026-04-30T16:59:49.889Z</time></trkpt><trkpt lat="45.9163285" lon="11.1052917"><ele>940.9999999999999</ele><time>2026-04-30T17:00:07.89Z</time></trkpt><trkpt lat="45.9162272" lon="11.1052739"><ele>940.9999999999999</ele><time>2026-04-30T17:00:09.89Z</time></trkpt><trkpt lat="45.9161364" lon="11.1052695"><ele>941.0</ele><time>2026-04-30T17:00:10.89Z</time></trkpt><trkpt lat="45.9160338" lon="11.1052601"><ele>941.0</ele><time>2026-04-30T17:00:11.89Z</time></trkpt><trkpt lat="45.9159093" lon="11.1052151"><ele>943.5</ele><time>2026-04-30T17:00:12.89Z</time></trkpt><trkpt lat="45.9157834" lon="11.1051731"><ele>946.0</ele><time>2026-04-30T17:00:13.891Z</time></trkpt><trkpt lat="45.915665" lon="11.1051313"><ele>948.5</ele><time>2026-04-30T17:00:14.891Z</time></trkpt><trkpt lat="45.9155351" lon="11.1050833"><ele>951.0</ele><time>2026-04-30T17:00:15.891Z</time></trkpt><trkpt lat="45.9153898" lon="11.1050108"><ele>951.0</ele><time>2026-04-30T17:00:16.889Z</time></trkpt><trkpt lat="45.9152665" lon="11.1049401"><ele>950.9999999999999</ele><time>2026-04-30T17:00:17.891Z</time></trkpt><trkpt lat="45.9151444" lon="11.1048846"><ele>950.9999999999999</ele><time>2026-04-30T17:00:18.89Z</time></trkpt><trkpt lat="45.9150558" lon="11.1048323"><ele>951.0</ele><time>2026-04-30T17:00:19.89Z</time></trkpt><trkpt lat="45.9150017" lon="11.1047771"><ele>951.0</ele><time>2026-04-30T17:00:20.89Z</time></trkpt><trkpt lat="45.9149461" lon="11.104714"><ele>949.0</ele><time>2026-04-30T17:00:21.891Z</time></trkpt><trkpt lat="45.9149219" lon="11.1045827"><ele>946.9999999999999</ele><time>2026-04-30T17:00:22.891Z</time></trkpt><trkpt lat="45.9148945" lon="11.1044528"><ele>944.9999999999999</ele><time>2026-04-30T17:00:23.89Z</time></trkpt><trkpt lat="45.9148675" lon="11.1042891"><ele>943.0</ele><time>2026-04-30T17:00:24.89Z</time></trkpt><trkpt lat="45.9148321" lon="11.1041448"><ele>941.0</ele><time>2026-04-30T17:00:25.89Z</time></trkpt><trkpt lat="45.9148017" lon="11.1040616"><ele>941.0000000000001</ele><time>2026-04-30T17:00:26.891Z</time></trkpt><trkpt lat="45.9146947" lon="11.1040885"><ele>941.0</ele><time>2026-04-30T17:00:28.891Z</time></trkpt><trkpt lat="45.914632" lon="11.1040999"><ele>941.0</ele><time>2026-04-30T17:00:29.89Z</time></trkpt><trkpt lat="45.9145464" lon="11.1040402"><ele>941.0</ele><time>2026-04-30T17:00:31.891Z</time></trkpt><trkpt lat="45.9145108" lon="11.1039285"><ele>941.0000000000001</ele><time>2026-04-30T17:00:32.891Z</time></trkpt><trkpt lat="45.9144704" lon="11.103853"><ele>941.0</ele><time>2026-04-30T17:00:33.891Z</time></trkpt><trkpt lat="45.914384" lon="11.103793"><ele>939.0</ele><time>2026-04-30T17:00:34.891Z</time></trkpt><trkpt lat="45.9142938" lon="11.1037346"><ele>937.0</ele><time>2026-04-30T17:00:35.89Z</time></trkpt><trkpt lat="45.9141762" lon="11.1036961"><ele>935.0</ele><time>2026-04-30T17:00:36.889Z</time></trkpt><trkpt lat="45.9140656" lon="11.1036592"><ele>933.0</ele><time>2026-04-30T17:00:37.891Z</time></trkpt><trkpt lat="45.9139309" lon="11.103656"><ele>933.0</ele><time>2026-04-30T17:00:38.89Z</time></trkpt><trkpt lat="45.9137855" lon="11.103666"><ele>933.0</ele><time>2026-04-30T17:00:39.891Z</time></trkpt><trkpt lat="45.9136442" lon="11.1036676"><ele>933.0</ele><time>2026-04-30T17:00:40.89Z</time></trkpt><trkpt lat="45.913501" lon="11.1036675"><ele>933.0</ele><time>2026-04-30T17:00:41.89Z</time></trkpt><trkpt lat="45.9133462" lon="11.1036235"><ele>938.6666666666667</ele><time>2026-04-30T17:00:42.89Z</time></trkpt><trkpt lat="45.913162" lon="11.103566"><ele>944.3333333333334</ele><time>2026-04-30T17:00:43.891Z</time></trkpt><trkpt lat="45.9130091" lon="11.1035329"><ele>950.0</ele><time>2026-04-30T17:00:44.89Z</time></trkpt><trkpt lat="45.9128951" lon="11.103513"><ele>950.0</ele><time>2026-04-30T17:00:45.892Z</time></trkpt><trkpt lat="45.9127836" lon="11.1035118"><ele>950.0</ele><time>2026-04-30T17:00:46.89Z</time></trkpt><trkpt lat="45.9126598" lon="11.1035396"><ele>950.0</ele><time>2026-04-30T17:00:47.89Z</time></trkpt><trkpt lat="45.9125613" lon="11.1035369"><ele>950.0</ele><time>2026-04-30T17:00:48.891Z</time></trkpt><trkpt lat="45.912465" lon="11.1035172"><ele>950.0</ele><time>2026-04-30T17:00:49.891Z</time></trkpt><trkpt lat="45.9123532" lon="11.1034667"><ele>951.8</ele><time>2026-04-30T17:00:50.89Z</time></trkpt><trkpt lat="45.9122396" lon="11.1034115"><ele>953.6</ele><time>2026-04-30T17:00:51.89Z</time></trkpt><trkpt lat="45.9121337" lon="11.1033552"><ele>955.4000000000001</ele><time>2026-04-30T17:00:52.889Z</time></trkpt><trkpt lat="45.9120417" lon="11.1033206"><ele>957.2</ele><time>2026-04-30T17:00:53.89Z</time></trkpt><trkpt lat="45.9119357" lon="11.103291"><ele>959.0</ele><time>2026-04-30T17:00:54.89Z</time></trkpt><trkpt lat="45.9118532" lon="11.1032513"><ele>960.2</ele><time>2026-04-30T17:00:55.891Z</time></trkpt><trkpt lat="45.911766" lon="11.1031903"><ele>961.4000000000001</ele><time>2026-04-30T17:00:56.891Z</time></trkpt><trkpt lat="45.9116672" lon="11.10314"><ele>962.6</ele><time>2026-04-30T17:00:57.89Z</time></trkpt><trkpt lat="45.9115604" lon="11.103093"><ele>963.8</ele><time>2026-04-30T17:00:58.89Z</time></trkpt><trkpt lat="45.9114683" lon="11.1030376"><ele>965.0</ele><time>2026-04-30T17:00:59.89Z</time></trkpt><trkpt lat="45.9114067" lon="11.1029751"><ele>965.4</ele><time>2026-04-30T17:01:00.891Z</time></trkpt><trkpt lat="45.9113657" lon="11.102877"><ele>965.8</ele><time>2026-04-30T17:01:01.891Z</time></trkpt><trkpt lat="45.9113384" lon="11.1027443"><ele>966.2</ele><time>2026-04-30T17:01:02.889Z</time></trkpt><trkpt lat="45.9112996" lon="11.1025985"><ele>966.6</ele><time>2026-04-30T17:01:03.89Z</time></trkpt><trkpt lat="45.9112582" lon="11.1024554"><ele>967.0</ele><time>2026-04-30T17:01:04.89Z</time></trkpt><trkpt lat="45.9112172" lon="11.1023296"><ele>964.5</ele><time>2026-04-30T17:01:05.891Z</time></trkpt><trkpt lat="45.9111247" lon="11.1021892"><ele>962.0</ele><time>2026-04-30T17:01:06.89Z</time></trkpt><trkpt lat="45.9110235" lon="11.1020345"><ele>959.5</ele><time>2026-04-30T17:01:07.89Z</time></trkpt><trkpt lat="45.910934" lon="11.1019011"><ele>957.0</ele><time>2026-04-30T17:01:08.891Z</time></trkpt><trkpt lat="45.9108582" lon="11.1017966"><ele>957.0</ele><time>2026-04-30T17:01:09.889Z</time></trkpt><trkpt lat="45.9107842" lon="11.1017159"><ele>957.0</ele><time>2026-04-30T17:01:10.889Z</time></trkpt><trkpt lat="45.9106872" lon="11.1016792"><ele>957.0</ele><time>2026-04-30T17:01:11.889Z</time></trkpt><trkpt lat="45.9105753" lon="11.1016208"><ele>957.0</ele><time>2026-04-30T17:01:12.891Z</time></trkpt><trkpt lat="45.9104388" lon="11.1015692"><ele>950.75</ele><time>2026-04-30T17:01:13.891Z</time></trkpt><trkpt lat="45.9103131" lon="11.1015103"><ele>944.5</ele><time>2026-04-30T17:01:14.89Z</time></trkpt><trkpt lat="45.9102093" lon="11.1014595"><ele>938.25</ele><time>2026-04-30T17:01:15.89Z</time></trkpt><trkpt lat="45.9100942" lon="11.1014296"><ele>932.0</ele><time>2026-04-30T17:01:16.89Z</time></trkpt><trkpt lat="45.9099609" lon="11.1014135"><ele>932.0</ele><time>2026-04-30T17:01:17.89Z</time></trkpt><trkpt lat="45.9098399" lon="11.101414"><ele>932.0</ele><time>2026-04-30T17:01:18.89Z</time></trkpt><trkpt lat="45.9097412" lon="11.1014235"><ele>932.0</ele><time>2026-04-30T17:01:19.891Z</time></trkpt><trkpt lat="45.9096509" lon="11.1014462"><ele>932.0</ele><time>2026-04-30T17:01:20.891Z</time></trkpt><trkpt lat="45.9095797" lon="11.1014897"><ele>932.0</ele><time>2026-04-30T17:01:21.89Z</time></trkpt><trkpt lat="45.9095087" lon="11.1015689"><ele>938.4000000000001</ele><time>2026-04-30T17:01:22.891Z</time></trkpt><trkpt lat="45.9094306" lon="11.1016887"><ele>944.8000000000001</ele><time>2026-04-30T17:01:23.889Z</time></trkpt><trkpt lat="45.9093576" lon="11.1018063"><ele>951.2</ele><time>2026-04-30T17:01:24.89Z</time></trkpt><trkpt lat="45.9092941" lon="11.1019094"><ele>957.6</ele><time>2026-04-30T17:01:25.89Z</time></trkpt><trkpt lat="45.9092339" lon="11.1019512"><ele>964.0</ele><time>2026-04-30T17:01:26.889Z</time></trkpt><trkpt lat="45.9091412" lon="11.1019217"><ele>964.0</ele><time>2026-04-30T17:01:27.89Z</time></trkpt><trkpt lat="45.9090362" lon="11.1019015"><ele>964.0</ele><time>2026-04-30T17:01:28.891Z</time></trkpt><trkpt lat="45.9089147" lon="11.1018812"><ele>964.0</ele><time>2026-04-30T17:01:29.89Z</time></trkpt><trkpt lat="45.9087898" lon="11.1018399"><ele>964.0</ele><time>2026-04-30T17:01:30.891Z</time></trkpt><trkpt lat="45.9086536" lon="11.1017264"><ele>964.0</ele><time>2026-04-30T17:01:31.89Z</time></trkpt><trkpt lat="45.9084994" lon="11.1016181"><ele>964.0</ele><time>2026-04-30T17:01:32.89Z</time></trkpt><trkpt lat="45.908365" lon="11.1015153"><ele>964.0</ele><time>2026-04-30T17:01:33.89Z</time></trkpt><trkpt lat="45.9082353" lon="11.1014157"><ele>960.6</ele><time>2026-04-30T17:01:34.892Z</time></trkpt><trkpt lat="45.9081306" lon="11.1012895"><ele>957.2</ele><time>2026-04-30T17:01:35.889Z</time></trkpt><trkpt lat="45.9080413" lon="11.1011967"><ele>953.8000000000001</ele><time>2026-04-30T17:01:36.89Z</time></trkpt><trkpt lat="45.9079755" lon="11.1011337"><ele>950.4000000000001</ele><time>2026-04-30T17:01:37.892Z</time></trkpt><trkpt lat="45.9079124" lon="11.1011018"><ele>947.0</ele><time>2026-04-30T17:01:38.891Z</time></trkpt><trkpt lat="45.9078442" lon="11.1010775"><ele>947.0000000000001</ele><time>2026-04-30T17:01:39.89Z</time></trkpt><trkpt lat="45.9077654" lon="11.1011123"><ele>947.0</ele><time>2026-04-30T17:01:40.89Z</time></trkpt><trkpt lat="45.9076551" lon="11.1011511"><ele>947.0</ele><time>2026-04-30T17:01:41.892Z</time></trkpt><trkpt lat="45.9075824" lon="11.1011736"><ele>947.0</ele><time>2026-04-30T17:01:42.889Z</time></trkpt><trkpt lat="45.9075039" lon="11.1011508"><ele>947.0000000000001</ele><time>2026-04-30T17:01:43.889Z</time></trkpt><trkpt lat="45.9074228" lon="11.1011123"><ele>947.0</ele><time>2026-04-30T17:01:44.891Z</time></trkpt><trkpt lat="45.9073399" lon="11.1010644"><ele>946.6</ele><time>2026-04-30T17:01:45.891Z</time></trkpt><trkpt lat="45.9072231" lon="11.1009952"><ele>946.2</ele><time>2026-04-30T17:01:46.89Z</time></trkpt><trkpt lat="45.9071425" lon="11.1009028"><ele>945.8</ele><time>2026-04-30T17:01:47.891Z</time></trkpt><trkpt lat="45.9070866" lon="11.1008071"><ele>945.4</ele><time>2026-04-30T17:01:48.89Z</time></trkpt><trkpt lat="45.9070217" lon="11.1006958"><ele>945.0</ele><time>2026-04-30T17:01:49.891Z</time></trkpt><trkpt lat="45.9069834" lon="11.1006114"><ele>945.0</ele><time>2026-04-30T17:01:50.89Z</time></trkpt><trkpt lat="45.9069387" lon="11.1005199"><ele>945.0</ele><time>2026-04-30T17:01:52.891Z</time></trkpt><trkpt lat="45.9070044" lon="11.1006291"><ele>945.0</ele><time>2026-04-30T17:02:00.89Z</time></trkpt><trkpt lat="45.9070434" lon="11.1007113"><ele>945.0</ele><time>2026-04-30T17:02:01.89Z</time></trkpt><trkpt lat="45.9070895" lon="11.1007862"><ele>945.0</ele><time>2026-04-30T17:02:02.891Z</time></trkpt><trkpt lat="45.907134" lon="11.1008641"><ele>945.0</ele><time>2026-04-30T17:02:03.89Z</time></trkpt><trkpt lat="45.9071839" lon="11.1009407"><ele>945.3333333333334</ele><time>2026-04-30T17:02:04.89Z</time></trkpt><trkpt lat="45.9072664" lon="11.1009884"><ele>945.6666666666667</ele><time>2026-04-30T17:02:05.889Z</time></trkpt><trkpt lat="45.9073322" lon="11.1010552"><ele>946.0</ele><time>2026-04-30T17:02:06.889Z</time></trkpt><trkpt lat="45.9074088" lon="11.1011159"><ele>946.3333333333334</ele><time>2026-04-30T17:02:07.891Z</time></trkpt><trkpt lat="45.9074799" lon="11.1011546"><ele>946.6666666666667</ele><time>2026-04-30T17:02:08.89Z</time></trkpt><trkpt lat="45.9075611" lon="11.1011876"><ele>947.0</ele><time>2026-04-30T17:02:09.89Z</time></trkpt><trkpt lat="45.9076333" lon="11.1011693"><ele>947.0000000000001</ele><time>2026-04-30T17:02:10.89Z</time></trkpt><trkpt lat="45.9077161" lon="11.1011427"><ele>947.0</ele><time>2026-04-30T17:02:11.891Z</time></trkpt><trkpt lat="45.9077961" lon="11.1011209"><ele>947.0</ele><time>2026-04-30T17:02:12.891Z</time></trkpt><trkpt lat="45.9078661" lon="11.1011105"><ele>947.0</ele><time>2026-04-30T17:02:13.891Z</time></trkpt><trkpt lat="45.9079367" lon="11.1011264"><ele>947.0000000000001</ele><time>2026-04-30T17:02:14.89Z</time></trkpt><trkpt lat="45.908004" lon="11.1011661"><ele>947.0</ele><time>2026-04-30T17:02:15.891Z</time></trkpt><trkpt lat="45.9080732" lon="11.1012561"><ele>947.0</ele><time>2026-04-30T17:02:16.892Z</time></trkpt><trkpt lat="45.9081429" lon="11.1013242"><ele>947.0</ele><time>2026-04-30T17:02:17.891Z</time></trkpt><trkpt lat="45.9082201" lon="11.1014178"><ele>947.0</ele><time>2026-04-30T17:02:18.89Z</time></trkpt><trkpt lat="45.9082949" lon="11.1014833"><ele>947.0</ele><time>2026-04-30T17:02:19.89Z</time></trkpt><trkpt lat="45.9083737" lon="11.101564"><ele>947.0</ele><time>2026-04-30T17:02:20.891Z</time></trkpt><trkpt lat="45.9084606" lon="11.1016152"><ele>950.4000000000001</ele><time>2026-04-30T17:02:21.89Z</time></trkpt><trkpt lat="45.9085458" lon="11.101672"><ele>953.8000000000001</ele><time>2026-04-30T17:02:22.89Z</time></trkpt><trkpt lat="45.9086272" lon="11.1017378"><ele>957.2</ele><time>2026-04-30T17:02:23.89Z</time></trkpt><trkpt lat="45.9086989" lon="11.1018006"><ele>960.6</ele><time>2026-04-30T17:02:24.89Z</time></trkpt><trkpt lat="45.9087852" lon="11.1018459"><ele>964.0</ele><time>2026-04-30T17:02:25.89Z</time></trkpt><trkpt lat="45.908875" lon="11.1018778"><ele>964.0</ele><time>2026-04-30T17:02:26.89Z</time></trkpt><trkpt lat="45.9089653" lon="11.1018893"><ele>964.0000000000001</ele><time>2026-04-30T17:02:27.89Z</time></trkpt><trkpt lat="45.9090448" lon="11.1019041"><ele>964.0000000000001</ele><time>2026-04-30T17:02:28.891Z</time></trkpt><trkpt lat="45.9091253" lon="11.1019209"><ele>964.0</ele><time>2026-04-30T17:02:29.89Z</time></trkpt><trkpt lat="45.9092007" lon="11.1019271"><ele>964.0</ele><time>2026-04-30T17:02:30.89Z</time></trkpt><trkpt lat="45.909338" lon="11.1018685"><ele>965.1666666666666</ele><time>2026-04-30T17:02:32.89Z</time></trkpt><trkpt lat="45.9093897" lon="11.1017759"><ele>966.3333333333333</ele><time>2026-04-30T17:02:33.891Z</time></trkpt><trkpt lat="45.9094429" lon="11.1016931"><ele>967.5</ele><time>2026-04-30T17:02:34.89Z</time></trkpt><trkpt lat="45.9094962" lon="11.1016086"><ele>968.6666666666667</ele><time>2026-04-30T17:02:35.892Z</time></trkpt><trkpt lat="45.9095527" lon="11.1015457"><ele>969.8333333333334</ele><time>2026-04-30T17:02:36.89Z</time></trkpt><trkpt lat="45.909612" lon="11.1014913"><ele>971.0</ele><time>2026-04-30T17:02:37.89Z</time></trkpt><trkpt lat="45.9096751" lon="11.1014511"><ele>964.5000000000001</ele><time>2026-04-30T17:02:38.889Z</time></trkpt><trkpt lat="45.9097552" lon="11.1014302"><ele>958.0</ele><time>2026-04-30T17:02:39.891Z</time></trkpt><trkpt lat="45.9098405" lon="11.1014163"><ele>951.5</ele><time>2026-04-30T17:02:40.89Z</time></trkpt><trkpt lat="45.9099308" lon="11.101419"><ele>945.0</ele><time>2026-04-30T17:02:41.889Z</time></trkpt><trkpt lat="45.9100185" lon="11.1014264"><ele>938.5000000000001</ele><time>2026-04-30T17:02:42.89Z</time></trkpt><trkpt lat="45.9101098" lon="11.1014363"><ele>932.0</ele><time>2026-04-30T17:02:43.89Z</time></trkpt><trkpt lat="45.9101984" lon="11.1014522"><ele>930.5000000000001</ele><time>2026-04-30T17:02:44.89Z</time></trkpt><trkpt lat="45.9102816" lon="11.1015083"><ele>929.0</ele><time>2026-04-30T17:02:45.89Z</time></trkpt><trkpt lat="45.910368" lon="11.1015548"><ele>927.5</ele><time>2026-04-30T17:02:46.891Z</time></trkpt><trkpt lat="45.9104548" lon="11.1015882"><ele>926.0</ele><time>2026-04-30T17:02:47.891Z</time></trkpt><trkpt lat="45.9105364" lon="11.1016224"><ele>924.5000000000001</ele><time>2026-04-30T17:02:48.89Z</time></trkpt><trkpt lat="45.9106136" lon="11.1016683"><ele>923.0</ele><time>2026-04-30T17:02:49.89Z</time></trkpt><trkpt lat="45.9106911" lon="11.1017114"><ele>927.8333333333334</ele><time>2026-04-30T17:02:50.89Z</time></trkpt><trkpt lat="45.9107705" lon="11.1017455"><ele>932.6666666666667</ele><time>2026-04-30T17:02:51.89Z</time></trkpt><trkpt lat="45.9108347" lon="11.1018002"><ele>937.5</ele><time>2026-04-30T17:02:52.889Z</time></trkpt><trkpt lat="45.9109036" lon="11.1018834"><ele>942.3333333333333</ele><time>2026-04-30T17:02:53.891Z</time></trkpt><trkpt lat="45.9109719" lon="11.1019787"><ele>947.1666666666666</ele><time>2026-04-30T17:02:54.889Z</time></trkpt><trkpt lat="45.9110382" lon="11.1020855"><ele>952.0</ele><time>2026-04-30T17:02:55.89Z</time></trkpt><trkpt lat="45.9111093" lon="11.1021951"><ele>952.0</ele><time>2026-04-30T17:02:56.891Z</time></trkpt><trkpt lat="45.9111737" lon="11.1022948"><ele>952.0</ele><time>2026-04-30T17:02:57.891Z</time></trkpt><trkpt lat="45.9112283" lon="11.1024062"><ele>952.0</ele><time>2026-04-30T17:02:58.89Z</time></trkpt><trkpt lat="45.9112861" lon="11.1025084"><ele>952.0</ele><time>2026-04-30T17:02:59.89Z</time></trkpt><trkpt lat="45.9113186" lon="11.1026169"><ele>952.0</ele><time>2026-04-30T17:03:00.89Z</time></trkpt><trkpt lat="45.911336" lon="11.1027598"><ele>954.4999999999999</ele><time>2026-04-30T17:03:01.89Z</time></trkpt><trkpt lat="45.9113656" lon="11.1028669"><ele>957.0</ele><time>2026-04-30T17:03:02.891Z</time></trkpt><trkpt lat="45.9114023" lon="11.1029483"><ele>959.5</ele><time>2026-04-30T17:03:03.89Z</time></trkpt><trkpt lat="45.9114466" lon="11.1030211"><ele>962.0</ele><time>2026-04-30T17:03:04.891Z</time></trkpt><trkpt lat="45.9115392" lon="11.1030666"><ele>964.4999999999999</ele><time>2026-04-30T17:03:05.891Z</time></trkpt><trkpt lat="45.9116187" lon="11.1031155"><ele>967.0</ele><time>2026-04-30T17:03:06.891Z</time></trkpt><trkpt lat="45.9117078" lon="11.1031531"><ele>966.6</ele><time>2026-04-30T17:03:07.891Z</time></trkpt><trkpt lat="45.9117995" lon="11.1031993"><ele>966.2</ele><time>2026-04-30T17:03:08.891Z</time></trkpt><trkpt lat="45.9119019" lon="11.1032548"><ele>965.8</ele><time>2026-04-30T17:03:09.89Z</time></trkpt><trkpt lat="45.9119735" lon="11.103298"><ele>965.4</ele><time>2026-04-30T17:03:10.891Z</time></trkpt><trkpt lat="45.912055" lon="11.1033263"><ele>965.0</ele><time>2026-04-30T17:03:11.89Z</time></trkpt><trkpt lat="45.9121393" lon="11.1033437"><ele>964.0000000000001</ele><time>2026-04-30T17:03:12.89Z</time></trkpt><trkpt lat="45.9122097" lon="11.1033724"><ele>963.0</ele><time>2026-04-30T17:03:13.891Z</time></trkpt><trkpt lat="45.9122857" lon="11.1034256"><ele>962.0</ele><time>2026-04-30T17:03:14.889Z</time></trkpt><trkpt lat="45.9123666" lon="11.1034793"><ele>961.0</ele><time>2026-04-30T17:03:15.89Z</time></trkpt><trkpt lat="45.9124531" lon="11.1035446"><ele>960.0000000000001</ele><time>2026-04-30T17:03:16.89Z</time></trkpt><trkpt lat="45.9125297" lon="11.1035745"><ele>959.0</ele><time>2026-04-30T17:03:17.891Z</time></trkpt><trkpt lat="45.9126337" lon="11.1035714"><ele>957.2</ele><time>2026-04-30T17:03:18.89Z</time></trkpt><trkpt lat="45.9127493" lon="11.1035488"><ele>955.4000000000001</ele><time>2026-04-30T17:03:19.891Z</time></trkpt><trkpt lat="45.9128547" lon="11.1035331"><ele>953.6</ele><time>2026-04-30T17:03:20.89Z</time></trkpt><trkpt lat="45.9129536" lon="11.1035281"><ele>951.8</ele><time>2026-04-30T17:03:21.89Z</time></trkpt><trkpt lat="45.9130567" lon="11.1035406"><ele>950.0</ele><time>2026-04-30T17:03:22.89Z</time></trkpt><trkpt lat="45.9131629" lon="11.1035661"><ele>950.0</ele><time>2026-04-30T17:03:23.89Z</time></trkpt><trkpt lat="45.9132896" lon="11.1035994"><ele>950.0</ele><time>2026-04-30T17:03:24.89Z</time></trkpt><trkpt lat="45.9133955" lon="11.1036327"><ele>950.0</ele><time>2026-04-30T17:03:25.89Z</time></trkpt><trkpt lat="45.9134952" lon="11.1036547"><ele>950.0</ele><time>2026-04-30T17:03:26.889Z</time></trkpt><trkpt lat="45.9135978" lon="11.1036711"><ele>950.0</ele><time>2026-04-30T17:03:27.889Z</time></trkpt><trkpt lat="45.9137005" lon="11.1036648"><ele>946.6</ele><time>2026-04-30T17:03:28.89Z</time></trkpt><trkpt lat="45.9138007" lon="11.1036647"><ele>943.2</ele><time>2026-04-30T17:03:29.89Z</time></trkpt><trkpt lat="45.9139057" lon="11.1036545"><ele>939.8</ele><time>2026-04-30T17:03:30.89Z</time></trkpt><trkpt lat="45.9140149" lon="11.1036636"><ele>936.4</ele><time>2026-04-30T17:03:31.891Z</time></trkpt><trkpt lat="45.9141196" lon="11.1036738"><ele>933.0</ele><time>2026-04-30T17:03:32.891Z</time></trkpt><trkpt lat="45.9142326" lon="11.1037076"><ele>932.2</ele><time>2026-04-30T17:03:33.89Z</time></trkpt><trkpt lat="45.9143383" lon="11.1037458"><ele>931.4</ele><time>2026-04-30T17:03:34.891Z</time></trkpt><trkpt lat="45.9144434" lon="11.1038141"><ele>930.6000000000001</ele><time>2026-04-30T17:03:35.89Z</time></trkpt><trkpt lat="45.9145091" lon="11.103878"><ele>929.8000000000001</ele><time>2026-04-30T17:03:36.89Z</time></trkpt><trkpt lat="45.9145527" lon="11.1040342"><ele>929.0</ele><time>2026-04-30T17:03:38.891Z</time></trkpt><trkpt lat="45.9145932" lon="11.1041316"><ele>929.0</ele><time>2026-04-30T17:03:40.89Z</time></trkpt><trkpt lat="45.9147067" lon="11.1040713"><ele>929.0</ele><time>2026-04-30T17:03:42.89Z</time></trkpt><trkpt lat="45.9147841" lon="11.1041041"><ele>929.0</ele><time>2026-04-30T17:03:44.891Z</time></trkpt><trkpt lat="45.9148604" lon="11.1042934"><ele>929.0</ele><time>2026-04-30T17:03:46.891Z</time></trkpt><trkpt lat="45.9148948" lon="11.1044329"><ele>931.4000000000001</ele><time>2026-04-30T17:03:47.89Z</time></trkpt><trkpt lat="45.9149288" lon="11.1045655"><ele>933.8000000000001</ele><time>2026-04-30T17:03:48.891Z</time></trkpt><trkpt lat="45.9149416" lon="11.104678"><ele>936.1999999999999</ele><time>2026-04-30T17:03:49.89Z</time></trkpt><trkpt lat="45.9149866" lon="11.1047621"><ele>938.5999999999999</ele><time>2026-04-30T17:03:50.891Z</time></trkpt><trkpt lat="45.9151077" lon="11.1048591"><ele>941.0</ele><time>2026-04-30T17:03:52.89Z</time></trkpt><trkpt lat="45.915191" lon="11.104915"><ele>943.0</ele><time>2026-04-30T17:03:53.89Z</time></trkpt><trkpt lat="45.9152783" lon="11.104956"><ele>944.9999999999999</ele><time>2026-04-30T17:03:54.89Z</time></trkpt><trkpt lat="45.9153736" lon="11.1050008"><ele>946.9999999999999</ele><time>2026-04-30T17:03:55.891Z</time></trkpt><trkpt lat="45.9154648" lon="11.105055"><ele>949.0</ele><time>2026-04-30T17:03:56.889Z</time></trkpt><trkpt lat="45.9155637" lon="11.1051031"><ele>951.0</ele><time>2026-04-30T17:03:57.89Z</time></trkpt><trkpt lat="45.9156546" lon="11.1051375"><ele>951.0</ele><time>2026-04-30T17:03:58.89Z</time></trkpt><trkpt lat="45.9157417" lon="11.1051702"><ele>950.9999999999999</ele><time>2026-04-30T17:03:59.889Z</time></trkpt><trkpt lat="45.9158442" lon="11.1052092"><ele>950.9999999999999</ele><time>2026-04-30T17:04:00.89Z</time></trkpt><trkpt lat="45.9159459" lon="11.1052351"><ele>951.0</ele><time>2026-04-30T17:04:01.89Z</time></trkpt><trkpt lat="45.9160271" lon="11.1052527"><ele>951.0</ele><time>2026-04-30T17:04:02.892Z</time></trkpt><trkpt lat="45.9161111" lon="11.1052645"><ele>949.3333333333334</ele><time>2026-04-30T17:04:03.89Z</time></trkpt><trkpt lat="45.9161924" lon="11.1052711"><ele>947.6666666666667</ele><time>2026-04-30T17:04:04.891Z</time></trkpt><trkpt lat="45.9163133" lon="11.1052884"><ele>946.0</ele><time>2026-04-30T17:04:06.891Z</time></trkpt><trkpt lat="45.9164235" lon="11.1053018"><ele>944.3333333333334</ele><time>2026-04-30T17:04:08.891Z</time></trkpt><trkpt lat="45.9164844" lon="11.1053303"><ele>942.6666666666667</ele><time>2026-04-30T17:04:10.89Z</time></trkpt><trkpt lat="45.9164232" lon="11.105297"><ele>941.0</ele><time>2026-04-30T17:04:19.89Z</time></trkpt><trkpt lat="45.9163197" lon="11.1052701"><ele>941.0</ele><time>2026-04-30T17:04:21.891Z</time></trkpt><trkpt lat="45.9162362" lon="11.1052563"><ele>940.9999999999999</ele><time>2026-04-30T17:04:23.89Z</time></trkpt><trkpt lat="45.9161693" lon="11.105257"><ele>940.9999999999999</ele><time>2026-04-30T17:04:47.891Z</time></trkpt><trkpt lat="45.9160388" lon="11.105235"><ele>941.0</ele><time>2026-04-30T17:04:49.891Z</time></trkpt><trkpt lat="45.9159132" lon="11.1051981"><ele>941.0</ele><time>2026-04-30T17:04:50.89Z</time></trkpt><trkpt lat="45.9157692" lon="11.1051542"><ele>943.5</ele><time>2026-04-30T17:04:51.89Z</time></trkpt><trkpt lat="45.9156403" lon="11.1051134"><ele>946.0</ele><time>2026-04-30T17:04:52.89Z</time></trkpt><trkpt lat="45.9154892" lon="11.1050418"><ele>948.5</ele><time>2026-04-30T17:04:53.892Z</time></trkpt><trkpt lat="45.9153506" lon="11.1049821"><ele>951.0</ele><time>2026-04-30T17:04:54.89Z</time></trkpt><trkpt lat="45.9152198" lon="11.1049183"><ele>951.5</ele><time>2026-04-30T17:04:55.89Z</time></trkpt><trkpt lat="45.9151179" lon="11.1048558"><ele>952.0</ele><time>2026-04-30T17:04:56.891Z</time></trkpt><trkpt lat="45.9150381" lon="11.1048"><ele>952.5</ele><time>2026-04-30T17:04:57.891Z</time></trkpt><trkpt lat="45.9149783" lon="11.104759"><ele>953.0</ele><time>2026-04-30T17:04:58.891Z</time></trkpt><trkpt lat="45.9149407" lon="11.1046604"><ele>953.5</ele><time>2026-04-30T17:04:59.89Z</time></trkpt><trkpt lat="45.9149093" lon="11.1045442"><ele>954.0</ele><time>2026-04-30T17:05:00.891Z</time></trkpt><trkpt lat="45.9148619" lon="11.104365"><ele>951.4000000000001</ele><time>2026-04-30T17:05:01.89Z</time></trkpt><trkpt lat="45.9148228" lon="11.1041989"><ele>948.8000000000001</ele><time>2026-04-30T17:05:02.891Z</time></trkpt><trkpt lat="45.9148065" lon="11.1040675"><ele>946.1999999999999</ele><time>2026-04-30T17:05:03.891Z</time></trkpt><trkpt lat="45.9147107" lon="11.1040616"><ele>943.5999999999999</ele><time>2026-04-30T17:05:05.891Z</time></trkpt><trkpt lat="45.9146485" lon="11.1040974"><ele>941.0</ele><time>2026-04-30T17:05:06.891Z</time></trkpt><trkpt lat="45.9145587" lon="11.1040675"><ele>939.0</ele><time>2026-04-30T17:05:08.89Z</time></trkpt><trkpt lat="45.9145245" lon="11.1039713"><ele>937.0</ele><time>2026-04-30T17:05:09.89Z</time></trkpt><trkpt lat="45.9144837" lon="11.1038633"><ele>935.0</ele><time>2026-04-30T17:05:10.891Z</time></trkpt><trkpt lat="45.91433" lon="11.1037603"><ele>933.0</ele><time>2026-04-30T17:05:12.89Z</time></trkpt><trkpt lat="45.9141995" lon="11.1037052"><ele>933.0</ele><time>2026-04-30T17:05:13.891Z</time></trkpt><trkpt lat="45.9140894" lon="11.1036621"><ele>933.0</ele><time>2026-04-30T17:05:14.89Z</time></trkpt><trkpt lat="45.9139731" lon="11.1036363"><ele>933.0</ele><time>2026-04-30T17:05:15.89Z</time></trkpt><trkpt lat="45.9138168" lon="11.1036446"><ele>933.0</ele><time>2026-04-30T17:05:16.89Z</time></trkpt><trkpt lat="45.9136597" lon="11.1036524"><ele>933.0</ele><time>2026-04-30T17:05:17.89Z</time></trkpt><trkpt lat="45.9135175" lon="11.103636"><ele>933.0</ele><time>2026-04-30T17:05:18.891Z</time></trkpt><trkpt lat="45.9133565" lon="11.1036117"><ele>933.0</ele><time>2026-04-30T17:05:19.891Z</time></trkpt><trkpt lat="45.9131713" lon="11.1035876"><ele>937.25</ele><time>2026-04-30T17:05:20.89Z</time></trkpt><trkpt lat="45.9129887" lon="11.1035443"><ele>941.5</ele><time>2026-04-30T17:05:21.89Z</time></trkpt><trkpt lat="45.9128526" lon="11.1035107"><ele>945.75</ele><time>2026-04-30T17:05:22.891Z</time></trkpt><trkpt lat="45.9127548" lon="11.1035028"><ele>950.0</ele><time>2026-04-30T17:05:23.89Z</time></trkpt><trkpt lat="45.9126557" lon="11.1035251"><ele>952.25</ele><time>2026-04-30T17:05:24.891Z</time></trkpt><trkpt lat="45.9125474" lon="11.1035325"><ele>954.5</ele><time>2026-04-30T17:05:25.891Z</time></trkpt><trkpt lat="45.9124358" lon="11.1035266"><ele>956.75</ele><time>2026-04-30T17:05:26.89Z</time></trkpt><trkpt lat="45.91232" lon="11.1034561"><ele>959.0</ele><time>2026-04-30T17:05:27.89Z</time></trkpt><trkpt lat="45.912205" lon="11.1033952"><ele>959.0</ele><time>2026-04-30T17:05:28.891Z</time></trkpt><trkpt lat="45.9121037" lon="11.1033426"><ele>959.0000000000001</ele><time>2026-04-30T17:05:29.891Z</time></trkpt><trkpt lat="45.9120049" lon="11.1032995"><ele>959.0000000000001</ele><time>2026-04-30T17:05:30.891Z</time></trkpt><trkpt lat="45.9119059" lon="11.1032663"><ele>959.0</ele><time>2026-04-30T17:05:31.891Z</time></trkpt><trkpt lat="45.9118241" lon="11.1032097"><ele>959.0</ele><time>2026-04-30T17:05:32.89Z</time></trkpt><trkpt lat="45.911738" lon="11.1031488"><ele>960.6</ele><time>2026-04-30T17:05:33.89Z</time></trkpt><trkpt lat="45.9116412" lon="11.1031076"><ele>962.2</ele><time>2026-04-30T17:05:34.89Z</time></trkpt><trkpt lat="45.9115453" lon="11.1030646"><ele>963.8000000000001</ele><time>2026-04-30T17:05:35.89Z</time></trkpt><trkpt lat="45.9114559" lon="11.1029963"><ele>965.4000000000001</ele><time>2026-04-30T17:05:36.89Z</time></trkpt><trkpt lat="45.9114018" lon="11.1029217"><ele>967.0</ele><time>2026-04-30T17:05:37.89Z</time></trkpt><trkpt lat="45.911346" lon="11.1028278"><ele>967.0</ele><time>2026-04-30T17:05:38.891Z</time></trkpt><trkpt lat="45.9113305" lon="11.1027086"><ele>967.0</ele><time>2026-04-30T17:05:39.891Z</time></trkpt><trkpt lat="45.9112943" lon="11.1025586"><ele>967.0</ele><time>2026-04-30T17:05:40.891Z</time></trkpt><trkpt lat="45.9112469" lon="11.1024368"><ele>967.0</ele><time>2026-04-30T17:05:41.89Z</time></trkpt><trkpt lat="45.9111878" lon="11.1022957"><ele>967.0</ele><time>2026-04-30T17:05:42.89Z</time></trkpt><trkpt lat="45.9111136" lon="11.1021547"><ele>964.5</ele><time>2026-04-30T17:05:43.891Z</time></trkpt><trkpt lat="45.9110049" lon="11.1020061"><ele>962.0</ele><time>2026-04-30T17:05:44.89Z</time></trkpt><trkpt lat="45.9109066" lon="11.1018704"><ele>959.5</ele><time>2026-04-30T17:05:45.891Z</time></trkpt><trkpt lat="45.9108141" lon="11.1017526"><ele>957.0</ele><time>2026-04-30T17:05:46.891Z</time></trkpt><trkpt lat="45.9107177" lon="11.101692"><ele>957.0</ele><time>2026-04-30T17:05:47.89Z</time></trkpt><trkpt lat="45.9106106" lon="11.1016374"><ele>957.0</ele><time>2026-04-30T17:05:48.891Z</time></trkpt><trkpt lat="45.9104771" lon="11.1015824"><ele>957.0</ele><time>2026-04-30T17:05:49.891Z</time></trkpt><trkpt lat="45.9103413" lon="11.101527"><ele>957.0</ele><time>2026-04-30T17:05:50.891Z</time></trkpt><trkpt lat="45.9102209" lon="11.1014709"><ele>950.75</ele><time>2026-04-30T17:05:51.891Z</time></trkpt><trkpt lat="45.9100951" lon="11.1014292"><ele>944.5</ele><time>2026-04-30T17:05:52.891Z</time></trkpt><trkpt lat="45.9099752" lon="11.1014065"><ele>938.25</ele><time>2026-04-30T17:05:53.89Z</time></trkpt><trkpt lat="45.9098556" lon="11.1013965"><ele>932.0</ele><time>2026-04-30T17:05:54.891Z</time></trkpt><trkpt lat="45.9097504" lon="11.1013942"><ele>932.0</ele><time>2026-04-30T17:05:55.89Z</time></trkpt><trkpt lat="45.9096602" lon="11.1014233"><ele>932.0</ele><time>2026-04-30T17:05:56.89Z</time></trkpt><trkpt lat="45.9095913" lon="11.1014915"><ele>932.0</ele><time>2026-04-30T17:05:57.89Z</time></trkpt><trkpt lat="45.9095199" lon="11.1015662"><ele>932.0</ele><time>2026-04-30T17:05:58.891Z</time></trkpt><trkpt lat="45.9094415" lon="11.1016656"><ele>932.0</ele><time>2026-04-30T17:05:59.891Z</time></trkpt><trkpt lat="45.9093621" lon="11.1018052"><ele>940.0</ele><time>2026-04-30T17:06:00.89Z</time></trkpt><trkpt lat="45.9092979" lon="11.1019104"><ele>948.0</ele><time>2026-04-30T17:06:01.891Z</time></trkpt><trkpt lat="45.9091544" lon="11.1019254"><ele>956.0</ele><time>2026-04-30T17:06:03.891Z</time></trkpt><trkpt lat="45.9090515" lon="11.1019081"><ele>964.0</ele><time>2026-04-30T17:06:04.89Z</time></trkpt><trkpt lat="45.9089089" lon="11.1018771"><ele>964.0</ele><time>2026-04-30T17:06:05.89Z</time></trkpt><trkpt lat="45.9087874" lon="11.1018313"><ele>964.0</ele><time>2026-04-30T17:06:06.89Z</time></trkpt><trkpt lat="45.908649" lon="11.1017583"><ele>964.0</ele><time>2026-04-30T17:06:07.891Z</time></trkpt><trkpt lat="45.9084947" lon="11.1016269"><ele>959.75</ele><time>2026-04-30T17:06:08.89Z</time></trkpt><trkpt lat="45.9083632" lon="11.1015304"><ele>955.5</ele><time>2026-04-30T17:06:09.892Z</time></trkpt><trkpt lat="45.9082409" lon="11.1014315"><ele>951.25</ele><time>2026-04-30T17:06:10.891Z</time></trkpt><trkpt lat="45.9081306" lon="11.1012827"><ele>947.0</ele><time>2026-04-30T17:06:11.891Z</time></trkpt><trkpt lat="45.9080336" lon="11.101177"><ele>947.0000000000001</ele><time>2026-04-30T17:06:12.891Z</time></trkpt><trkpt lat="45.9079688" lon="11.1011239"><ele>947.0</ele><time>2026-04-30T17:06:13.89Z</time></trkpt><trkpt lat="45.9079005" lon="11.1010845"><ele>947.0</ele><time>2026-04-30T17:06:14.89Z</time></trkpt><trkpt lat="45.9078204" lon="11.1011176"><ele>947.0</ele><time>2026-04-30T17:06:15.89Z</time></trkpt><trkpt lat="45.9077196" lon="11.1011489"><ele>947.0000000000001</ele><time>2026-04-30T17:06:16.89Z</time></trkpt><trkpt lat="45.9076273" lon="11.1011767"><ele>947.0</ele><time>2026-04-30T17:06:17.891Z</time></trkpt><trkpt lat="45.9075521" lon="11.1011654"><ele>951.6</ele><time>2026-04-30T17:06:18.89Z</time></trkpt><trkpt lat="45.907456" lon="11.1011114"><ele>956.2</ele><time>2026-04-30T17:06:19.891Z</time></trkpt><trkpt lat="45.9073618" lon="11.1010601"><ele>960.8</ele><time>2026-04-30T17:06:20.89Z</time></trkpt><trkpt lat="45.9072465" lon="11.1009763"><ele>965.4</ele><time>2026-04-30T17:06:21.891Z</time></trkpt><trkpt lat="45.9071552" lon="11.1008952"><ele>970.0</ele><time>2026-04-30T17:06:22.891Z</time></trkpt><trkpt lat="45.9070714" lon="11.1008089"><ele>965.0</ele><time>2026-04-30T17:06:23.891Z</time></trkpt><trkpt lat="45.9070103" lon="11.1007091"><ele>960.0</ele><time>2026-04-30T17:06:24.89Z</time></trkpt><trkpt lat="45.9069702" lon="11.1006096"><ele>955.0</ele><time>2026-04-30T17:06:25.891Z</time></trkpt><trkpt lat="45.9069113" lon="11.1005086"><ele>950.0</ele><time>2026-04-30T17:06:27.891Z</time></trkpt><trkpt lat="45.9068519" lon="11.1003731"><ele>945.0</ele><time>2026-04-30T17:06:29.891Z</time></trkpt><trkpt lat="45.9068156" lon="11.1002453"><ele>946.4</ele><time>2026-04-30T17:06:31.891Z</time></trkpt><trkpt lat="45.9067439" lon="11.1000783"><ele>947.8</ele><time>2026-04-30T17:06:33.89Z</time></trkpt><trkpt lat="45.9067059" lon="11.0999756"><ele>949.2</ele><time>2026-04-30T17:06:34.891Z</time></trkpt><trkpt lat="45.9066723" lon="11.099856"><ele>950.6</ele><time>2026-04-30T17:06:35.892Z</time></trkpt><trkpt lat="45.9066446" lon="11.09973"><ele>952.0</ele><time>2026-04-30T17:06:36.89Z</time></trkpt><trkpt lat="45.906634" lon="11.0995985"><ele>952.0</ele><time>2026-04-30T17:06:37.89Z</time></trkpt><trkpt lat="45.9066267" lon="11.0994788"><ele>952.0</ele><time>2026-04-30T17:06:38.891Z</time></trkpt><trkpt lat="45.9066325" lon="11.099363"><ele>952.0</ele><time>2026-04-30T17:06:39.89Z</time></trkpt><trkpt lat="45.9066531" lon="11.0992619"><ele>952.0</ele><time>2026-04-30T17:06:40.891Z</time></trkpt><trkpt lat="45.9065994" lon="11.0990696"><ele>952.0</ele><time>2026-04-30T17:06:42.89Z</time></trkpt><trkpt lat="45.9065427" lon="11.0989566"><ele>947.6</ele><time>2026-04-30T17:06:43.89Z</time></trkpt><trkpt lat="45.9064882" lon="11.0988333"><ele>943.2</ele><time>2026-04-30T17:06:44.89Z</time></trkpt><trkpt lat="45.9064415" lon="11.0987212"><ele>938.8</ele><time>2026-04-30T17:06:45.89Z</time></trkpt><trkpt lat="45.9064128" lon="11.0985852"><ele>934.4</ele><time>2026-04-30T17:06:46.891Z</time></trkpt><trkpt lat="45.9063847" lon="11.0984605"><ele>930.0</ele><time>2026-04-30T17:06:47.891Z</time></trkpt><trkpt lat="45.9063377" lon="11.0983284"><ele>925.6</ele><time>2026-04-30T17:06:48.89Z</time></trkpt><trkpt lat="45.9062644" lon="11.098199"><ele>921.2</ele><time>2026-04-30T17:06:49.892Z</time></trkpt><trkpt lat="45.9061948" lon="11.0980705"><ele>916.8</ele><time>2026-04-30T17:06:50.89Z</time></trkpt><trkpt lat="45.9061334" lon="11.0979436"><ele>912.4</ele><time>2026-04-30T17:06:51.891Z</time></trkpt><trkpt lat="45.9060838" lon="11.0977992"><ele>908.0</ele><time>2026-04-30T17:06:52.89Z</time></trkpt><trkpt lat="45.9060442" lon="11.0976527"><ele>908.0</ele><time>2026-04-30T17:06:53.89Z</time></trkpt><trkpt lat="45.9060045" lon="11.0975115"><ele>908.0</ele><time>2026-04-30T17:06:54.89Z</time></trkpt><trkpt lat="45.905971" lon="11.0973771"><ele>908.0</ele><time>2026-04-30T17:06:55.891Z</time></trkpt><trkpt lat="45.9059237" lon="11.0972411"><ele>908.0</ele><time>2026-04-30T17:06:56.89Z</time></trkpt><trkpt lat="45.9058831" lon="11.0971132"><ele>908.0</ele><time>2026-04-30T17:06:57.89Z</time></trkpt><trkpt lat="45.9058339" lon="11.0969747"><ele>905.0</ele><time>2026-04-30T17:06:58.891Z</time></trkpt><trkpt lat="45.9057729" lon="11.0968389"><ele>902.0</ele><time>2026-04-30T17:06:59.891Z</time></trkpt><trkpt lat="45.9056887" lon="11.0966978"><ele>899.0</ele><time>2026-04-30T17:07:00.891Z</time></trkpt><trkpt lat="45.9056092" lon="11.0965766"><ele>896.0</ele><time>2026-04-30T17:07:01.89Z</time></trkpt><trkpt lat="45.905538" lon="11.0964489"><ele>896.0</ele><time>2026-04-30T17:07:02.89Z</time></trkpt><trkpt lat="45.9054685" lon="11.0963198"><ele>895.9999999999999</ele><time>2026-04-30T17:07:03.891Z</time></trkpt><trkpt lat="45.9053904" lon="11.096205"><ele>895.9999999999999</ele><time>2026-04-30T17:07:04.891Z</time></trkpt><trkpt lat="45.9053075" lon="11.0961036"><ele>896.0</ele><time>2026-04-30T17:07:05.891Z</time></trkpt><trkpt lat="45.9052448" lon="11.0960015"><ele>896.0</ele><time>2026-04-30T17:07:06.891Z</time></trkpt><trkpt lat="45.9051872" lon="11.0958992"><ele>896.0</ele><time>2026-04-30T17:07:07.891Z</time></trkpt><trkpt lat="45.9051294" lon="11.095781"><ele>895.9999999999999</ele><time>2026-04-30T17:07:08.892Z</time></trkpt><trkpt lat="45.9051021" lon="11.0956413"><ele>895.9999999999999</ele><time>2026-04-30T17:07:09.891Z</time></trkpt><trkpt lat="45.9050809" lon="11.0955151"><ele>896.0</ele><time>2026-04-30T17:07:10.89Z</time></trkpt><trkpt lat="45.9050788" lon="11.095376"><ele>896.0</ele><time>2026-04-30T17:07:11.89Z</time></trkpt><trkpt lat="45.9050905" lon="11.0952244"><ele>896.0</ele><time>2026-04-30T17:07:12.892Z</time></trkpt><trkpt lat="45.9050964" lon="11.0950754"><ele>895.9999999999999</ele><time>2026-04-30T17:07:13.892Z</time></trkpt><trkpt lat="45.9050925" lon="11.0949234"><ele>895.9999999999999</ele><time>2026-04-30T17:07:14.89Z</time></trkpt><trkpt lat="45.9050771" lon="11.0947735"><ele>896.0</ele><time>2026-04-30T17:07:15.89Z</time></trkpt><trkpt lat="45.9050461" lon="11.094626"><ele>896.0</ele><time>2026-04-30T17:07:16.892Z</time></trkpt><trkpt lat="45.9050101" lon="11.0944772"><ele>896.0</ele><time>2026-04-30T17:07:17.89Z</time></trkpt><trkpt lat="45.9049695" lon="11.0943321"><ele>895.9999999999999</ele><time>2026-04-30T17:07:18.892Z</time></trkpt><trkpt lat="45.9049181" lon="11.0942022"><ele>895.9999999999999</ele><time>2026-04-30T17:07:19.892Z</time></trkpt><trkpt lat="45.9048702" lon="11.0940619"><ele>896.0</ele><time>2026-04-30T17:07:20.89Z</time></trkpt><trkpt lat="45.9048032" lon="11.0939256"><ele>896.0</ele><time>2026-04-30T17:07:21.891Z</time></trkpt><trkpt lat="45.9047396" lon="11.0937878"><ele>893.5999999999999</ele><time>2026-04-30T17:07:22.89Z</time></trkpt><trkpt lat="45.9046809" lon="11.0936474"><ele>891.1999999999999</ele><time>2026-04-30T17:07:23.89Z</time></trkpt><trkpt lat="45.9046178" lon="11.093515"><ele>888.8000000000001</ele><time>2026-04-30T17:07:24.891Z</time></trkpt><trkpt lat="45.9045518" lon="11.0933809"><ele>886.4000000000001</ele><time>2026-04-30T17:07:25.89Z</time></trkpt><trkpt lat="45.9044985" lon="11.0932573"><ele>884.0</ele><time>2026-04-30T17:07:26.89Z</time></trkpt><trkpt lat="45.9044557" lon="11.0931262"><ele>882.8333333333334</ele><time>2026-04-30T17:07:27.891Z</time></trkpt><trkpt lat="45.9044353" lon="11.0930175"><ele>881.6666666666667</ele><time>2026-04-30T17:07:28.89Z</time></trkpt><trkpt lat="45.9044276" lon="11.0929006"><ele>880.5</ele><time>2026-04-30T17:07:29.89Z</time></trkpt><trkpt lat="45.904457" lon="11.0927786"><ele>879.3333333333333</ele><time>2026-04-30T17:07:30.89Z</time></trkpt><trkpt lat="45.9044808" lon="11.0926772"><ele>878.1666666666666</ele><time>2026-04-30T17:07:31.89Z</time></trkpt><trkpt lat="45.9045305" lon="11.0925644"><ele>877.0</ele><time>2026-04-30T17:07:33.89Z</time></trkpt><trkpt lat="45.9045898" lon="11.0926277"><ele>876.9999999999999</ele><time>2026-04-30T17:07:38.892Z</time></trkpt><trkpt lat="45.9046172" lon="11.0927102"><ele>877.0</ele><time>2026-04-30T17:07:39.89Z</time></trkpt><trkpt lat="45.9046502" lon="11.0928329"><ele>877.0</ele><time>2026-04-30T17:07:40.891Z</time></trkpt><trkpt lat="45.9046856" lon="11.092942"><ele>877.0</ele><time>2026-04-30T17:07:41.89Z</time></trkpt><trkpt lat="45.9047211" lon="11.093051"><ele>876.9999999999999</ele><time>2026-04-30T17:07:42.892Z</time></trkpt><trkpt lat="45.9047742" lon="11.0931429"><ele>877.0</ele><time>2026-04-30T17:07:43.892Z</time></trkpt><trkpt lat="45.9048297" lon="11.0932102"><ele>876.9999999999999</ele><time>2026-04-30T17:07:44.89Z</time></trkpt><trkpt lat="45.9049386" lon="11.0932694"><ele>877.0</ele><time>2026-04-30T17:07:46.89Z</time></trkpt><trkpt lat="45.9050314" lon="11.0932157"><ele>877.0</ele><time>2026-04-30T17:07:48.891Z</time></trkpt><trkpt lat="45.9050113" lon="11.0931256"><ele>877.0</ele><time>2026-04-30T17:07:57.892Z</time></trkpt><trkpt lat="45.904945" lon="11.0930423"><ele>876.9999999999999</ele><time>2026-04-30T17:07:59.89Z</time></trkpt><trkpt lat="45.9048975" lon="11.0929766"><ele>877.0</ele><time>2026-04-30T17:08:00.89Z</time></trkpt><trkpt lat="45.9048567" lon="11.092863"><ele>876.9999999999999</ele><time>2026-04-30T17:08:01.892Z</time></trkpt><trkpt lat="45.9048333" lon="11.0927613"><ele>877.0</ele><time>2026-04-30T17:08:02.89Z</time></trkpt><trkpt lat="45.9048274" lon="11.0926577"><ele>877.0</ele><time>2026-04-30T17:08:03.891Z</time></trkpt><trkpt lat="45.9048399" lon="11.0925465"><ele>877.0</ele><time>2026-04-30T17:08:04.891Z</time></trkpt><trkpt lat="45.90486" lon="11.0924421"><ele>876.9999999999999</ele><time>2026-04-30T17:08:05.89Z</time></trkpt><trkpt lat="45.9048966" lon="11.092341"><ele>877.0</ele><time>2026-04-30T17:08:06.891Z</time></trkpt><trkpt lat="45.9049556" lon="11.0922668"><ele>874.9999999999999</ele><time>2026-04-30T17:08:07.89Z</time></trkpt><trkpt lat="45.9050118" lon="11.0921962"><ele>873.0</ele><time>2026-04-30T17:08:08.89Z</time></trkpt><trkpt lat="45.9050645" lon="11.092127"><ele>871.0</ele><time>2026-04-30T17:08:09.892Z</time></trkpt><trkpt lat="45.9050936" lon="11.0919888"><ele>869.0</ele><time>2026-04-30T17:08:11.892Z</time></trkpt><trkpt lat="45.9050551" lon="11.0918828"><ele>866.9999999999999</ele><time>2026-04-30T17:08:12.89Z</time></trkpt><trkpt lat="45.9050061" lon="11.0917687"><ele>865.0</ele><time>2026-04-30T17:08:13.892Z</time></trkpt><trkpt lat="45.9049617" lon="11.0916589"><ele>860.2</ele><time>2026-04-30T17:08:14.891Z</time></trkpt><trkpt lat="45.9049256" lon="11.0915524"><ele>855.4</ele><time>2026-04-30T17:08:15.89Z</time></trkpt><trkpt lat="45.9048951" lon="11.0914657"><ele>850.5999999999999</ele><time>2026-04-30T17:08:16.89Z</time></trkpt><trkpt lat="45.904933" lon="11.0913278"><ele>845.8</ele><time>2026-04-30T17:08:18.891Z</time></trkpt><trkpt lat="45.9050303" lon="11.0914129"><ele>841.0</ele><time>2026-04-30T17:08:20.892Z</time></trkpt><trkpt lat="45.9050791" lon="11.0915235"><ele>837.9999999999999</ele><time>2026-04-30T17:08:21.89Z</time></trkpt><trkpt lat="45.9051269" lon="11.091643"><ele>835.0</ele><time>2026-04-30T17:08:22.891Z</time></trkpt><trkpt lat="45.9051886" lon="11.0917377"><ele>832.0</ele><time>2026-04-30T17:08:23.89Z</time></trkpt><trkpt lat="45.9052456" lon="11.0918282"><ele>829.0</ele><time>2026-04-30T17:08:24.891Z</time></trkpt><trkpt lat="45.9052884" lon="11.0919486"><ele>825.9999999999999</ele><time>2026-04-30T17:08:25.891Z</time></trkpt><trkpt lat="45.9053189" lon="11.0920612"><ele>823.0</ele><time>2026-04-30T17:08:26.892Z</time></trkpt><trkpt lat="45.9053214" lon="11.0921616"><ele>822.9999999999999</ele><time>2026-04-30T17:08:27.891Z</time></trkpt><trkpt lat="45.9053509" lon="11.0922558"><ele>823.0</ele><time>2026-04-30T17:08:28.891Z</time></trkpt><trkpt lat="45.9054076" lon="11.0923371"><ele>823.0</ele><time>2026-04-30T17:08:29.89Z</time></trkpt><trkpt lat="45.9054667" lon="11.0924273"><ele>823.0</ele><time>2026-04-30T17:08:30.89Z</time></trkpt><trkpt lat="45.9055059" lon="11.0925577"><ele>822.9999999999999</ele><time>2026-04-30T17:08:31.89Z</time></trkpt><trkpt lat="45.9055455" lon="11.0926842"><ele>823.0</ele><time>2026-04-30T17:08:32.891Z</time></trkpt><trkpt lat="45.9055812" lon="11.0928191"><ele>824.5999999999999</ele><time>2026-04-30T17:08:33.892Z</time></trkpt><trkpt lat="45.905618" lon="11.0929612"><ele>826.1999999999999</ele><time>2026-04-30T17:08:34.892Z</time></trkpt><trkpt lat="45.9056516" lon="11.0931"><ele>827.8</ele><time>2026-04-30T17:08:35.891Z</time></trkpt><trkpt lat="45.9056754" lon="11.0932574"><ele>829.4</ele><time>2026-04-30T17:08:36.891Z</time></trkpt><trkpt lat="45.905698" lon="11.0934005"><ele>831.0</ele><time>2026-04-30T17:08:37.892Z</time></trkpt><trkpt lat="45.9057196" lon="11.0935534"><ele>832.4</ele><time>2026-04-30T17:08:38.892Z</time></trkpt><trkpt lat="45.9057485" lon="11.0937059"><ele>833.8</ele><time>2026-04-30T17:08:39.89Z</time></trkpt><trkpt lat="45.9057789" lon="11.0938439"><ele>835.1999999999999</ele><time>2026-04-30T17:08:40.891Z</time></trkpt><trkpt lat="45.9058097" lon="11.093988"><ele>836.5999999999999</ele><time>2026-04-30T17:08:41.89Z</time></trkpt><trkpt lat="45.905831" lon="11.0941198"><ele>838.0</ele><time>2026-04-30T17:08:42.89Z</time></trkpt><trkpt lat="45.9058585" lon="11.0942515"><ele>839.8333333333333</ele><time>2026-04-30T17:08:43.892Z</time></trkpt><trkpt lat="45.9059059" lon="11.0943655"><ele>841.6666666666666</ele><time>2026-04-30T17:08:44.89Z</time></trkpt><trkpt lat="45.9059595" lon="11.0944575"><ele>843.5</ele><time>2026-04-30T17:08:45.892Z</time></trkpt><trkpt lat="45.906026" lon="11.0945294"><ele>845.3333333333333</ele><time>2026-04-30T17:08:46.89Z</time></trkpt><trkpt lat="45.9061173" lon="11.0945571"><ele>847.1666666666666</ele><time>2026-04-30T17:08:47.892Z</time></trkpt><trkpt lat="45.9062027" lon="11.0945318"><ele>849.0</ele><time>2026-04-30T17:08:48.891Z</time></trkpt><trkpt lat="45.9062897" lon="11.0945368"><ele>840.6</ele><time>2026-04-30T17:08:49.89Z</time></trkpt><trkpt lat="45.9063762" lon="11.094566"><ele>832.2</ele><time>2026-04-30T17:08:50.892Z</time></trkpt><trkpt lat="45.9064673" lon="11.0946263"><ele>823.8000000000001</ele><time>2026-04-30T17:08:51.891Z</time></trkpt><trkpt lat="45.9065495" lon="11.0947052"><ele>815.4000000000001</ele><time>2026-04-30T17:08:52.89Z</time></trkpt><trkpt lat="45.9066257" lon="11.0947827"><ele>807.0</ele><time>2026-04-30T17:08:53.891Z</time></trkpt><trkpt lat="45.9067081" lon="11.0948532"><ele>805.8</ele><time>2026-04-30T17:08:54.891Z</time></trkpt><trkpt lat="45.9067813" lon="11.094922"><ele>804.6</ele><time>2026-04-30T17:08:55.891Z</time></trkpt><trkpt lat="45.9068706" lon="11.0949715"><ele>803.4</ele><time>2026-04-30T17:08:56.891Z</time></trkpt><trkpt lat="45.9069646" lon="11.0949934"><ele>802.1999999999999</ele><time>2026-04-30T17:08:57.891Z</time></trkpt><trkpt lat="45.9070504" lon="11.095033"><ele>801.0</ele><time>2026-04-30T17:08:58.891Z</time></trkpt><trkpt lat="45.9071362" lon="11.0950875"><ele>801.0</ele><time>2026-04-30T17:08:59.89Z</time></trkpt><trkpt lat="45.9072031" lon="11.0951617"><ele>801.0</ele><time>2026-04-30T17:09:00.89Z</time></trkpt><trkpt lat="45.9072603" lon="11.0952755"><ele>801.0</ele><time>2026-04-30T17:09:01.89Z</time></trkpt><trkpt lat="45.9073165" lon="11.0954071"><ele>801.0</ele><time>2026-04-30T17:09:02.89Z</time></trkpt><trkpt lat="45.907378" lon="11.0955362"><ele>801.0</ele><time>2026-04-30T17:09:03.892Z</time></trkpt><trkpt lat="45.9074279" lon="11.0956184"><ele>801.0</ele><time>2026-04-30T17:09:04.89Z</time></trkpt><trkpt lat="45.9074954" lon="11.0956828"><ele>801.0</ele><time>2026-04-30T17:09:05.893Z</time></trkpt><trkpt lat="45.9075788" lon="11.0957171"><ele>801.0</ele><time>2026-04-30T17:09:06.891Z</time></trkpt><trkpt lat="45.9076735" lon="11.0957567"><ele>801.0</ele><time>2026-04-30T17:09:07.891Z</time></trkpt><trkpt lat="45.9077647" lon="11.0957928"><ele>801.0</ele><time>2026-04-30T17:09:08.891Z</time></trkpt><trkpt lat="45.9078579" lon="11.0958515"><ele>800.1999999999999</ele><time>2026-04-30T17:09:09.891Z</time></trkpt><trkpt lat="45.9079492" lon="11.095935"><ele>799.4</ele><time>2026-04-30T17:09:10.89Z</time></trkpt><trkpt lat="45.9080407" lon="11.0960131"><ele>798.6</ele><time>2026-04-30T17:09:11.891Z</time></trkpt><trkpt lat="45.9081426" lon="11.0960875"><ele>797.8</ele><time>2026-04-30T17:09:12.89Z</time></trkpt><trkpt lat="45.9082488" lon="11.0961557"><ele>797.0</ele><time>2026-04-30T17:09:13.89Z</time></trkpt><trkpt lat="45.9083529" lon="11.096224"><ele>794.6</ele><time>2026-04-30T17:09:14.89Z</time></trkpt><trkpt lat="45.9084484" lon="11.0962821"><ele>792.2</ele><time>2026-04-30T17:09:15.89Z</time></trkpt><trkpt lat="45.9085437" lon="11.0963488"><ele>789.8</ele><time>2026-04-30T17:09:16.891Z</time></trkpt><trkpt lat="45.908642" lon="11.096412"><ele>787.4</ele><time>2026-04-30T17:09:17.89Z</time></trkpt><trkpt lat="45.908742" lon="11.0964368"><ele>785.0</ele><time>2026-04-30T17:09:18.89Z</time></trkpt><trkpt lat="45.9088414" lon="11.0964346"><ele>785.0</ele><time>2026-04-30T17:09:19.891Z</time></trkpt><trkpt lat="45.9089352" lon="11.0964178"><ele>785.0</ele><time>2026-04-30T17:09:20.892Z</time></trkpt><trkpt lat="45.9090183" lon="11.096377"><ele>785.0</ele><time>2026-04-30T17:09:21.891Z</time></trkpt><trkpt lat="45.9090937" lon="11.0963042"><ele>785.0</ele><time>2026-04-30T17:09:22.892Z</time></trkpt><trkpt lat="45.9091512" lon="11.096203"><ele>785.0</ele><time>2026-04-30T17:09:23.893Z</time></trkpt><trkpt lat="45.9091994" lon="11.0960956"><ele>786.8333333333334</ele><time>2026-04-30T17:09:24.891Z</time></trkpt><trkpt lat="45.9092541" lon="11.0959959"><ele>788.6666666666667</ele><time>2026-04-30T17:09:25.891Z</time></trkpt><trkpt lat="45.9093221" lon="11.0959037"><ele>790.5</ele><time>2026-04-30T17:09:26.891Z</time></trkpt><trkpt lat="45.9093895" lon="11.0958161"><ele>792.3333333333333</ele><time>2026-04-30T17:09:27.89Z</time></trkpt><trkpt lat="45.9094679" lon="11.0957952"><ele>794.1666666666666</ele><time>2026-04-30T17:09:28.891Z</time></trkpt><trkpt lat="45.9095505" lon="11.0957844"><ele>796.0</ele><time>2026-04-30T17:09:29.891Z</time></trkpt><trkpt lat="45.9096313" lon="11.095794"><ele>796.0</ele><time>2026-04-30T17:09:30.89Z</time></trkpt><trkpt lat="45.9097057" lon="11.0957754"><ele>796.0</ele><time>2026-04-30T17:09:31.891Z</time></trkpt><trkpt lat="45.9097081" lon="11.0956571"><ele>796.0</ele><time>2026-04-30T17:09:33.89Z</time></trkpt><trkpt lat="45.9095788" lon="11.0956183"><ele>796.0</ele><time>2026-04-30T17:09:35.891Z</time></trkpt><trkpt lat="45.9094791" lon="11.0956414"><ele>796.0</ele><time>2026-04-30T17:09:36.891Z</time></trkpt><trkpt lat="45.9093856" lon="11.0956742"><ele>793.8</ele><time>2026-04-30T17:09:37.89Z</time></trkpt><trkpt lat="45.9092913" lon="11.0957072"><ele>791.5999999999999</ele><time>2026-04-30T17:09:38.89Z</time></trkpt><trkpt lat="45.9091967" lon="11.095733"><ele>789.4</ele><time>2026-04-30T17:09:39.89Z</time></trkpt><trkpt lat="45.9091018" lon="11.0957595"><ele>787.2</ele><time>2026-04-30T17:09:40.892Z</time></trkpt><trkpt lat="45.9090191" lon="11.0957709"><ele>785.0</ele><time>2026-04-30T17:09:41.891Z</time></trkpt><trkpt lat="45.9089433" lon="11.0957503"><ele>779.6</ele><time>2026-04-30T17:09:42.89Z</time></trkpt><trkpt lat="45.9088687" lon="11.0957101"><ele>774.2</ele><time>2026-04-30T17:09:43.891Z</time></trkpt><trkpt lat="45.9087922" lon="11.0956291"><ele>768.8</ele><time>2026-04-30T17:09:44.891Z</time></trkpt><trkpt lat="45.9087347" lon="11.0955231"><ele>763.4</ele><time>2026-04-30T17:09:45.892Z</time></trkpt><trkpt lat="45.9087016" lon="11.0953804"><ele>758.0</ele><time>2026-04-30T17:09:46.891Z</time></trkpt><trkpt lat="45.9086905" lon="11.0952426"><ele>758.0</ele><time>2026-04-30T17:09:47.893Z</time></trkpt><trkpt lat="45.9086448" lon="11.0951229"><ele>758.0</ele><time>2026-04-30T17:09:48.89Z</time></trkpt><trkpt lat="45.9085996" lon="11.0949797"><ele>758.0</ele><time>2026-04-30T17:09:49.892Z</time></trkpt><trkpt lat="45.9085484" lon="11.0948189"><ele>758.0</ele><time>2026-04-30T17:09:50.89Z</time></trkpt><trkpt lat="45.908489" lon="11.0946648"><ele>757.2</ele><time>2026-04-30T17:09:51.89Z</time></trkpt><trkpt lat="45.9084376" lon="11.0945221"><ele>756.4</ele><time>2026-04-30T17:09:52.89Z</time></trkpt><trkpt lat="45.9083704" lon="11.0944144"><ele>755.6</ele><time>2026-04-30T17:09:53.89Z</time></trkpt><trkpt lat="45.9082907" lon="11.0943089"><ele>754.8000000000001</ele><time>2026-04-30T17:09:54.89Z</time></trkpt><trkpt lat="45.9082116" lon="11.094211"><ele>754.0</ele><time>2026-04-30T17:09:55.89Z</time></trkpt><trkpt lat="45.9081422" lon="11.0941044"><ele>751.4000000000001</ele><time>2026-04-30T17:09:56.89Z</time></trkpt><trkpt lat="45.908087" lon="11.0939827"><ele>748.8</ele><time>2026-04-30T17:09:57.892Z</time></trkpt><trkpt lat="45.9080133" lon="11.0938839"><ele>746.2</ele><time>2026-04-30T17:09:58.892Z</time></trkpt><trkpt lat="45.9079299" lon="11.0938065"><ele>743.5999999999999</ele><time>2026-04-30T17:09:59.891Z</time></trkpt><trkpt lat="45.9078437" lon="11.093731"><ele>741.0</ele><time>2026-04-30T17:10:00.891Z</time></trkpt><trkpt lat="45.9077692" lon="11.0936354"><ele>741.0</ele><time>2026-04-30T17:10:01.891Z</time></trkpt><trkpt lat="45.9077223" lon="11.09354"><ele>741.0</ele><time>2026-04-30T17:10:02.89Z</time></trkpt><trkpt lat="45.9076927" lon="11.0934228"><ele>741.0</ele><time>2026-04-30T17:10:03.891Z</time></trkpt><trkpt lat="45.9076728" lon="11.0932874"><ele>741.0</ele><time>2026-04-30T17:10:04.892Z</time></trkpt><trkpt lat="45.9076448" lon="11.0931699"><ele>741.0</ele><time>2026-04-30T17:10:05.891Z</time></trkpt><trkpt lat="45.9076147" lon="11.0930549"><ele>741.0</ele><time>2026-04-30T17:10:06.89Z</time></trkpt><trkpt lat="45.9075907" lon="11.0929302"><ele>740.4</ele><time>2026-04-30T17:10:07.892Z</time></trkpt><trkpt lat="45.907553" lon="11.0928055"><ele>739.8</ele><time>2026-04-30T17:10:08.892Z</time></trkpt><trkpt lat="45.9075055" lon="11.0926746"><ele>739.1999999999999</ele><time>2026-04-30T17:10:09.891Z</time></trkpt><trkpt lat="45.9074513" lon="11.0925409"><ele>738.5999999999999</ele><time>2026-04-30T17:10:10.89Z</time></trkpt><trkpt lat="45.9073951" lon="11.0924057"><ele>738.0</ele><time>2026-04-30T17:10:11.891Z</time></trkpt><trkpt lat="45.9073485" lon="11.0922776"><ele>731.4</ele><time>2026-04-30T17:10:12.89Z</time></trkpt><trkpt lat="45.9073172" lon="11.0921427"><ele>724.8</ele><time>2026-04-30T17:10:13.89Z</time></trkpt><trkpt lat="45.907285" lon="11.0920078"><ele>718.2</ele><time>2026-04-30T17:10:14.891Z</time></trkpt><trkpt lat="45.9072288" lon="11.0918848"><ele>711.6</ele><time>2026-04-30T17:10:15.891Z</time></trkpt><trkpt lat="45.9071601" lon="11.0917721"><ele>705.0</ele><time>2026-04-30T17:10:16.891Z</time></trkpt><trkpt lat="45.90708" lon="11.0916789"><ele>699.1666666666666</ele><time>2026-04-30T17:10:17.891Z</time></trkpt><trkpt lat="45.9070029" lon="11.0915806"><ele>693.3333333333334</ele><time>2026-04-30T17:10:18.891Z</time></trkpt><trkpt lat="45.9069677" lon="11.0914673"><ele>687.5</ele><time>2026-04-30T17:10:19.89Z</time></trkpt><trkpt lat="45.9069627" lon="11.0913533"><ele>681.6666666666667</ele><time>2026-04-30T17:10:20.891Z</time></trkpt><trkpt lat="45.9069583" lon="11.09124"><ele>675.8333333333334</ele><time>2026-04-30T17:10:21.891Z</time></trkpt><trkpt lat="45.9069269" lon="11.0911264"><ele>670.0</ele><time>2026-04-30T17:10:22.891Z</time></trkpt><trkpt lat="45.9068705" lon="11.0910052"><ele>670.0</ele><time>2026-04-30T17:10:23.891Z</time></trkpt><trkpt lat="45.9068105" lon="11.0908779"><ele>670.0</ele><time>2026-04-30T17:10:24.89Z</time></trkpt><trkpt lat="45.9067475" lon="11.0907337"><ele>670.0</ele><time>2026-04-30T17:10:25.89Z</time></trkpt><trkpt lat="45.906689" lon="11.0905895"><ele>670.0</ele><time>2026-04-30T17:10:26.89Z</time></trkpt><trkpt lat="45.9066347" lon="11.0904412"><ele>669.2</ele><time>2026-04-30T17:10:27.89Z</time></trkpt><trkpt lat="45.9065952" lon="11.0902889"><ele>668.4</ele><time>2026-04-30T17:10:28.891Z</time></trkpt><trkpt lat="45.9065567" lon="11.0901387"><ele>667.5999999999999</ele><time>2026-04-30T17:10:29.891Z</time></trkpt><trkpt lat="45.9065147" lon="11.0899868"><ele>666.8</ele><time>2026-04-30T17:10:30.89Z</time></trkpt><trkpt lat="45.9064743" lon="11.0898389"><ele>666.0</ele><time>2026-04-30T17:10:31.89Z</time></trkpt><trkpt lat="45.9064307" lon="11.0896916"><ele>666.0</ele><time>2026-04-30T17:10:32.892Z</time></trkpt><trkpt lat="45.9063857" lon="11.0895436"><ele>666.0</ele><time>2026-04-30T17:10:33.891Z</time></trkpt><trkpt lat="45.9063456" lon="11.0893918"><ele>666.0</ele><time>2026-04-30T17:10:34.891Z</time></trkpt><trkpt lat="45.9062972" lon="11.0892466"><ele>666.0</ele><time>2026-04-30T17:10:35.89Z</time></trkpt><trkpt lat="45.9062477" lon="11.0891076"><ele>666.0</ele><time>2026-04-30T17:10:36.891Z</time></trkpt><trkpt lat="45.9062041" lon="11.088964"><ele>662.1999999999999</ele><time>2026-04-30T17:10:37.891Z</time></trkpt><trkpt lat="45.9061586" lon="11.0888169"><ele>658.4</ele><time>2026-04-30T17:10:38.891Z</time></trkpt><trkpt lat="45.9061234" lon="11.0886789"><ele>654.6</ele><time>2026-04-30T17:10:39.891Z</time></trkpt><trkpt lat="45.9060985" lon="11.0885383"><ele>650.8</ele><time>2026-04-30T17:10:40.89Z</time></trkpt><trkpt lat="45.9060774" lon="11.0883898"><ele>647.0</ele><time>2026-04-30T17:10:41.891Z</time></trkpt><trkpt lat="45.9060417" lon="11.0882473"><ele>642.8000000000001</ele><time>2026-04-30T17:10:42.892Z</time></trkpt><trkpt lat="45.9060079" lon="11.0881002"><ele>638.6</ele><time>2026-04-30T17:10:43.89Z</time></trkpt><trkpt lat="45.9059607" lon="11.0879572"><ele>634.4000000000001</ele><time>2026-04-30T17:10:44.891Z</time></trkpt><trkpt lat="45.9059067" lon="11.0878077"><ele>630.2</ele><time>2026-04-30T17:10:45.89Z</time></trkpt><trkpt lat="45.9058546" lon="11.0876623"><ele>626.0</ele><time>2026-04-30T17:10:46.892Z</time></trkpt><trkpt lat="45.905802" lon="11.0875176"><ele>632.2</ele><time>2026-04-30T17:10:47.891Z</time></trkpt><trkpt lat="45.9057387" lon="11.0873955"><ele>638.4000000000001</ele><time>2026-04-30T17:10:48.891Z</time></trkpt><trkpt lat="45.9056762" lon="11.0872761"><ele>644.6</ele><time>2026-04-30T17:10:49.891Z</time></trkpt><trkpt lat="45.9056303" lon="11.0871524"><ele>650.8000000000001</ele><time>2026-04-30T17:10:50.892Z</time></trkpt><trkpt lat="45.9055941" lon="11.0870345"><ele>657.0</ele><time>2026-04-30T17:10:51.89Z</time></trkpt><trkpt lat="45.9055842" lon="11.0869114"><ele>657.0</ele><time>2026-04-30T17:10:52.89Z</time></trkpt><trkpt lat="45.9055464" lon="11.0867883"><ele>657.0</ele><time>2026-04-30T17:10:53.89Z</time></trkpt><trkpt lat="45.9054852" lon="11.086678"><ele>657.0</ele><time>2026-04-30T17:10:54.891Z</time></trkpt><trkpt lat="45.9054092" lon="11.0865646"><ele>657.0</ele><time>2026-04-30T17:10:55.89Z</time></trkpt><trkpt lat="45.9053418" lon="11.0864426"><ele>657.0</ele><time>2026-04-30T17:10:56.89Z</time></trkpt><trkpt lat="45.9052783" lon="11.0863326"><ele>654.4000000000001</ele><time>2026-04-30T17:10:57.89Z</time></trkpt><trkpt lat="45.9052446" lon="11.0861793"><ele>651.8000000000001</ele><time>2026-04-30T17:10:58.892Z</time></trkpt><trkpt lat="45.9052148" lon="11.0860421"><ele>649.2</ele><time>2026-04-30T17:10:59.891Z</time></trkpt><trkpt lat="45.9051803" lon="11.0859171"><ele>646.6</ele><time>2026-04-30T17:11:00.891Z</time></trkpt><trkpt lat="45.9051206" lon="11.0858167"><ele>644.0</ele><time>2026-04-30T17:11:01.891Z</time></trkpt><trkpt lat="45.9050556" lon="11.0857401"><ele>642.3333333333333</ele><time>2026-04-30T17:11:02.891Z</time></trkpt><trkpt lat="45.9050239" lon="11.0856568"><ele>640.6666666666666</ele><time>2026-04-30T17:11:03.891Z</time></trkpt><trkpt lat="45.9050704" lon="11.0855013"><ele>639.0</ele><time>2026-04-30T17:11:05.891Z</time></trkpt><trkpt lat="45.9051317" lon="11.08542"><ele>637.3333333333334</ele><time>2026-04-30T17:11:06.89Z</time></trkpt><trkpt lat="45.9051981" lon="11.0853585"><ele>635.6666666666667</ele><time>2026-04-30T17:11:07.892Z</time></trkpt><trkpt lat="45.9052649" lon="11.0852754"><ele>634.0</ele><time>2026-04-30T17:11:08.89Z</time></trkpt><trkpt lat="45.9053216" lon="11.0851361"><ele>634.0</ele><time>2026-04-30T17:11:09.892Z</time></trkpt><trkpt lat="45.9053836" lon="11.0850157"><ele>634.0</ele><time>2026-04-30T17:11:10.891Z</time></trkpt><trkpt lat="45.905444" lon="11.0848988"><ele>634.0</ele><time>2026-04-30T17:11:11.89Z</time></trkpt><trkpt lat="45.905498" lon="11.0847768"><ele>634.0</ele><time>2026-04-30T17:11:12.891Z</time></trkpt><trkpt lat="45.9055428" lon="11.0846512"><ele>634.0</ele><time>2026-04-30T17:11:13.891Z</time></trkpt><trkpt lat="45.9055408" lon="11.0845352"><ele>633.2</ele><time>2026-04-30T17:11:14.891Z</time></trkpt><trkpt lat="45.9055255" lon="11.0844042"><ele>632.4</ele><time>2026-04-30T17:11:15.891Z</time></trkpt><trkpt lat="45.9054875" lon="11.0842739"><ele>631.6</ele><time>2026-04-30T17:11:16.89Z</time></trkpt><trkpt lat="45.9054465" lon="11.0841478"><ele>630.8</ele><time>2026-04-30T17:11:17.89Z</time></trkpt><trkpt lat="45.9053779" lon="11.0840507"><ele>630.0</ele><time>2026-04-30T17:11:18.89Z</time></trkpt><trkpt lat="45.9052929" lon="11.0839756"><ele>631.3333333333334</ele><time>2026-04-30T17:11:19.89Z</time></trkpt><trkpt lat="45.9052067" lon="11.0839256"><ele>632.6666666666666</ele><time>2026-04-30T17:11:20.89Z</time></trkpt><trkpt lat="45.9051316" lon="11.0838729"><ele>634.0</ele><time>2026-04-30T17:11:21.89Z</time></trkpt><trkpt lat="45.9050351" lon="11.0837985"><ele>635.3333333333333</ele><time>2026-04-30T17:11:23.891Z</time></trkpt><trkpt lat="45.9050966" lon="11.0837308"><ele>636.6666666666666</ele><time>2026-04-30T17:11:25.891Z</time></trkpt><trkpt lat="45.9051608" lon="11.0837601"><ele>638.0</ele><time>2026-04-30T17:11:26.891Z</time></trkpt><trkpt lat="45.9052409" lon="11.083795"><ele>633.6</ele><time>2026-04-30T17:11:27.892Z</time></trkpt><trkpt lat="45.9053382" lon="11.0838124"><ele>629.1999999999999</ele><time>2026-04-30T17:11:28.89Z</time></trkpt><trkpt lat="45.9054369" lon="11.0838344"><ele>624.8</ele><time>2026-04-30T17:11:29.89Z</time></trkpt><trkpt lat="45.9055301" lon="11.0838565"><ele>620.4</ele><time>2026-04-30T17:11:30.891Z</time></trkpt><trkpt lat="45.9056178" lon="11.0839018"><ele>616.0</ele><time>2026-04-30T17:11:31.891Z</time></trkpt><trkpt lat="45.905699" lon="11.0839758"><ele>616.0</ele><time>2026-04-30T17:11:32.892Z</time></trkpt><trkpt lat="45.9057616" lon="11.0840715"><ele>616.0</ele><time>2026-04-30T17:11:33.891Z</time></trkpt><trkpt lat="45.905825" lon="11.0841576"><ele>616.0</ele><time>2026-04-30T17:11:34.891Z</time></trkpt><trkpt lat="45.9059112" lon="11.0841384"><ele>616.0</ele><time>2026-04-30T17:11:36.891Z</time></trkpt><trkpt lat="45.9058709" lon="11.0839848"><ele>616.0</ele><time>2026-04-30T17:11:38.89Z</time></trkpt><trkpt lat="45.905829" lon="11.0838702"><ele>616.0</ele><time>2026-04-30T17:11:39.892Z</time></trkpt><trkpt lat="45.9058012" lon="11.0837332"><ele>616.0</ele><time>2026-04-30T17:11:40.89Z</time></trkpt><trkpt lat="45.9057595" lon="11.083621"><ele>616.0</ele><time>2026-04-30T17:11:41.892Z</time></trkpt><trkpt lat="45.9056917" lon="11.0835152"><ele>616.0</ele><time>2026-04-30T17:11:42.891Z</time></trkpt><trkpt lat="45.9056204" lon="11.083409"><ele>616.0</ele><time>2026-04-30T17:11:43.891Z</time></trkpt><trkpt lat="45.9055523" lon="11.0833001"><ele>612.0</ele><time>2026-04-30T17:11:44.89Z</time></trkpt><trkpt lat="45.9054875" lon="11.083186"><ele>608.0</ele><time>2026-04-30T17:11:45.891Z</time></trkpt><trkpt lat="45.905408" lon="11.0830819"><ele>604.0</ele><time>2026-04-30T17:11:46.891Z</time></trkpt><trkpt lat="45.9053274" lon="11.0829872"><ele>600.0</ele><time>2026-04-30T17:11:47.892Z</time></trkpt><trkpt lat="45.9052452" lon="11.0829011"><ele>596.0</ele><time>2026-04-30T17:11:48.891Z</time></trkpt><trkpt lat="45.9051658" lon="11.0828333"><ele>596.0</ele><time>2026-04-30T17:11:49.892Z</time></trkpt><trkpt lat="45.905135" lon="11.0827535"><ele>596.0</ele><time>2026-04-30T17:11:52.89Z</time></trkpt><trkpt lat="45.9051886" lon="11.0826897"><ele>596.0</ele><time>2026-04-30T17:11:55.892Z</time></trkpt><trkpt lat="45.9052533" lon="11.0827857"><ele>596.0</ele><time>2026-04-30T17:11:57.892Z</time></trkpt><trkpt lat="45.9053179" lon="11.0828176"><ele>596.0</ele><time>2026-04-30T17:11:58.891Z</time></trkpt><trkpt lat="45.9053995" lon="11.082842"><ele>596.0</ele><time>2026-04-30T17:11:59.89Z</time></trkpt><trkpt lat="45.9054949" lon="11.0828699"><ele>596.0</ele><time>2026-04-30T17:12:00.891Z</time></trkpt><trkpt lat="45.9055909" lon="11.0829089"><ele>596.0</ele><time>2026-04-30T17:12:01.892Z</time></trkpt><trkpt lat="45.9056893" lon="11.0829529"><ele>596.0</ele><time>2026-04-30T17:12:02.891Z</time></trkpt><trkpt lat="45.9057893" lon="11.0829924"><ele>596.0</ele><time>2026-04-30T17:12:03.892Z</time></trkpt><trkpt lat="45.9058893" lon="11.083035"><ele>596.0</ele><time>2026-04-30T17:12:04.891Z</time></trkpt><trkpt lat="45.9060016" lon="11.0831118"><ele>596.5</ele><time>2026-04-30T17:12:05.89Z</time></trkpt><trkpt lat="45.9061062" lon="11.0831796"><ele>597.0</ele><time>2026-04-30T17:12:06.891Z</time></trkpt><trkpt lat="45.906208" lon="11.0832571"><ele>597.5</ele><time>2026-04-30T17:12:07.891Z</time></trkpt><trkpt lat="45.9063145" lon="11.0833085"><ele>598.0</ele><time>2026-04-30T17:12:08.891Z</time></trkpt><trkpt lat="45.9064228" lon="11.083325"><ele>598.0</ele><time>2026-04-30T17:12:09.89Z</time></trkpt><trkpt lat="45.9065397" lon="11.0833229"><ele>598.0</ele><time>2026-04-30T17:12:10.892Z</time></trkpt><trkpt lat="45.9066527" lon="11.0833097"><ele>598.0</ele><time>2026-04-30T17:12:11.891Z</time></trkpt><trkpt lat="45.9067605" lon="11.0833095"><ele>598.0</ele><time>2026-04-30T17:12:12.891Z</time></trkpt><trkpt lat="45.9068649" lon="11.0833273"><ele>598.0</ele><time>2026-04-30T17:12:13.89Z</time></trkpt><trkpt lat="45.9069658" lon="11.0833496"><ele>593.6666666666667</ele><time>2026-04-30T17:12:14.89Z</time></trkpt><trkpt lat="45.9070726" lon="11.08333"><ele>589.3333333333334</ele><time>2026-04-30T17:12:15.891Z</time></trkpt><trkpt lat="45.9071626" lon="11.0833355"><ele>585.0</ele><time>2026-04-30T17:12:16.892Z</time></trkpt><trkpt lat="45.9072395" lon="11.0833386"><ele>580.6666666666666</ele><time>2026-04-30T17:12:17.89Z</time></trkpt><trkpt lat="45.9072998" lon="11.083299"><ele>576.3333333333333</ele><time>2026-04-30T17:12:18.893Z</time></trkpt><trkpt lat="45.9073352" lon="11.0832224"><ele>572.0</ele><time>2026-04-30T17:12:19.891Z</time></trkpt><trkpt lat="45.9073588" lon="11.0831365"><ele>571.2</ele><time>2026-04-30T17:12:20.893Z</time></trkpt><trkpt lat="45.9073115" lon="11.0830583"><ele>570.4000000000001</ele><time>2026-04-30T17:12:21.891Z</time></trkpt><trkpt lat="45.9072511" lon="11.0830257"><ele>569.5999999999999</ele><time>2026-04-30T17:12:22.891Z</time></trkpt><trkpt lat="45.9071578" lon="11.0830127"><ele>568.8</ele><time>2026-04-30T17:12:23.891Z</time></trkpt><trkpt lat="45.9070571" lon="11.0829866"><ele>568.0</ele><time>2026-04-30T17:12:24.892Z</time></trkpt><trkpt lat="45.9069384" lon="11.0829118"><ele>568.0</ele><time>2026-04-30T17:12:25.891Z</time></trkpt><trkpt lat="45.9068406" lon="11.0828417"><ele>568.0</ele><time>2026-04-30T17:12:26.891Z</time></trkpt><trkpt lat="45.9067527" lon="11.0827413"><ele>568.0</ele><time>2026-04-30T17:12:27.89Z</time></trkpt><trkpt lat="45.9066684" lon="11.0826197"><ele>568.0</ele><time>2026-04-30T17:12:28.891Z</time></trkpt><trkpt lat="45.9065911" lon="11.0824889"><ele>566.25</ele><time>2026-04-30T17:12:29.891Z</time></trkpt><trkpt lat="45.9065077" lon="11.082356"><ele>564.5</ele><time>2026-04-30T17:12:30.891Z</time></trkpt><trkpt lat="45.9064307" lon="11.082225"><ele>562.75</ele><time>2026-04-30T17:12:31.891Z</time></trkpt><trkpt lat="45.9063449" lon="11.082108"><ele>561.0</ele><time>2026-04-30T17:12:32.891Z</time></trkpt><trkpt lat="45.9062665" lon="11.0819909"><ele>561.0</ele><time>2026-04-30T17:12:33.892Z</time></trkpt><trkpt lat="45.9062199" lon="11.0818699"><ele>561.0</ele><time>2026-04-30T17:12:34.89Z</time></trkpt><trkpt lat="45.9062259" lon="11.081688"><ele>561.0</ele><time>2026-04-30T17:12:35.891Z</time></trkpt><trkpt lat="45.9062371" lon="11.0815283"><ele>561.0</ele><time>2026-04-30T17:12:36.891Z</time></trkpt><trkpt lat="45.9062358" lon="11.0813706"><ele>561.0</ele><time>2026-04-30T17:12:37.892Z</time></trkpt><trkpt lat="45.9062422" lon="11.0811982"><ele>559.0</ele><time>2026-04-30T17:12:38.892Z</time></trkpt><trkpt lat="45.9062361" lon="11.0810242"><ele>557.0</ele><time>2026-04-30T17:12:39.892Z</time></trkpt><trkpt lat="45.9062109" lon="11.0808681"><ele>555.0</ele><time>2026-04-30T17:12:40.892Z</time></trkpt><trkpt lat="45.9061904" lon="11.0807334"><ele>553.0</ele><time>2026-04-30T17:12:41.89Z</time></trkpt><trkpt lat="45.9062032" lon="11.0805898"><ele>551.0</ele><time>2026-04-30T17:12:42.892Z</time></trkpt><trkpt lat="45.9062347" lon="11.0804406"><ele>549.8</ele><time>2026-04-30T17:12:43.89Z</time></trkpt><trkpt lat="45.906251" lon="11.080296"><ele>548.6</ele><time>2026-04-30T17:12:44.892Z</time></trkpt><trkpt lat="45.9062709" lon="11.0801301"><ele>547.4</ele><time>2026-04-30T17:12:45.891Z</time></trkpt><trkpt lat="45.9062963" lon="11.0799663"><ele>546.2</ele><time>2026-04-30T17:12:46.892Z</time></trkpt><trkpt lat="45.9063519" lon="11.0798266"><ele>545.0</ele><time>2026-04-30T17:12:47.891Z</time></trkpt><trkpt lat="45.9064004" lon="11.079741"><ele>543.2</ele><time>2026-04-30T17:12:48.892Z</time></trkpt><trkpt lat="45.9064615" lon="11.079698"><ele>541.4</ele><time>2026-04-30T17:12:49.892Z</time></trkpt><trkpt lat="45.9065493" lon="11.0796914"><ele>539.6</ele><time>2026-04-30T17:12:50.89Z</time></trkpt><trkpt lat="45.9066559" lon="11.0797231"><ele>537.8</ele><time>2026-04-30T17:12:51.892Z</time></trkpt><trkpt lat="45.9067566" lon="11.0797597"><ele>536.0</ele><time>2026-04-30T17:12:52.891Z</time></trkpt><trkpt lat="45.9068609" lon="11.0797833"><ele>530.6</ele><time>2026-04-30T17:12:53.891Z</time></trkpt><trkpt lat="45.9069632" lon="11.0797471"><ele>525.2</ele><time>2026-04-30T17:12:54.891Z</time></trkpt><trkpt lat="45.9070527" lon="11.0796991"><ele>519.8</ele><time>2026-04-30T17:12:55.891Z</time></trkpt><trkpt lat="45.9071405" lon="11.0796768"><ele>514.4</ele><time>2026-04-30T17:12:56.891Z</time></trkpt><trkpt lat="45.9072385" lon="11.0796825"><ele>509.0</ele><time>2026-04-30T17:12:57.891Z</time></trkpt><trkpt lat="45.9073428" lon="11.0797454"><ele>509.0</ele><time>2026-04-30T17:12:58.891Z</time></trkpt><trkpt lat="45.9074496" lon="11.0798043"><ele>509.0</ele><time>2026-04-30T17:12:59.892Z</time></trkpt><trkpt lat="45.907568" lon="11.079876"><ele>509.0</ele><time>2026-04-30T17:13:00.891Z</time></trkpt><trkpt lat="45.9076853" lon="11.0799378"><ele>509.0</ele><time>2026-04-30T17:13:01.89Z</time></trkpt><trkpt lat="45.9078003" lon="11.0800075"><ele>509.75</ele><time>2026-04-30T17:13:02.891Z</time></trkpt><trkpt lat="45.9079123" lon="11.0800676"><ele>510.5</ele><time>2026-04-30T17:13:03.89Z</time></trkpt><trkpt lat="45.9080276" lon="11.0801136"><ele>511.25</ele><time>2026-04-30T17:13:04.892Z</time></trkpt><trkpt lat="45.9081473" lon="11.0801717"><ele>512.0</ele><time>2026-04-30T17:13:05.893Z</time></trkpt><trkpt lat="45.9082574" lon="11.0802108"><ele>512.0</ele><time>2026-04-30T17:13:06.891Z</time></trkpt><trkpt lat="45.9083567" lon="11.0802345"><ele>512.0</ele><time>2026-04-30T17:13:07.89Z</time></trkpt><trkpt lat="45.9084377" lon="11.0802293"><ele>512.0</ele><time>2026-04-30T17:13:08.891Z</time></trkpt><trkpt lat="45.9085181" lon="11.0801642"><ele>512.0</ele><time>2026-04-30T17:13:09.891Z</time></trkpt><trkpt lat="45.9085811" lon="11.080079"><ele>512.0</ele><time>2026-04-30T17:13:10.89Z</time></trkpt><trkpt lat="45.908632" lon="11.0799728"><ele>508.20000000000005</ele><time>2026-04-30T17:13:11.89Z</time></trkpt><trkpt lat="45.9086619" lon="11.0798565"><ele>504.40000000000003</ele><time>2026-04-30T17:13:12.891Z</time></trkpt><trkpt lat="45.9086742" lon="11.0797475"><ele>500.59999999999997</ele><time>2026-04-30T17:13:13.892Z</time></trkpt><trkpt lat="45.9086006" lon="11.079619"><ele>496.79999999999995</ele><time>2026-04-30T17:13:15.891Z</time></trkpt><trkpt lat="45.9085092" lon="11.0795816"><ele>493.0</ele><time>2026-04-30T17:13:16.891Z</time></trkpt><trkpt lat="45.9084086" lon="11.0795338"><ele>493.0</ele><time>2026-04-30T17:13:17.892Z</time></trkpt><trkpt lat="45.9082841" lon="11.0794635"><ele>493.0</ele><time>2026-04-30T17:13:18.891Z</time></trkpt><trkpt lat="45.9081802" lon="11.079382"><ele>493.0</ele><time>2026-04-30T17:13:19.891Z</time></trkpt><trkpt lat="45.9080722" lon="11.0793114"><ele>493.0</ele><time>2026-04-30T17:13:20.891Z</time></trkpt><trkpt lat="45.9079747" lon="11.0792278"><ele>493.0</ele><time>2026-04-30T17:13:21.89Z</time></trkpt><trkpt lat="45.9078823" lon="11.0791416"><ele>492.99999999999994</ele><time>2026-04-30T17:13:22.891Z</time></trkpt><trkpt lat="45.9078094" lon="11.0790255"><ele>492.99999999999994</ele><time>2026-04-30T17:13:23.891Z</time></trkpt><trkpt lat="45.9077535" lon="11.0789036"><ele>493.0</ele><time>2026-04-30T17:13:24.891Z</time></trkpt><trkpt lat="45.9077081" lon="11.0787582"><ele>493.0</ele><time>2026-04-30T17:13:25.89Z</time></trkpt><trkpt lat="45.9076851" lon="11.078615"><ele>487.75</ele><time>2026-04-30T17:13:26.892Z</time></trkpt><trkpt lat="45.9076533" lon="11.0784761"><ele>482.5</ele><time>2026-04-30T17:13:27.891Z</time></trkpt><trkpt lat="45.9075935" lon="11.0783323"><ele>477.25</ele><time>2026-04-30T17:13:28.891Z</time></trkpt><trkpt lat="45.9075236" lon="11.0781823"><ele>472.0</ele><time>2026-04-30T17:13:29.891Z</time></trkpt><trkpt lat="45.9074418" lon="11.078038"><ele>471.5</ele><time>2026-04-30T17:13:30.891Z</time></trkpt><trkpt lat="45.9073577" lon="11.0778848"><ele>471.0</ele><time>2026-04-30T17:13:31.892Z</time></trkpt><trkpt lat="45.9072772" lon="11.0777435"><ele>470.5</ele><time>2026-04-30T17:13:32.891Z</time></trkpt><trkpt lat="45.9071921" lon="11.0776512"><ele>470.0</ele><time>2026-04-30T17:13:33.891Z</time></trkpt><trkpt lat="45.9071364" lon="11.0775682"><ele>470.0</ele><time>2026-04-30T17:13:34.892Z</time></trkpt><trkpt lat="45.9071597" lon="11.0774767"><ele>470.0</ele><time>2026-04-30T17:13:36.891Z</time></trkpt><trkpt lat="45.9072485" lon="11.0775511"><ele>470.0</ele><time>2026-04-30T17:13:38.891Z</time></trkpt><trkpt lat="45.9073576" lon="11.0776417"><ele>470.0</ele><time>2026-04-30T17:13:39.891Z</time></trkpt><trkpt lat="45.9074684" lon="11.0777235"><ele>470.0</ele><time>2026-04-30T17:13:40.892Z</time></trkpt><trkpt lat="45.9075829" lon="11.0778037"><ele>465.75</ele><time>2026-04-30T17:13:41.892Z</time></trkpt><trkpt lat="45.9076981" lon="11.0778911"><ele>461.5</ele><time>2026-04-30T17:13:42.891Z</time></trkpt><trkpt lat="45.9078171" lon="11.0779783"><ele>457.25</ele><time>2026-04-30T17:13:43.891Z</time></trkpt><trkpt lat="45.9079346" lon="11.0780591"><ele>453.0</ele><time>2026-04-30T17:13:44.892Z</time></trkpt><trkpt lat="45.9080236" lon="11.0781717"><ele>453.0</ele><time>2026-04-30T17:13:45.891Z</time></trkpt><trkpt lat="45.9081316" lon="11.0782418"><ele>453.0</ele><time>2026-04-30T17:13:46.892Z</time></trkpt><trkpt lat="45.9082651" lon="11.0782543"><ele>453.0</ele><time>2026-04-30T17:13:47.892Z</time></trkpt><trkpt lat="45.9083899" lon="11.0782381"><ele>453.0</ele><time>2026-04-30T17:13:48.893Z</time></trkpt><trkpt lat="45.9085139" lon="11.0782086"><ele>450.79999999999995</ele><time>2026-04-30T17:13:49.891Z</time></trkpt><trkpt lat="45.9086238" lon="11.0781881"><ele>448.59999999999997</ele><time>2026-04-30T17:13:50.891Z</time></trkpt><trkpt lat="45.9087308" lon="11.0781656"><ele>446.40000000000003</ele><time>2026-04-30T17:13:51.893Z</time></trkpt><trkpt lat="45.9088345" lon="11.078153"><ele>444.20000000000005</ele><time>2026-04-30T17:13:52.891Z</time></trkpt><trkpt lat="45.9089308" lon="11.0781268"><ele>442.0</ele><time>2026-04-30T17:13:53.89Z</time></trkpt><trkpt lat="45.9090218" lon="11.0780835"><ele>442.0</ele><time>2026-04-30T17:13:54.892Z</time></trkpt><trkpt lat="45.9091063" lon="11.078026"><ele>442.00000000000006</ele><time>2026-04-30T17:13:55.89Z</time></trkpt><trkpt lat="45.909185" lon="11.0779691"><ele>442.00000000000006</ele><time>2026-04-30T17:13:56.891Z</time></trkpt><trkpt lat="45.9093004" lon="11.0779364"><ele>442.0</ele><time>2026-04-30T17:13:58.891Z</time></trkpt><trkpt lat="45.9093657" lon="11.0780042"><ele>442.0</ele><time>2026-04-30T17:13:59.891Z</time></trkpt><trkpt lat="45.9094487" lon="11.0780985"><ele>441.0</ele><time>2026-04-30T17:14:00.891Z</time></trkpt><trkpt lat="45.9095456" lon="11.0782375"><ele>440.00000000000006</ele><time>2026-04-30T17:14:01.891Z</time></trkpt><trkpt lat="45.9096157" lon="11.0783554"><ele>439.00000000000006</ele><time>2026-04-30T17:14:02.891Z</time></trkpt><trkpt lat="45.9096851" lon="11.0784602"><ele>438.0</ele><time>2026-04-30T17:14:03.893Z</time></trkpt><trkpt lat="45.9097649" lon="11.0784943"><ele>437.0</ele><time>2026-04-30T17:14:04.892Z</time></trkpt><trkpt lat="45.9098333" lon="11.0785173"><ele>437.0</ele><time>2026-04-30T17:14:05.89Z</time></trkpt><trkpt lat="45.9099347" lon="11.0785723"><ele>437.00000000000006</ele><time>2026-04-30T17:14:07.891Z</time></trkpt><trkpt lat="45.9099645" lon="11.0786929"><ele>437.00000000000006</ele><time>2026-04-30T17:14:08.891Z</time></trkpt><trkpt lat="45.9100318" lon="11.0787648"><ele>437.0</ele><time>2026-04-30T17:14:09.892Z</time></trkpt><trkpt lat="45.9101306" lon="11.0788303"><ele>437.0</ele><time>2026-04-30T17:14:10.891Z</time></trkpt><trkpt lat="45.9102267" lon="11.0788997"><ele>432.20000000000005</ele><time>2026-04-30T17:14:11.891Z</time></trkpt><trkpt lat="45.9103245" lon="11.0789736"><ele>427.40000000000003</ele><time>2026-04-30T17:14:12.891Z</time></trkpt><trkpt lat="45.9104074" lon="11.0790519"><ele>422.6</ele><time>2026-04-30T17:14:13.891Z</time></trkpt><trkpt lat="45.9104664" lon="11.0791344"><ele>417.79999999999995</ele><time>2026-04-30T17:14:14.892Z</time></trkpt><trkpt lat="45.9105154" lon="11.0792175"><ele>413.0</ele><time>2026-04-30T17:14:15.893Z</time></trkpt><trkpt lat="45.910548" lon="11.0793436"><ele>413.0</ele><time>2026-04-30T17:14:16.891Z</time></trkpt><trkpt lat="45.9105665" lon="11.0794953"><ele>413.0</ele><time>2026-04-30T17:14:17.89Z</time></trkpt><trkpt lat="45.9105887" lon="11.0796558"><ele>413.0</ele><time>2026-04-30T17:14:18.89Z</time></trkpt><trkpt lat="45.9106051" lon="11.0798153"><ele>413.0</ele><time>2026-04-30T17:14:19.891Z</time></trkpt><trkpt lat="45.9106184" lon="11.0799669"><ele>413.0</ele><time>2026-04-30T17:14:20.891Z</time></trkpt><trkpt lat="45.9106225" lon="11.0801149"><ele>413.59999999999997</ele><time>2026-04-30T17:14:21.892Z</time></trkpt><trkpt lat="45.910613" lon="11.0802554"><ele>414.2</ele><time>2026-04-30T17:14:22.891Z</time></trkpt><trkpt lat="45.9105697" lon="11.080364"><ele>414.8</ele><time>2026-04-30T17:14:23.89Z</time></trkpt><trkpt lat="45.9105074" lon="11.0805075"><ele>415.4</ele><time>2026-04-30T17:14:24.892Z</time></trkpt><trkpt lat="45.9104627" lon="11.0806428"><ele>416.0</ele><time>2026-04-30T17:14:25.891Z</time></trkpt><trkpt lat="45.9104214" lon="11.0807686"><ele>414.8333333333333</ele><time>2026-04-30T17:14:26.892Z</time></trkpt><trkpt lat="45.9104325" lon="11.0808747"><ele>413.66666666666663</ele><time>2026-04-30T17:14:27.89Z</time></trkpt><trkpt lat="45.9104626" lon="11.0809547"><ele>412.5</ele><time>2026-04-30T17:14:28.891Z</time></trkpt><trkpt lat="45.91053" lon="11.0810268"><ele>411.33333333333337</ele><time>2026-04-30T17:14:29.892Z</time></trkpt><trkpt lat="45.9106091" lon="11.0811099"><ele>410.1666666666667</ele><time>2026-04-30T17:14:30.891Z</time></trkpt><trkpt lat="45.9106959" lon="11.0812133"><ele>409.0</ele><time>2026-04-30T17:14:31.891Z</time></trkpt><trkpt lat="45.9107666" lon="11.0813315"><ele>409.0</ele><time>2026-04-30T17:14:32.892Z</time></trkpt><trkpt lat="45.9108237" lon="11.0814629"><ele>409.0</ele><time>2026-04-30T17:14:33.891Z</time></trkpt><trkpt lat="45.9108612" lon="11.0816025"><ele>409.0</ele><time>2026-04-30T17:14:34.891Z</time></trkpt><trkpt lat="45.9108761" lon="11.0817462"><ele>409.0</ele><time>2026-04-30T17:14:35.891Z</time></trkpt><trkpt lat="45.9108582" lon="11.081885"><ele>409.0</ele><time>2026-04-30T17:14:36.892Z</time></trkpt><trkpt lat="45.9108304" lon="11.0820387"><ele>408.5</ele><time>2026-04-30T17:14:37.892Z</time></trkpt><trkpt lat="45.9107793" lon="11.082215"><ele>408.0</ele><time>2026-04-30T17:14:38.892Z</time></trkpt><trkpt lat="45.9107349" lon="11.0823814"><ele>407.5</ele><time>2026-04-30T17:14:39.891Z</time></trkpt><trkpt lat="45.9106899" lon="11.0825531"><ele>407.0</ele><time>2026-04-30T17:14:40.891Z</time></trkpt><trkpt lat="45.9106604" lon="11.0827265"><ele>404.75</ele><time>2026-04-30T17:14:41.892Z</time></trkpt><trkpt lat="45.910635" lon="11.0829046"><ele>402.5</ele><time>2026-04-30T17:14:42.891Z</time></trkpt><trkpt lat="45.9105989" lon="11.0830711"><ele>400.25</ele><time>2026-04-30T17:14:43.891Z</time></trkpt><trkpt lat="45.9105578" lon="11.0832242"><ele>398.0</ele><time>2026-04-30T17:14:44.89Z</time></trkpt><trkpt lat="45.9105528" lon="11.0833908"><ele>397.49999999999994</ele><time>2026-04-30T17:14:45.89Z</time></trkpt><trkpt lat="45.9105392" lon="11.0835498"><ele>397.0</ele><time>2026-04-30T17:14:46.891Z</time></trkpt><trkpt lat="45.9105693" lon="11.0836686"><ele>396.5</ele><time>2026-04-30T17:14:47.89Z</time></trkpt><trkpt lat="45.9106068" lon="11.0837609"><ele>396.0</ele><time>2026-04-30T17:14:48.892Z</time></trkpt><trkpt lat="45.9106473" lon="11.0838632"><ele>395.49999999999994</ele><time>2026-04-30T17:14:50.891Z</time></trkpt><trkpt lat="45.9107295" lon="11.0838648"><ele>395.0</ele><time>2026-04-30T17:16:11.891Z</time></trkpt><trkpt lat="45.9108135" lon="11.0839194"><ele>394.99999999999994</ele><time>2026-04-30T17:16:13.892Z</time></trkpt><trkpt lat="45.9108826" lon="11.0839396"><ele>395.0</ele><time>2026-04-30T17:16:15.891Z</time></trkpt><trkpt lat="45.9109516" lon="11.0840018"><ele>395.0</ele><time>2026-04-30T17:16:18.891Z</time></trkpt><trkpt lat="45.9110014" lon="11.0840968"><ele>395.0</ele><time>2026-04-30T17:16:21.892Z</time></trkpt><trkpt lat="45.9109727" lon="11.0840132"><ele>394.99999999999994</ele><time>2026-04-30T17:17:23.892Z</time></trkpt><trkpt lat="45.9109083" lon="11.0839703"><ele>395.0</ele><time>2026-04-30T17:17:25.893Z</time></trkpt><trkpt lat="45.9108228" lon="11.0839659"><ele>394.99999999999994</ele><time>2026-04-30T17:17:28.89Z</time></trkpt><trkpt lat="45.9107402" lon="11.0839021"><ele>395.0</ele><time>2026-04-30T17:17:30.891Z</time></trkpt><trkpt lat="45.9106606" lon="11.0838716"><ele>395.0</ele><time>2026-04-30T17:17:32.891Z</time></trkpt><trkpt lat="45.9106187" lon="11.0837862"><ele>395.0</ele><time>2026-04-30T17:17:35.89Z</time></trkpt><trkpt lat="45.9106548" lon="11.0836874"><ele>394.99999999999994</ele><time>2026-04-30T17:17:50.892Z</time></trkpt><trkpt lat="45.9107061" lon="11.0836016"><ele>395.0</ele><time>2026-04-30T17:17:52.892Z</time></trkpt><trkpt lat="45.9107491" lon="11.0835013"><ele>394.99999999999994</ele><time>2026-04-30T17:17:55.891Z</time></trkpt><trkpt lat="45.9108016" lon="11.0834112"><ele>395.0</ele><time>2026-04-30T17:17:57.892Z</time></trkpt><trkpt lat="45.9108601" lon="11.0833396"><ele>395.0</ele><time>2026-04-30T17:17:59.892Z</time></trkpt><trkpt lat="45.9109029" lon="11.0832376"><ele>395.0</ele><time>2026-04-30T17:18:01.891Z</time></trkpt><trkpt lat="45.9109564" lon="11.0831315"><ele>394.99999999999994</ele><time>2026-04-30T17:18:03.892Z</time></trkpt><trkpt lat="45.9110225" lon="11.0830041"><ele>395.0</ele><time>2026-04-30T17:18:05.892Z</time></trkpt><trkpt lat="45.9110592" lon="11.0829035"><ele>392.16666666666663</ele><time>2026-04-30T17:18:07.892Z</time></trkpt><trkpt lat="45.9111002" lon="11.0827949"><ele>389.3333333333333</ele><time>2026-04-30T17:18:09.891Z</time></trkpt><trkpt lat="45.9111329" lon="11.0827165"><ele>386.5</ele><time>2026-04-30T17:18:12.891Z</time></trkpt><trkpt lat="45.9111695" lon="11.0826189"><ele>383.66666666666663</ele><time>2026-04-30T17:18:16.891Z</time></trkpt><trkpt lat="45.9111987" lon="11.0825316"><ele>380.8333333333333</ele><time>2026-04-30T17:18:19.891Z</time></trkpt><trkpt lat="45.9112588" lon="11.0824101"><ele>378.0</ele><time>2026-04-30T17:18:22.892Z</time></trkpt><trkpt lat="45.9112967" lon="11.0822971"><ele>376.0</ele><time>2026-04-30T17:18:24.893Z</time></trkpt><trkpt lat="45.9113472" lon="11.0821891"><ele>374.0</ele><time>2026-04-30T17:18:26.891Z</time></trkpt><trkpt lat="45.9113961" lon="11.0820553"><ele>372.0</ele><time>2026-04-30T17:18:28.892Z</time></trkpt><trkpt lat="45.9114416" lon="11.0819453"><ele>370.0</ele><time>2026-04-30T17:18:30.892Z</time></trkpt><trkpt lat="45.9114942" lon="11.0818175"><ele>368.0</ele><time>2026-04-30T17:18:32.892Z</time></trkpt><trkpt lat="45.9115288" lon="11.0817213"><ele>368.0</ele><time>2026-04-30T17:18:34.891Z</time></trkpt><trkpt lat="45.9115629" lon="11.0816413"><ele>368.0</ele><time>2026-04-30T17:18:36.891Z</time></trkpt><trkpt lat="45.9115979" lon="11.0815372"><ele>368.0</ele><time>2026-04-30T17:18:39.89Z</time></trkpt><trkpt lat="45.9116545" lon="11.0814588"><ele>368.0</ele><time>2026-04-30T17:18:42.892Z</time></trkpt><trkpt lat="45.9117001" lon="11.0813931"><ele>368.0</ele><time>2026-04-30T17:18:47.892Z</time></trkpt><trkpt lat="45.9117388" lon="11.0813061"><ele>368.0</ele><time>2026-04-30T17:18:51.891Z</time></trkpt><trkpt lat="45.911775" lon="11.0812276"><ele>368.0</ele><time>2026-04-30T17:18:58.892Z</time></trkpt><trkpt lat="45.9117935" lon="11.0811321"><ele>362.79999999999995</ele><time>2026-04-30T17:19:05.892Z</time></trkpt><trkpt lat="45.9118302" lon="11.0810137"><ele>357.6</ele><time>2026-04-30T17:19:11.892Z</time></trkpt><trkpt lat="45.9118749" lon="11.0809346"><ele>352.4</ele><time>2026-04-30T17:19:47.892Z</time></trkpt><trkpt lat="45.9119213" lon="11.080845"><ele>347.20000000000005</ele><time>2026-04-30T17:19:57.891Z</time></trkpt><trkpt lat="45.9119644" lon="11.0807516"><ele>342.0</ele><time>2026-04-30T17:19:59.891Z</time></trkpt><trkpt lat="45.9120285" lon="11.0805799"><ele>339.8333333333333</ele><time>2026-04-30T17:20:01.892Z</time></trkpt><trkpt lat="45.9120463" lon="11.0804551"><ele>337.6666666666667</ele><time>2026-04-30T17:20:03.892Z</time></trkpt><trkpt lat="45.9121078" lon="11.0803457"><ele>335.5</ele><time>2026-04-30T17:20:05.892Z</time></trkpt><trkpt lat="45.9121702" lon="11.0802644"><ele>333.33333333333337</ele><time>2026-04-30T17:20:07.891Z</time></trkpt><trkpt lat="45.9122407" lon="11.0802162"><ele>331.1666666666667</ele><time>2026-04-30T17:20:09.892Z</time></trkpt><trkpt lat="45.9122683" lon="11.0801158"><ele>329.0</ele><time>2026-04-30T17:20:34.891Z</time></trkpt><trkpt lat="45.912311" lon="11.0800385"><ele>329.0</ele><time>2026-04-30T17:20:45.892Z</time></trkpt><trkpt lat="45.9123528" lon="11.0799574"><ele>329.0</ele><time>2026-04-30T17:20:51.892Z</time></trkpt><trkpt lat="45.9123648" lon="11.0798627"><ele>329.0</ele><time>2026-04-30T17:20:53.891Z</time></trkpt><trkpt lat="45.9123559" lon="11.0797277"><ele>329.0</ele><time>2026-04-30T17:20:55.892Z</time></trkpt><trkpt lat="45.9123372" lon="11.0795908"><ele>329.0</ele><time>2026-04-30T17:20:57.891Z</time></trkpt><trkpt lat="45.9123206" lon="11.0795015"><ele>329.0</ele><time>2026-04-30T17:20:58.891Z</time></trkpt><trkpt lat="45.912315" lon="11.0793819"><ele>327.5</ele><time>2026-04-30T17:20:59.892Z</time></trkpt><trkpt lat="45.9123196" lon="11.0792645"><ele>326.0</ele><time>2026-04-30T17:21:00.892Z</time></trkpt><trkpt lat="45.9123184" lon="11.079132"><ele>324.5</ele><time>2026-04-30T17:21:01.892Z</time></trkpt><trkpt lat="45.9123284" lon="11.0790371"><ele>323.0</ele><time>2026-04-30T17:21:02.891Z</time></trkpt><trkpt lat="45.9123203" lon="11.0789459"><ele>321.5</ele><time>2026-04-30T17:21:03.893Z</time></trkpt><trkpt lat="45.9123215" lon="11.0788155"><ele>320.0</ele><time>2026-04-30T17:21:05.891Z</time></trkpt><trkpt lat="45.9122836" lon="11.0786442"><ele>317.2</ele><time>2026-04-30T17:21:07.891Z</time></trkpt><trkpt lat="45.9122317" lon="11.0784734"><ele>314.4</ele><time>2026-04-30T17:21:09.892Z</time></trkpt><trkpt lat="45.9122047" lon="11.0783501"><ele>311.6</ele><time>2026-04-30T17:21:10.892Z</time></trkpt><trkpt lat="45.9121746" lon="11.0782484"><ele>308.8</ele><time>2026-04-30T17:21:11.891Z</time></trkpt><trkpt lat="45.9121455" lon="11.0781636"><ele>306.0</ele><time>2026-04-30T17:21:12.892Z</time></trkpt><trkpt lat="45.9121184" lon="11.0780435"><ele>304.0</ele><time>2026-04-30T17:21:14.892Z</time></trkpt><trkpt lat="45.912128" lon="11.0779408"><ele>302.0</ele><time>2026-04-30T17:21:49.891Z</time></trkpt><trkpt lat="45.9121312" lon="11.0778253"><ele>300.0</ele><time>2026-04-30T17:21:54.891Z</time></trkpt><trkpt lat="45.912132" lon="11.0777095"><ele>298.0</ele><time>2026-04-30T17:21:57.891Z</time></trkpt><trkpt lat="45.9121266" lon="11.0775686"><ele>296.0</ele><time>2026-04-30T17:21:59.891Z</time></trkpt><trkpt lat="45.9120765" lon="11.0774652"><ele>294.0</ele><time>2026-04-30T17:22:01.891Z</time></trkpt><trkpt lat="45.912038" lon="11.0773927"><ele>293.1666666666667</ele><time>2026-04-30T17:22:03.891Z</time></trkpt><trkpt lat="45.9119691" lon="11.0772277"><ele>292.3333333333333</ele><time>2026-04-30T17:22:05.892Z</time></trkpt><trkpt lat="45.9119539" lon="11.0770927"><ele>291.5</ele><time>2026-04-30T17:22:06.891Z</time></trkpt><trkpt lat="45.9119545" lon="11.0769906"><ele>290.66666666666663</ele><time>2026-04-30T17:22:07.892Z</time></trkpt><trkpt lat="45.9119705" lon="11.0768949"><ele>289.8333333333333</ele><time>2026-04-30T17:22:08.892Z</time></trkpt><trkpt lat="45.9120117" lon="11.0767951"><ele>289.0</ele><time>2026-04-30T17:22:09.892Z</time></trkpt><trkpt lat="45.9120605" lon="11.0767187"><ele>289.0</ele><time>2026-04-30T17:22:10.892Z</time></trkpt><trkpt lat="45.912114" lon="11.0766267"><ele>289.0</ele><time>2026-04-30T17:22:12.892Z</time></trkpt><trkpt lat="45.912163" lon="11.0765052"><ele>289.0</ele><time>2026-04-30T17:22:14.891Z</time></trkpt><trkpt lat="45.9122096" lon="11.0763884"><ele>289.0</ele><time>2026-04-30T17:22:16.891Z</time></trkpt><trkpt lat="45.9122484" lon="11.0762645"><ele>289.0</ele><time>2026-04-30T17:22:18.893Z</time></trkpt><trkpt lat="45.9122855" lon="11.076138"><ele>288.59999999999997</ele><time>2026-04-30T17:22:20.892Z</time></trkpt><trkpt lat="45.9123105" lon="11.0760347"><ele>288.2</ele><time>2026-04-30T17:22:22.891Z</time></trkpt><trkpt lat="45.9122868" lon="11.0759105"><ele>287.79999999999995</ele><time>2026-04-30T17:22:25.892Z</time></trkpt><trkpt lat="45.91225" lon="11.0757127"><ele>287.4</ele><time>2026-04-30T17:22:27.892Z</time></trkpt><trkpt lat="45.9122437" lon="11.0755892"><ele>287.0</ele><time>2026-04-30T17:22:28.891Z</time></trkpt><trkpt lat="45.9122307" lon="11.0754788"><ele>286.14285714285717</ele><time>2026-04-30T17:22:29.892Z</time></trkpt><trkpt lat="45.9122303" lon="11.0753748"><ele>285.2857142857143</ele><time>2026-04-30T17:22:32.891Z</time></trkpt><trkpt lat="45.9122088" lon="11.0752736"><ele>284.42857142857144</ele><time>2026-04-30T17:22:34.892Z</time></trkpt><trkpt lat="45.9121715" lon="11.0751344"><ele>283.57142857142856</ele><time>2026-04-30T17:22:36.891Z</time></trkpt><trkpt lat="45.9121412" lon="11.0750479"><ele>282.7142857142857</ele><time>2026-04-30T17:22:37.892Z</time></trkpt><trkpt lat="45.9121211" lon="11.0749562"><ele>281.8571428571429</ele><time>2026-04-30T17:22:38.891Z</time></trkpt><trkpt lat="45.912106" lon="11.074865"><ele>281.0</ele><time>2026-04-30T17:22:39.892Z</time></trkpt><trkpt lat="45.9120785" lon="11.074733"><ele>279.7142857142857</ele><time>2026-04-30T17:22:41.891Z</time></trkpt><trkpt lat="45.9120603" lon="11.0746286"><ele>278.42857142857144</ele><time>2026-04-30T17:22:43.891Z</time></trkpt><trkpt lat="45.91203" lon="11.0745449"><ele>277.1428571428571</ele><time>2026-04-30T17:22:45.891Z</time></trkpt><trkpt lat="45.911998" lon="11.0744492"><ele>275.8571428571429</ele><time>2026-04-30T17:22:47.892Z</time></trkpt><trkpt lat="45.9119729" lon="11.074358"><ele>274.57142857142856</ele><time>2026-04-30T17:22:49.892Z</time></trkpt><trkpt lat="45.9119929" lon="11.0742596"><ele>273.2857142857143</ele><time>2026-04-30T17:22:51.891Z</time></trkpt><trkpt lat="45.912035" lon="11.074148"><ele>272.0</ele><time>2026-04-30T17:22:54.891Z</time></trkpt><trkpt lat="45.9120475" lon="11.0740405"><ele>270.2857142857143</ele><time>2026-04-30T17:22:57.891Z</time></trkpt><trkpt lat="45.9120544" lon="11.0739452"><ele>268.57142857142856</ele><time>2026-04-30T17:22:59.892Z</time></trkpt><trkpt lat="45.9121052" lon="11.0738599"><ele>266.8571428571429</ele><time>2026-04-30T17:23:02.891Z</time></trkpt><trkpt lat="45.9121681" lon="11.0738221"><ele>265.1428571428571</ele><time>2026-04-30T17:23:04.892Z</time></trkpt><trkpt lat="45.9122344" lon="11.0737777"><ele>263.42857142857144</ele><time>2026-04-30T17:23:06.891Z</time></trkpt><trkpt lat="45.9122951" lon="11.0737022"><ele>261.7142857142857</ele><time>2026-04-30T17:23:09.892Z</time></trkpt><trkpt lat="45.9123327" lon="11.0736112"><ele>260.0</ele><time>2026-04-30T17:23:12.892Z</time></trkpt><trkpt lat="45.9123048" lon="11.0734996"><ele>260.0</ele><time>2026-04-30T17:23:15.892Z</time></trkpt><trkpt lat="45.9122492" lon="11.0734507"><ele>260.0</ele><time>2026-04-30T17:23:17.892Z</time></trkpt><trkpt lat="45.9121908" lon="11.0734015"><ele>260.0</ele><time>2026-04-30T17:23:19.891Z</time></trkpt><trkpt lat="45.9121294" lon="11.0733104"><ele>260.0</ele><time>2026-04-30T17:23:21.891Z</time></trkpt><trkpt lat="45.9120985" lon="11.0731856"><ele>260.0</ele><time>2026-04-30T17:23:23.892Z</time></trkpt><trkpt lat="45.912149" lon="11.0731047"><ele>260.0</ele><time>2026-04-30T17:23:25.891Z</time></trkpt><trkpt lat="45.9122477" lon="11.073141"><ele>260.0</ele><time>2026-04-30T17:23:30.891Z</time></trkpt><trkpt lat="45.9123627" lon="11.0732236"><ele>260.0</ele><time>2026-04-30T17:23:32.891Z</time></trkpt><trkpt lat="45.9124888" lon="11.0732758"><ele>260.0</ele><time>2026-04-30T17:23:34.892Z</time></trkpt><trkpt lat="45.9125575" lon="11.0732856"><ele>260.0</ele><time>2026-04-30T17:23:35.891Z</time></trkpt><trkpt lat="45.9126262" lon="11.0732982"><ele>260.0</ele><time>2026-04-30T17:23:36.892Z</time></trkpt><trkpt lat="45.9126937" lon="11.0733014"><ele>257.42857142857144</ele><time>2026-04-30T17:23:37.892Z</time></trkpt><trkpt lat="45.9127652" lon="11.0732816"><ele>254.85714285714286</ele><time>2026-04-30T17:23:38.892Z</time></trkpt><trkpt lat="45.9128351" lon="11.0732431"><ele>252.28571428571428</ele><time>2026-04-30T17:23:39.892Z</time></trkpt><trkpt lat="45.9128911" lon="11.073195"><ele>249.71428571428572</ele><time>2026-04-30T17:23:40.892Z</time></trkpt><trkpt lat="45.9129395" lon="11.073122"><ele>247.1428571428571</ele><time>2026-04-30T17:23:41.892Z</time></trkpt><trkpt lat="45.9129916" lon="11.0730539"><ele>244.57142857142856</ele><time>2026-04-30T17:23:42.892Z</time></trkpt><trkpt lat="45.9130627" lon="11.0730094"><ele>242.0</ele><time>2026-04-30T17:23:43.891Z</time></trkpt><trkpt lat="45.9131441" lon="11.0729691"><ele>241.16666666666669</ele><time>2026-04-30T17:23:44.891Z</time></trkpt><trkpt lat="45.9132319" lon="11.0729201"><ele>240.33333333333334</ele><time>2026-04-30T17:23:45.891Z</time></trkpt><trkpt lat="45.9133119" lon="11.0728594"><ele>239.5</ele><time>2026-04-30T17:23:46.892Z</time></trkpt><trkpt lat="45.913384" lon="11.0727878"><ele>238.66666666666669</ele><time>2026-04-30T17:23:47.891Z</time></trkpt><trkpt lat="45.9134452" lon="11.0727302"><ele>237.83333333333334</ele><time>2026-04-30T17:23:48.892Z</time></trkpt><trkpt lat="45.9135034" lon="11.0726942"><ele>237.0</ele><time>2026-04-30T17:23:49.892Z</time></trkpt><trkpt lat="45.91357" lon="11.0727503"><ele>234.0</ele><time>2026-04-30T17:23:51.891Z</time></trkpt><trkpt lat="45.9136291" lon="11.0728975"><ele>231.0</ele><time>2026-04-30T17:23:53.892Z</time></trkpt><trkpt lat="45.9136655" lon="11.0729942"><ele>228.0</ele><time>2026-04-30T17:23:54.892Z</time></trkpt><trkpt lat="45.9137068" lon="11.0730802"><ele>225.0</ele><time>2026-04-30T17:23:55.891Z</time></trkpt><trkpt lat="45.913758" lon="11.073164"><ele>222.0</ele><time>2026-04-30T17:23:56.892Z</time></trkpt><trkpt lat="45.913807" lon="11.073254"><ele>219.0</ele><time>2026-04-30T17:23:57.892Z</time></trkpt><trkpt lat="45.9138603" lon="11.0733374"><ele>219.0</ele><time>2026-04-30T17:23:58.891Z</time></trkpt><trkpt lat="45.9139126" lon="11.0734024"><ele>219.0</ele><time>2026-04-30T17:23:59.891Z</time></trkpt><trkpt lat="45.9139878" lon="11.0735471"><ele>219.0</ele><time>2026-04-30T17:24:01.892Z</time></trkpt><trkpt lat="45.9140192" lon="11.0736362"><ele>219.0</ele><time>2026-04-30T17:24:02.891Z</time></trkpt><trkpt lat="45.9140525" lon="11.073726"><ele>219.0</ele><time>2026-04-30T17:24:03.891Z</time></trkpt><trkpt lat="45.9140969" lon="11.0738146"><ele>219.0</ele><time>2026-04-30T17:24:04.891Z</time></trkpt><trkpt lat="45.9141312" lon="11.0739052"><ele>219.0</ele><time>2026-04-30T17:24:05.892Z</time></trkpt><trkpt lat="45.9141698" lon="11.0739896"><ele>219.0</ele><time>2026-04-30T17:24:06.891Z</time></trkpt><trkpt lat="45.9142058" lon="11.0740704"><ele>219.0</ele><time>2026-04-30T17:24:07.893Z</time></trkpt><trkpt lat="45.9142393" lon="11.0741532"><ele>219.0</ele><time>2026-04-30T17:24:08.893Z</time></trkpt><trkpt lat="45.9142613" lon="11.0742441"><ele>219.0</ele><time>2026-04-30T17:24:09.893Z</time></trkpt><trkpt lat="45.9142816" lon="11.0743497"><ele>219.0</ele><time>2026-04-30T17:24:10.892Z</time></trkpt><trkpt lat="45.9142974" lon="11.0744572"><ele>219.0</ele><time>2026-04-30T17:24:11.891Z</time></trkpt><trkpt lat="45.9143158" lon="11.0745626"><ele>214.39999999999998</ele><time>2026-04-30T17:24:12.891Z</time></trkpt><trkpt lat="45.914336" lon="11.0746698"><ele>209.79999999999998</ele><time>2026-04-30T17:24:13.891Z</time></trkpt><trkpt lat="45.9143596" lon="11.0747693"><ele>205.2</ele><time>2026-04-30T17:24:14.891Z</time></trkpt><trkpt lat="45.9143989" lon="11.0748941"><ele>200.60000000000002</ele><time>2026-04-30T17:24:16.891Z</time></trkpt><trkpt lat="45.9145043" lon="11.074882"><ele>196.0</ele><time>2026-04-30T17:24:19.892Z</time></trkpt><trkpt lat="45.9145855" lon="11.0747913"><ele>195.99999999999997</ele><time>2026-04-30T17:24:21.892Z</time></trkpt><trkpt lat="45.9146593" lon="11.0746736"><ele>196.0</ele><time>2026-04-30T17:24:23.892Z</time></trkpt><trkpt lat="45.9146833" lon="11.0745373"><ele>196.0</ele><time>2026-04-30T17:24:25.891Z</time></trkpt><trkpt lat="45.914694" lon="11.0744351"><ele>196.0</ele><time>2026-04-30T17:24:26.891Z</time></trkpt><trkpt lat="45.9147141" lon="11.0743315"><ele>195.99999999999997</ele><time>2026-04-30T17:24:27.891Z</time></trkpt><trkpt lat="45.9147378" lon="11.0742339"><ele>196.0</ele><time>2026-04-30T17:24:28.891Z</time></trkpt><trkpt lat="45.9147657" lon="11.0741316"><ele>195.85714285714286</ele><time>2026-04-30T17:24:29.891Z</time></trkpt><trkpt lat="45.9147931" lon="11.0740275"><ele>195.71428571428572</ele><time>2026-04-30T17:24:30.891Z</time></trkpt><trkpt lat="45.9148154" lon="11.0739286"><ele>195.57142857142856</ele><time>2026-04-30T17:24:31.891Z</time></trkpt><trkpt lat="45.9148376" lon="11.0738256"><ele>195.42857142857144</ele><time>2026-04-30T17:24:32.891Z</time></trkpt><trkpt lat="45.9148644" lon="11.0737239"><ele>195.28571428571428</ele><time>2026-04-30T17:24:33.891Z</time></trkpt><trkpt lat="45.9148876" lon="11.0736307"><ele>195.14285714285714</ele><time>2026-04-30T17:24:34.891Z</time></trkpt><trkpt lat="45.9149158" lon="11.0735322"><ele>195.0</ele><time>2026-04-30T17:24:35.891Z</time></trkpt><trkpt lat="45.914953" lon="11.0734355"><ele>195.0</ele><time>2026-04-30T17:24:36.891Z</time></trkpt><trkpt lat="45.9149935" lon="11.0733472"><ele>195.0</ele><time>2026-04-30T17:24:37.891Z</time></trkpt><trkpt lat="45.9150336" lon="11.0732612"><ele>195.0</ele><time>2026-04-30T17:24:38.892Z</time></trkpt><trkpt lat="45.9150763" lon="11.0731765"><ele>195.0</ele><time>2026-04-30T17:24:39.891Z</time></trkpt><trkpt lat="45.9151195" lon="11.0730943"><ele>195.0</ele><time>2026-04-30T17:24:40.892Z</time></trkpt><trkpt lat="45.9151576" lon="11.0730149"><ele>195.0</ele><time>2026-04-30T17:24:41.891Z</time></trkpt><trkpt lat="45.9152023" lon="11.0728644"><ele>192.8</ele><time>2026-04-30T17:24:43.892Z</time></trkpt><trkpt lat="45.9152097" lon="11.0727017"><ele>190.6</ele><time>2026-04-30T17:24:45.892Z</time></trkpt><trkpt lat="45.9152115" lon="11.0725545"><ele>188.39999999999998</ele><time>2026-04-30T17:24:47.892Z</time></trkpt><trkpt lat="45.9152473" lon="11.0724631"><ele>186.2</ele><time>2026-04-30T17:24:49.892Z</time></trkpt><trkpt lat="45.9153225" lon="11.0724513"><ele>184.0</ele><time>2026-04-30T17:24:51.891Z</time></trkpt><trkpt lat="45.9154367" lon="11.0724979"><ele>184.0</ele><time>2026-04-30T17:24:53.891Z</time></trkpt><trkpt lat="45.9155341" lon="11.0725324"><ele>184.0</ele><time>2026-04-30T17:24:55.891Z</time></trkpt><trkpt lat="45.9156044" lon="11.0725495"><ele>184.0</ele><time>2026-04-30T17:24:58.891Z</time></trkpt></trkseg></trk></gpx>